     2.10           OBSERVATION DATA    G (GPS)             RINEX VERSION / TYPE
teqc 2002Mar14 SOPAC 20050725 22:56:22UTC                   PGM / RUN BY / DATE
Linux 2.0.36|Pentium II|gcc -static|Linux|486/DX+           COMMENT
BIT 2 OF LLI FLAGS DATA COLLECTED UNDER A/S CONDITION       COMMENT
HPGN D CA 03 CM                                             MARKER NAME
03CM                                                        MARKER NUMBER
Terry Goff                                                  OBSERVER / AGENCY
0220298044 TRIMBLE 5700 2.01                                REC # / TYPE / VERS
12399200 TRM41249.00 NONE                                   ANT # / TYPE
 -2559516.0000 -4285969.0000  3956946.0000                  APPROX POSITION XYZ
        2.0000        0.0000        0.0000                  ANTENNA: DELTA H/E/N
     1     1                                                WAVELENGTH FACT L1/2
     6    L1    L2    C1    P2    P1    D1                  # / TYPES OF OBSERV
    15.0000                                                 INTERVAL
Northern California Height Modernization 2004               COMMENT
                                                            COMMENT
SOPAC - Scripps Orbit and Permanent Array Center            COMMENT
IGPP - Institute of Geophysics and Planetary Physics        COMMENT
SIO - Scripps Institution of Oceanography                   COMMENT
UCSD - University of California, San Diego                  COMMENT
                                                            COMMENT
email: archive@gpsmail.ucsd.edu                             COMMENT
ftp://garner.ucsd.edu                                       COMMENT
http://sopac.ucsd.edu                                       COMMENT
                                                            COMMENT
                                                            COMMENT
Approximate Lat, Lon : 38.590, -120.845                     COMMENT
                                                            COMMENT
SNR is mapped to RINEX snr flag value [1-9]                 COMMENT
L1: 3 -> 1; 8 -> 5; 40 -> 9                                 COMMENT
L2: 1 -> 1; 5 -> 5; 60 -> 9                                 COMMENT
  2004     9    17    20    50   30.0000000     GPS         TIME OF FIRST OBS
                                                            END OF HEADER
 04  9 17 20 50 30.0000000  0  6G 3G 8G13G19G23G27
    -89845.87159    -64090.32057  23008928.8364   23008928.5744

   -231133.16059   -171527.53157  22511101.5234   22511100.6954
    -55000.70759
    -44735.30558                  20385228.7664   20385226.8164

   -227996.30159   -168669.31657  23441845.2814   23441844.5394

    100650.30959     67559.69957  22066140.1094   22066137.4574

   -152257.62159   -114228.14558  21429839.7274   21429838.6054

 04  9 17 20 50 45.0000000  0  6G 3G 8G13G19G23G27
   -110309.23049    -80035.79347  23005035.1804   23005035.8524
      1364.2244
   -282836.12949   -211815.54747  22501262.6954   22501262.0784
      3446.8654
    -67461.58249    -54445.07848  20382857.2194   20382855.1054
       830.7254
   -278883.63349   -208321.69547  23432161.6094   23432161.6644
      3392.4894
    122436.05549     84535.57047  22070285.9534   22070283.7814
     -1452.3834
   -186383.81649   -140819.97348  21423345.9454   21423344.5824
      2275.0804
 04  9 17 20 51  0.0000000  0  6G 3G 8G13G19G23G27
   -130715.98849    -95937.16847  23001150.9534   23001151.5474
      1360.4514
   -334583.47749   -252138.12947  22491415.7034   22491414.1024
      3449.8234
    -79888.71149    -64128.55948  20380492.1724   20380490.7274
       828.4754
   -329775.74249   -247977.81247  23422476.8134   23422476.0594
      3392.8074
    144221.44949    101511.18047  22074431.4224   22074429.1024
     -1452.3604
   -220556.02349   -167447.66048  21416843.1724   21416841.5664
      2278.1474
 04  9 17 20 51 15.0000000  0  6G 3G 8G13G19G23G27
   -151053.94149   -111784.91847  22997281.0234   22997282.5664
      1355.8644
   -386362.94949   -292485.75447  22481561.2974   22481562.7934
      3451.9654
    -92269.68749    -73776.07448  20378136.2194   20378134.4654
       825.3984
   -380660.00449   -287627.80547  23412794.0394   23412794.0664
      3392.2844
    166018.54749    118495.87947  22078579.5704   22078577.2584
     -1453.1404
   -254762.23449   -194101.84048  21410333.7814   21410332.3674
      2280.4144
 04  9 17 20 51 30.0000000  0  6G 3G 8G13G19G23G27
   -171315.45349   -127573.07447  22993426.1804   22993426.7544
      1350.7674
   -438167.10949   -332852.60247  22471703.5634   22471703.8834
      3453.6114
   -104597.07449    -83381.83648  20375790.5004   20375788.3874
       821.8264
   -431528.67649   -327265.66047  23403113.4384   23403113.4614
      3391.2454
    187834.65649    135495.41847  22082731.2974   22082728.4024
     -1454.4074
   -288994.91049   -220776.65248  21403819.9224   21403818.4184
      2282.1784
 04  9 17 20 51 45.0000000  0  6G 3G 8G13G19G23G27
   -191496.87149   -143298.84847  22989585.1174   22989586.3954
      1345.4284
   -489992.45349   -373235.95747  22461841.9534   22461841.1254
      3455.0234
   -116867.16049    -92942.94548  20373455.7504   20373453.5554
       818.0064
   -482377.69149   -366888.20347  23393437.9454   23393437.0354
      3389.9344
    209673.42249    152512.61347  22086887.2814   22086885.1134
     -1455.9184
   -323250.44149   -247469.24648  21397301.1254   21397299.7344
      2283.7024
 04  9 17 20 52  0.0000000  0  6G 3G 8G13G19G23G27
   -211595.48049   -158960.10247  22985760.4144   22985761.6764
      1339.9074
   -541836.18049   -413633.63347  22451976.2194   22451976.0434
      3456.2484
   -129077.23049   -102457.28148  20371132.2734   20371130.4104
       814.0054
   -533204.34449   -406493.34047  23383765.8594   23383764.6564
      3388.4434
    231537.16449    169549.25847  22091047.7894   22091044.5744
     -1457.5834
   -357526.25849   -274177.66048  21390778.2424   21390777.0004
      2285.0544
 04  9 17 20 52 15.0000000  0  6G 3G 8G13G19G23G27
   -231608.39549   -174554.59847  22981952.4844   22981952.9884
      1334.1944
   -593695.50049   -454043.46147  22442107.3524   22442107.6374
      3457.2884
   -141224.42649   -111922.62548  20368820.5704   20368818.7584
       809.8134
   -584005.30949   -446078.39547  23374097.9144   23374096.6884
      3386.7314
    253428.52049    186607.43847  22095213.2664   22095210.1024
     -1459.4244
   -391819.57449   -300899.71948  21384252.4384   21384251.1884
      2286.2214
 04  9 17 20 52 30.0000000  0  6G 3G 8G13G19G23G27
   -251532.93449   -190080.18747  22978160.5944   22978162.0314
      1328.3034
   -645567.88749   -494463.46947  22432236.3284   22432236.1644
      3458.1594
   -153306.07849   -121336.89848  20366521.5004   20366519.8674
       805.4434
   -634777.75049   -485641.27047  23364436.9064   23364435.5044
      3384.8294
    275349.82849    203688.95747  22099385.0394   22099382.1844
     -1461.4214
   -426127.80949   -327633.40648  21377723.8364   21377722.6024
      2287.2164
 04  9 17 20 52 45.0000000  0  6G 3G 8G13G19G23G27
   -271364.95349   -205533.69547  22974387.0704   22974388.4844
      1322.1354
   -697449.01649   -534890.34047  22422364.2584   22422363.6564
      3458.7424
   -165318.02349   -130696.85548  20364235.6724   20364234.0554
       800.7964
   -685517.04349   -525178.30947  23354781.5084   23354779.3954
      3382.6204
    297305.28949    220797.07847  22103562.5164   22103560.2464
     -1463.6974
   -460446.78149   -354375.44548  21371193.4064   21371192.0864
      2287.9324
 04  9 17 20 53  0.0000000  0  6G 3G 8G13G19G23G27
   -291103.06649   -220914.05547  22970631.3284   22970631.7034
      1315.8744
   -749337.96949   -575323.23847  22412490.1644   22412489.6884
      3459.2644
   -177259.05549   -140001.56248  20361963.0944   20361961.4844
       796.0694
   -736221.75049   -564688.39147  23345133.1334   23345130.6334
      3380.3144
    319295.86349    237932.53947  22107747.7504   22107745.0904
     -1466.0384
   -494775.41049   -381125.01248  21364660.9694   21364659.6334
      2288.5754
 04  9 17 20 53 15.0000000  0  6G 3G 8G13G19G23G27
   -310747.10949   -236221.08647  22966892.3364   22966893.1334
      1309.6034
   -801234.48849   -615762.05947  22402614.3134   22402614.0084
      3459.7684
   -189128.84449   -149250.74648  20359704.5004   20359702.7774
       791.3194
   -786891.34449   -604171.10947  23335491.1094   23335489.0084
      3377.9734
    341321.51649    255095.35547  22111938.7974   22111935.9384
     -1468.3774
   -529113.56649   -407881.99648  21358126.0704   21358125.6054
      2289.2104
 04  9 17 20 53 30.0000000  0  6G 3G 8G13G19G23G27
   -330292.56249   -251451.30147  22963173.2894   22963174.0944
      1303.0304
   -853133.88749   -656203.14147  22392738.2734   22392738.0984
      3459.9604
   -200922.82849   -158440.86348  20357460.5634   20357458.6024
       786.2664
   -837520.97349   -643622.66447  23325855.8914   23325854.4774
      3375.3094
    363386.60249    272288.91847  22116138.1414   22116135.5044
     -1471.0064
   -563456.65649   -434642.85248  21351591.0164   21351590.0004
      2289.5394
 04  9 17 20 53 45.0000000  0  6G 3G 8G13G19G23G27
   -349738.58249   -266604.03947  22959473.2274   22959473.3554
      1296.4014
   -905035.35949   -696645.82847  22382861.1884   22382861.3634
      3460.0984
   -212640.30149   -167571.36348  20355230.5084   20355228.8954
       781.1654
   -888109.54749   -683042.26647  23316229.3674   23316227.9104
      3372.5724
    385491.78549    289513.69947  22120343.5864   22120341.6914
     -1473.6794
   -597804.03149   -461407.02748  21345055.0784   21345053.8954
      2289.8254
 04  9 17 20 54  0.0000000  0  6G 3G 8G13G19G23G27
   -369082.12149   -281676.91447  22955792.2344   22955792.3364
      1289.5694
   -956936.13749   -737087.95347  22372984.8834   22372984.6564
      3460.0524
   -224278.15249   -176639.81248  20353015.7504   20353014.4924
       775.8574
   -938653.74249   -722427.26647  23306611.1484   23306610.0664
      3369.6134
    407639.86349    306771.91047  22124558.6724   22124556.4264
     -1476.5394
   -632152.68749   -488172.19548  21338518.8054   21338517.4964
      2289.9104
 04  9 17 20 54 15.0000000  0  6G 3G 8G13G19G23G27
   -388320.20349   -296667.62147  22952131.4064   22952132.4964
      1282.5394
  -1008833.37949   -777527.34447  22363109.9384   22363109.4304
      3459.8164
   -235833.41849   -185643.91448  20350817.1954   20350815.2154
       770.3514
   -989150.44149   -761775.25047  23297001.4774   23297000.7854
      3366.4474
    429833.64149    324065.73047  22128782.2194   22128779.3714
     -1479.5854
   -666499.76249   -514936.15248  21331982.3914   21331981.1254
      2289.8054
 04  9 17 20 54 30.0000000  0  6G 3G 8G13G19G23G27
   -407452.35549   -311575.78947  22948490.7344   22948491.4694
      1275.4774
  -1060726.68449   -817963.67647  22353234.3284   22353234.2544
      3459.5544
   -247305.70349   -194583.35548  20348633.8364   20348631.9614
       764.8194
  -1039598.91049   -801085.65647  23287401.0634   23287400.5314
      3363.2314
    452073.19949    341395.24647  22133014.2034   22133011.4804
     -1482.6374
   -700844.88349   -541698.56648  21325447.0704   21325445.5474
      2289.6754
 04  9 17 20 54 45.0000000  0  6G 3G 8G13G19G23G27
   -426474.90649   -326398.53947  22944870.4064   22944870.5434
      1268.1704
  -1112612.29349   -858393.98447  22343361.0084   22343361.1374
      3459.0414
   -258691.23049   -203455.20348  20346467.2114   20346465.4774
       759.0354
  -1089995.17249   -840355.40247  23277811.3364   23277809.9344
      3359.7514
    474361.95349    358763.09047  22137254.7194   22137253.2814
     -1485.9174
   -735184.44949   -568456.67248  21318912.2424   21318911.2384
      2289.3044
 04  9 17 20 55  0.0000000  0  6G 3G 8G13G19G23G27
   -445387.72749   -341135.78147  22941271.6414   22941272.2664
      1260.8554
  -1164490.07449   -898818.21147  22333488.9924   22333488.5314
      3458.5194
   -269989.84049   -212259.31248  20344317.3444   20344315.4964
       753.2414
  -1140338.90249   -879584.20347  23268231.3674   23268230.0864
      3356.2494
    496700.03549    376169.34047  22141507.0234   22141504.6214
     -1489.2054
   -769518.29349   -595210.30148  21312378.9304   21312377.6804
      2288.9234
 04  9 17 20 55 15.0000000  0  6G 3G 8G13G19G23G27
   -464188.35249   -355785.60247  22937694.3834   22937695.3954
      1253.3754
  -1216357.55949   -939234.41847  22323618.7274   22323618.1604
      3457.8324
   -281199.08649   -220993.78548  20342184.3444   20342181.9964
       747.2834
  -1190627.14549   -918769.76247  23258661.4844   23258659.8524
      3352.5494
    519089.59049    393615.71947  22145766.8444   22145764.6804
     -1492.6374
   -803844.11349   -621957.68448  21305846.6804   21305845.8954
      2288.3884
 04  9 17 20 55 30.0000000  0  6G 3G 8G13G19G23G27
   -482877.34049   -370348.44947  22934137.6954   22934137.6914
      1245.9334
  -1268215.61349   -979643.26647  22313750.5004   22313749.3524
      3457.2044
   -292319.56649   -229659.09048  20340068.0394   20340065.9694
       741.3654
  -1240860.30949   -957912.41847  23249102.9304   23249100.8094
      3348.8784
    541529.79349    411101.56647  22150036.9304   22150034.7154
     -1496.0144
   -838162.50849   -648699.28548  21299316.3674   21299315.1994
      2287.8934
 04  9 17 20 55 45.0000000  0  6G 3G 8G13G19G23G27
   -501448.97349   -384819.82047  22930603.9694   22930603.0824
      1238.1094
  -1320058.05949  -1020039.97347  22303885.2894   22303884.6174
      3456.1634
   -303345.55949   -238250.77348  20337969.9614   20337967.6524
       735.0664
  -1291032.22349   -997007.34447  23239555.1414   23239553.7774
      3344.7944
    564026.23849    428631.23447  22154318.1174   22154315.5314
     -1499.7634
   -872467.82049   -675430.67648  21292788.0394   21292787.2114
      2287.0214
 04  9 17 20 56  0.0000000  0  6G 3G 8G13G19G23G27
   -519904.22749   -399200.52047  22927091.5554   22927092.3284
      1230.3504
  -1371886.26249  -1060425.53547  22294022.5554   22294021.8484
      3455.2144
   -314277.90649   -246769.47748  20335889.3444   20335887.3984
       728.8234
  -1341143.65249  -1036055.15247  23230019.0004   23230018.1374
      3340.7624
    586577.83249    446203.87147  22158610.2194   22158607.0744
     -1503.4404
   -906760.96149   -702152.60548  21286262.6884   21286261.2894
      2286.2094
 04  9 17 20 56 15.0000000  0  6G 3G 8G13G19G23G27
   -538241.12149   -413488.98847  22923601.6954   22923603.5164
      1222.4604
  -1423698.18049  -1100798.45747  22284162.8914   22284162.2504
      3454.1284
   -325114.79749   -255213.81248  20333827.2504   20333825.3794
       722.4594
  -1391192.38749  -1075054.09847  23220495.6174   23220493.5474
      3336.5824
    609186.25049    463820.78947  22162911.9454   22162909.5474
     -1507.2284
   -941040.20349   -728863.69948  21279739.6094   21279738.3674
      2285.2834
 04  9 17 20 56 30.0000000  0  6G 3G 8G13G19G23G27
   -556458.37149   -427684.23847  22920134.9454   22920136.1914
      1214.4834
  -1475492.50849  -1141157.64147  22274307.3594   22274305.7624
      3452.9554
   -335854.84049   -263582.66848  20331783.4064   20331781.8984
       716.0034
  -1441176.89849  -1114003.01247  23210983.4304   23210981.8014
      3332.3014
    631852.53949    481482.81647  22167225.3054   22167222.5944
     -1511.0864
   -975304.24649   -755562.93748  21273219.2974   21273218.1214
      2284.2704
 04  9 17 20 56 45.0000000  0  6G 3G 8G13G19G23G27
   -574555.35549   -441785.75447  22916691.8594   22916692.1724
      1206.4664
  -1527268.82449  -1181502.80147  22264454.3594   22264453.4144
      3451.7544
   -346497.44149   -271875.60548  20329758.5314   20329756.5984
       709.5074
  -1491096.24249  -1152901.15247  23201484.2114   23201482.3674
      3327.9564
    654576.96949    499190.14847  22171549.5474   22171546.7504
     -1514.9624
  -1009552.66449   -782250.00448  21266702.1024   21266700.6604
      2283.2284
 04  9 17 20 57  0.0000000  0  6G 3G 8G13G19G23G27
   -592529.08649   -455791.24647  22913271.5084   22913271.8874
      1198.2494
  -1579024.17249  -1221831.61347  22254605.4454   22254604.9884
      3450.3574
   -357039.69549   -280090.34448  20327751.9224   20327750.2934
       702.8174
  -1540947.35949  -1191746.12147  23191997.9614   23191996.3244
      3323.4084
    677362.45349    516945.03947  22175885.6644   22175882.6094
     -1519.0324
  -1043782.39549   -808922.52048  21260188.1884   21260187.1804
      2281.9824
 04  9 17 20 57 15.0000000  0  6G 3G 8G13G19G23G27
   -610379.73849   -469700.83247  22909874.5704   22909874.6724
      1190.0434
  -1630758.72349  -1262144.24647  22244760.4384   22244759.7544
      3448.9704
   -367481.66049   -288226.94548  20325764.7734   20325763.5204
       696.1314
  -1590729.77049  -1230537.57047  23182524.1804   23182522.0634
      3318.8274
    700208.56349    534747.16447  22180232.7734   22180230.4534
     -1523.0744
  -1077993.57049   -835580.57848  21253677.4774   21253677.2074
      2280.7454
 04  9 17 20 57 30.0000000  0  6G 3G 8G13G19G23G27
   -628104.10249   -483511.98847  22906501.1564   22906502.1294
      1181.6244
  -1682469.48849  -1302438.31247  22234920.1414   22234919.9694
      3447.3844
   -377820.13349   -296282.89848  20323797.7504   20323796.2664
       689.2324
  -1640440.27749  -1269272.96547  23173064.5164   23173063.6954
      3314.0344
    723118.32449    552598.91047  22184591.8364   22184590.0664
     -1527.3174
  -1112183.27049   -862221.89148  21247172.0704   21247170.8634
      2279.3134
 04  9 17 20 57 45.0000000  0  6G 3G 8G13G19G23G27
   -645699.85549   -497222.96147  22903153.1484   22903153.3054
      1173.0504
  -1734153.97749  -1342711.93047  22225084.8754   22225084.3014
      3445.6334
   -388052.88349   -304256.46148  20321850.5004   20321848.6914
       682.1834
  -1690076.16449  -1307950.20347  23163619.1724   23163618.5044
      3309.0594
    746093.93449    570501.94947  22188964.3834   22188961.8014
     -1531.7074
  -1146349.06249   -888844.58248  21240670.1724   21240669.4414
      2277.7204
 04  9 17 20 58  0.0000000  0  6G 3G 8G13G19G23G27
   -663165.66049   -510832.64847  22899829.8134   22899829.5704
      1164.3874
  -1785810.82849  -1382963.98447  22215254.8524   22215254.7704
      3443.7904
   -398178.67249   -312146.69148  20319923.6484   20319921.8874
       675.0534
  -1739635.83649  -1346568.07847  23154187.7584   23154187.6724
      3303.9784
    769136.48449    588457.16047  22193349.3984   22193346.8364
     -1536.1704
  -1180489.69549   -915447.66048  21234173.4844   21234172.3444
      2276.0424
 04  9 17 20 58 15.0000000  0  6G 3G 8G13G19G23G27
   -680502.73049   -524342.00447  22896530.3984   22896530.7894
      1155.8054
  -1837441.13349  -1423195.37547  22205430.1254   22205429.0084
      3442.0204
   -408198.39549   -319954.27748  20318016.8524   20318015.1334
       667.9824
  -1789120.14849  -1385127.24247  23144771.8834   23144770.6724
      3298.9544
    792244.63349    606463.48447  22197746.9224   22197744.8634
     -1540.5434
  -1214606.44149   -942032.13748  21227681.1564   21227680.1764
      2274.4504
 04  9 17 20 58 30.0000000  0  6G 3G 8G13G19G23G27
   -697708.84849   -537749.35547  22893256.0554   22893257.0234
      1147.0744
  -1889042.94949  -1463404.55947  22195610.7504   22195610.5084
      3440.1214
   -418110.07049   -327677.65248  20316130.9304   20316128.7074
       660.7784
  -1838526.68749  -1423625.79747  23135370.0784   23135368.9494
      3293.7694
    815420.14849    624522.30547  22202157.0634   22202154.9414
     -1545.0344
  -1248697.19549   -968596.34848  21221193.8834   21221192.9304
      2272.7174
 04  9 17 20 58 45.0000000  0  6G 3G 8G13G19G23G27
   -714782.67249   -551053.60247  22890007.3984   22890007.6844
      1138.2554
  -1940614.82449  -1503590.42247  22185796.4224   22185796.1954
      3438.1254
   -427912.01249   -335315.52048  20314265.9534   20314264.0634
       653.4634
  -1887853.61349  -1462062.28147  23125983.4454   23125982.4024
      3288.4624
    838664.52049    642634.78947  22206579.9844   22206577.5354
     -1549.6254
  -1282760.29749   -995139.02348  21214711.9614   21214710.6804
      2270.8734
 04  9 17 20 59  0.0000000  0  6G 3G 8G13G19G23G27
   -731722.84049   -564253.70347  22886783.7664   22886783.9534
      1129.3454
  -1992155.46949  -1543751.93047  22175989.2974   22175988.1024
      3436.0434
   -437603.11749   -342867.03148  20312421.3204   20312419.6414
       646.0744
  -1937099.41849  -1500435.59847  23116612.0864   23116610.8324
      3283.0544
    861978.82849    660801.73847  22211016.8204   22211014.1254
     -1554.2874
  -1316794.82049  -1021659.41048  21208235.1484   21208234.0744
      2268.9684
 04  9 17 20 59 15.0000000  0  6G 3G 8G13G19G23G27
   -748528.59849   -577349.07047  22883585.7664   22883585.7664
      1120.3844
  -2043664.10949  -1583888.51647  22166187.1414   22166186.4574
      3433.9094
   -447182.57049   -350331.53948  20310598.7584   20310596.8364
       638.6304
  -1986263.00049  -1538744.84047  23107256.6174   23107255.4264
      3277.5724
    885363.46149    679023.50847  22215467.1804   22215464.0354
     -1558.9764
  -1350799.94949  -1048156.90648  21201764.4064   21201763.2814
      2267.0094
 04  9 17 20 59 30.0000000  0  6G 3G 8G13G19G23G27
   -765200.73449   -590340.33647  22880412.6954   22880412.9414
      1111.4764
  -2095141.65249  -1624000.85547  22156391.4774   22156390.5394
      3431.8364
   -456651.29349   -357709.75848  20308796.6414   20308794.7774
       631.2484
  -2035345.02349  -1576990.53547  23097916.5634   23097915.0864
      3272.1354
    908817.42249    697299.27747  22219929.7894   22219927.7274
     -1563.5974
  -1384776.52349  -1074632.16048  21195298.6094   21195297.6804
      2265.1054
 04  9 17 20 59 45.0000000  0  6G 3G 8G13G19G23G27
   -781739.48449   -603227.64847  22877265.6484   22877266.1524
      1102.5834
  -2146588.29349  -1664089.12947  22146600.9844   22146601.3954
      3429.7764
   -466009.32049   -365001.73848  20307015.9774   20307013.8284
       623.8684
  -2084345.27749  -1615172.53547  23088592.9924   23088591.0164
      3266.6844
    932340.36749    715628.85247  22224406.0634   22224404.1454
     -1568.1964
  -1418724.73849  -1101085.32048  21188838.5704   21188837.3754
      2263.2144
 04  9 17 21  0  0.0000000  0  6G 3G 8G13G19G23G27
   -798145.03949   -616011.16847  22874143.3054   22874144.0704
      1093.7044
  -2198004.05949  -1704153.34447  22136817.0704   22136816.8874
      3427.7184
   -475256.72349   -372207.50048  20305256.4774   20305254.3444
       616.4934
  -2133263.60949  -1653290.66847  23079283.2814   23079280.7114
      3261.2224
    955931.95749    734011.87147  22228895.3524   22228892.6524
     -1572.7734
  -1452644.74249  -1127516.47348  21182384.0234   21182382.9344
      2261.3344
 04  9 17 21  0 15.0000000  0  6G 3G 8G13G19G23G27
   -814417.88749   -628691.29347  22871047.2974   22871047.0004
      1084.8574
  -2249389.38749  -1744193.83247  22127038.7664   22127038.3054
      3425.6894
   -484393.98449   -379327.44148  20303517.4694   20303515.7234
       609.1514
  -2182100.21149  -1691345.12147  23069989.7274   23069988.3444
      3255.7734
    979591.46949    752447.82047  22233397.7504   22233395.3244
     -1577.3014
  -1486537.21149  -1153926.18448  21175934.6254   21175933.7464
      2259.4984
 04  9 17 21  0 30.0000000  0  6G 3G 8G13G19G23G27
   -830558.57049   -641268.41847  22867975.2734   22867975.5204
      1076.0464
  -2300745.09449  -1784211.25047  22117266.5634   22117265.6414
      3423.7144
   -493421.78949   -386362.09448  20301799.7274   20301797.7384
       601.8544
  -2230855.32449  -1729336.05547  23060712.0554   23060710.3244
      3250.3414
   1003318.11349    770936.09047  22237913.2274   22237910.2034
     -1581.7764
  -1520402.58249  -1180314.78148  21169490.3674   21169489.3524
      2257.6914
 04  9 17 21  0 45.0000000  0  6G 3G 8G13G19G23G27
   -846569.90649   -653744.74247  22864928.0314   22864928.7544
      1067.4224
  -2352074.08249  -1824207.84447  22107498.7584   22107498.4454
      3421.9334
   -502342.94549   -393313.64848  20300102.1254   20300100.0864
       594.7444
  -2279531.66449  -1767265.65247  23051448.6804   23051447.6334
      3245.0894
   1027108.96149    789474.37547  22242440.6954   22242438.2624
     -1586.0574
  -1554243.84049  -1206684.58248  21163050.2114   21163049.2464
      2256.0844
 04  9 17 21  1  0.0000000  0  6G 3G 8G13G19G23G27
   -862449.22349   -666118.23447  22861907.2344   22861907.2584
      1058.6214
  -2403373.40649  -1864181.31247  22097736.5164   22097735.9534
      3419.9554
   -511154.65249   -400179.91848  20298425.1804   20298423.2504
       587.4474
  -2328126.04749  -1805131.36747  23042201.3134   23042199.9144
      3239.6264
   1050966.40249    808064.55947  22246980.2344   22246978.0784
     -1590.4964
  -1588058.26249  -1233033.46148  21156615.5864   21156614.5664
      2254.2954
 04  9 17 21  1 15.0000000  0  6G 3G 8G13G19G23G27
   -878196.86749   -678389.08647  22858910.7584   22858909.2504
      1049.8434
  -2454643.50049  -1904132.02347  22087979.9774   22087980.1054
      3418.0064
   -519857.19549   -406961.11748  20296769.3834   20296767.1294
       580.1704
  -2376638.50849  -1842933.24247  23032969.5944   23032969.4264
      3234.1644
   1074890.09449    826706.36347  22251533.1724   22251530.4384
     -1594.9134
  -1621846.10949  -1259361.65248  21150186.3054   21150184.7464
      2252.5234
 04  9 17 21  1 30.0000000  0  6G 3G 8G13G19G23G27
   -893812.78149   -690557.32847  22855938.8674   22855938.7704
      1041.0614
  -2505884.35549  -1944059.94547  22078229.4694   22078229.0124
      3416.0574
   -528450.65249   -413657.31648  20295134.0004   20295132.0354
       572.8974
  -2425068.84049  -1880671.11747  23023754.0474   23023752.9614
      3228.6894
   1098879.77349    845399.59447  22256098.3834   22256096.0744
     -1599.3124
  -1655607.57449  -1285669.28548  21143761.6024   21143760.1724
      2250.7644
 04  9 17 21  1 45.0000000  0  6G 3G 8G13G19G23G27
   -909296.52049   -702622.56247  22852992.3834   22852992.8244
      1032.2494
  -2557095.57449  -1983964.77747  22068484.7034   22068484.2814
      3414.0814
   -536934.55549   -420268.15248  20293519.5704   20293517.4774
       565.5934
  -2473416.20749  -1918344.34847  23014553.4614   23014552.4064
      3223.1584
   1122935.60949    864144.37147  22260675.8674   22260673.4734
     -1603.7224
  -1689342.10249  -1311955.92648  21137341.8594   21137340.8634
      2248.9684
 04  9 17 21  2  0.0000000  0  6G 3G 8G13G19G23G27
   -924649.57849   -714585.98047  22850070.9144   22850071.2304
      1023.5374
  -2608278.72349  -2023847.72747  22058744.8834   22058743.5744
      3412.2104
   -545310.39149   -426794.77748  20291925.7974   20291923.5164
       558.3894
  -2521681.84449  -1955953.93447  23005369.6724   23005367.4104
      3217.7094
   1147056.03149    882939.46547  22265265.2734   22265262.8484
     -1608.0284
  -1723051.25449  -1338222.79348  21130927.4454   21130926.2154
      2247.2774
 04  9 17 21  2 15.0000000  0  6G 3G 8G13G19G23G27
   -939873.27049   -726448.57047  22847173.8364   22847174.5314
      1014.9134
  -2659435.01249  -2063709.74247  22049009.4614   22049009.4694
      3410.4194
   -553579.42649   -433238.18048  20290351.6024   20290350.1214
       551.2694
  -2569866.80549  -1993500.62147  22996199.7194   22996198.9104
      3212.3314
   1171239.49249    901783.71147  22269867.3524   22269864.9184
     -1612.2314
  -1756736.37949  -1364470.92248  21124517.3524   21124516.4064
      2245.6754
 04  9 17 21  2 30.0000000  0  6G 3G 8G13G19G23G27
   -954965.93449   -738209.05547  22844301.6484   22844302.0744
      1006.1784
  -2710562.85949  -2103549.59047  22039281.0704   22039280.1844
      3408.5234
   -561740.10249   -439597.14148  20288799.0634   20288796.9884
       544.0454
  -2617969.09849  -2030982.89147  22987046.4774   22987045.4654
      3206.8204
   1195487.45749    920678.19947  22274482.1484   22274479.7934
     -1616.5314
  -1790395.87549  -1390699.09848  21118111.8054   21118111.1684
      2243.9664
 04  9 17 21  2 45.0000000  0  6G 3G 8G13G19G23G27
   -969927.46549   -749867.37947  22841454.8134   22841455.0004
       997.4354
  -2761662.12149  -2143367.17647  22029556.4924   22029556.2194
      3406.6174
   -569792.15649   -445871.47748  20287266.6884   20287264.7384
       536.8044
  -2665988.47749  -2068400.55547  22977908.0004   22977907.5164
      3201.2924
   1219799.67249    939622.76647  22279107.8594   22279105.7074
     -1620.8144
  -1824029.66449  -1416907.23048  21111711.8674   21111711.0634
      2242.2534
 04  9 17 21  3  0.0000000  0  6G 3G 8G13G19G23G27
   -984757.79749   -761423.48847  22838632.1884   22838633.2894
       988.6894
  -2812732.56249  -2183162.29747  22019838.1414   22019836.9494
      3404.6964
   -577735.55549   -452061.14148  20285755.5314   20285753.1724
       529.5604
  -2713924.33649  -2105753.15247  22968786.8204   22968785.6054
      3195.7244
   1244176.20749    958617.41847  22283747.3364   22283744.6134
     -1625.1024
  -1857637.49249  -1443095.13748  21105316.2664   21105315.7274
      2240.5224
 04  9 17 21  3 15.0000000  0  6G 3G 8G13G19G23G27
   -999458.21549   -772878.32047  22835835.0784   22835835.5004
       980.0284
  -2863775.58649  -2222936.05947  22010124.6254   22010123.9344
      3402.8684
   -585571.47749   -458167.04748  20284263.6954   20284261.9804
       522.3954
  -2761777.68749  -2143041.43747  22959680.8054   22959679.1954
      3190.2234
   1268615.59849    977661.06647  22288397.7584   22288395.2304
     -1629.2934
  -1891220.78949  -1469263.91848  21098925.7664   21098924.6484
      2238.8864
 04  9 17 21  3 30.0000000  0  6G 3G 8G13G19G23G27
  -1014026.59049   -784230.28547  22833063.1884   22833062.9694
       971.2254
  -2914788.90649  -2262686.67247  22000417.3054   22000417.1764
      3400.8884
   -593297.77349   -464187.55148  20282793.8444   20282791.8874
       515.0864
  -2809546.17249  -2180263.61347  22950590.2114   22950588.8634
      3184.5664
   1293119.73849    996755.16847  22293060.7034   22293058.3834
     -1633.6094
  -1924777.43449  -1495411.95748  21092540.1724   21092539.0474
      2237.1104
 04  9 17 21  3 45.0000000  0  6G 3G 8G13G19G23G27
  -1028464.53149   -795480.59847  22830315.4454   22830315.3714
       962.5294
  -2965774.34849  -2302415.55947  21990715.4064   21990714.7974
      3399.0294
   -600916.16849   -470123.95748  20281344.1334   20281342.3794
       507.8934
  -2857231.06249  -2217420.64847  22941517.1254   22941515.1564
      3178.9934
   1317686.95349   1015898.41847  22297735.1334   22297733.0594
     -1637.8144
  -1958309.06249  -1521540.48848  21086159.2034   21086158.0744
      2235.4424
 04  9 17 21  4  0.0000000  0  6G 3G 8G13G19G23G27
  -1042771.90649   -806629.18447  22827592.7194   22827593.4144
       953.8254
  -3016731.68749  -2342122.55547  21981017.8444   21981017.9804
      3397.1564
   -608426.59849   -475976.24648  20279914.8834   20279913.3444
       500.6954
  -2904831.93749  -2254512.19547  22932457.6564   22932456.5044
      3173.3924
   1342316.96549   1035090.61747  22302422.4144   22302419.7424
     -1642.0014
  -1991815.56649  -1547649.44148  21079783.1414   21079781.9414
      2233.7674
 04  9 17 21  4 15.0000000  0  6G 3G 8G13G19G23G27
  -1056948.30949   -817675.73847  22824894.8594   22824895.8134
       945.0934
  -3067660.29349  -2381807.14847  21971326.5234   21971326.5554
      3395.2404
   -615828.37549   -481743.86748  20278506.7664   20278504.7274
       493.4524
  -2952348.01249  -2291537.66447  22923416.1174   22923415.2424
      3167.7384
   1367010.17649   1054332.03147  22307121.6414   22307119.0314
     -1646.2144
  -2025296.46549  -1573738.44948  21073411.9924   21073410.5864
      2232.0604
 04  9 17 21  4 30.0000000  0  6G 3G 8G13G19G23G27
  -1070992.89149   -828619.54747  22822221.8134   22822222.8014
       936.3054
  -3118559.38749  -2421468.74647  21961641.2974   21961640.2504
      3393.2734
   -623120.55949   -487426.09048  20277118.5234   20277116.9064
       486.1464
  -2999778.05549  -2328496.12147  22914390.2814   22914389.2854
      3162.0034
   1391767.27049   1073623.24247  22311832.6804   22311829.8094
     -1650.4734
  -2058750.84449  -1599806.78548  21067045.7894   21067044.4614
      2230.2924
 04  9 17 21  4 45.0000000  0  6G 3G 8G13G19G23G27
  -1084908.69549   -839463.00047  22819573.2974   22819574.2424
       927.7204
  -3169432.10949  -2461109.82047  21951960.4064   21951959.9964
      3391.5154
   -630306.21149   -493025.30548  20275751.2974   20275749.5394
       479.0434
  -3047124.81249  -2365389.65247  22905380.8674   22905379.7424
      3156.4514
   1416585.07449   1092961.74247  22316555.5784   22316553.8164
     -1654.5204
  -2092181.68749  -1625856.78148  21060684.0234   21060682.9654
      2228.7234
 04  9 17 21  5  0.0000000  0  7G 3G 8G28G13G19G23G27
  -1098694.81649   -850205.43447  22816950.1564   22816951.0944
       919.0754
  -3220277.73849  -2500729.75847  21942284.5944   21942284.5314
      3389.7094
   -227485.74259   -151273.52356  24173322.0554   24173322.6644

   -637384.60249   -498540.93448  20274404.4384   20274402.5274
       471.8934
  -3094387.19549  -2402217.46547  22896386.8594   22896385.9384
      3150.8264
   1441464.14149   1112348.00847  22321289.4454   22321287.2934
     -1658.6044
  -2125588.31649  -1651887.91448  21054327.2814   21054325.6414
      2227.1094
 04  9 17 21  5 15.0000000  0  7G 3G 8G28G13G19G23G27
  -1112351.25049   -860846.77747  22814351.6804   22814351.7544
       910.4294
  -3271095.98049  -2540328.35547  21932614.1174   21932613.6374
      3387.8834
   -296789.91049   -205276.68446  24160133.3914   24160135.2464
      4620.2784
   -644355.60549   -503972.89148  20273077.8204   20273075.8634
       464.7344
  -3141564.84049  -2438979.24247  22887408.8754   22887407.7854
      3145.1764
   1466404.41049   1131781.94547  22326035.5944   22326033.8014
     -1662.6854
  -2158970.56249  -1677900.05148  21047974.4924   21047973.5234
      2225.4834
 04  9 17 21  5 30.0000000  0  7G 3G 8G28G13G19G23G27
  -1125879.67649   -871388.37147  22811777.1954   22811777.5084
       901.8954
  -3321888.60549  -2579907.01647  21922948.9454   21922948.5274
      3386.1754
   -366071.20349   -259261.96546  24146949.9304   24146951.0164
      4618.7534
   -651220.78949   -509322.38348  20271771.5394   20271769.3094
       457.6794
  -3188659.06249  -2475675.99647  22878447.3984   22878446.4224
      3139.6154
   1491404.01249   1151262.12147  22330793.3754   22330791.0664
     -1666.6404
  -2192330.08649  -1703894.47348  21041626.6414   21041625.1954
      2223.9684
 04  9 17 21  5 45.0000000  0  7G 3G 8G28G13G19G23G27
  -1139281.24249   -881831.15647  22809227.5004   22809226.9614
       893.4384
  -3372656.45349  -2619466.34847  21913288.1884   21913287.7424
      3384.5234
   -435330.59449   -313230.18046  24133769.2504   24133771.8954
      4617.2934
   -657981.24649   -514590.27348  20270484.9614   20270483.2704
       450.6974
  -3235670.73849  -2512308.44147  22869501.5234   22869499.9024
      3134.1124
   1516461.69549   1170787.53947  22335561.6334   22335559.6414
     -1670.5124
  -2225668.09049  -1729872.12948  21035282.4694   21035281.2814
      2222.5344
 04  9 17 21  6  0.0000000  0  7G 3G 8G28G13G19G23G27
  -1152556.25849   -892175.29747  22806701.1644   22806701.7934
       885.0014
  -3423400.21549  -2659006.90647  21903632.1954   21903630.8134
      3382.9174
   -504568.12149   -367181.41846  24120594.0474   24120596.5124
      4615.8354
   -664637.33649   -519776.82848  20269217.9304   20269216.2894
       443.7394
  -3282599.90249  -2548876.57047  22860571.1954   22860568.6094
      3128.6114
   1541576.82449   1190357.74647  22340340.8204   22340338.6134
     -1674.3424
  -2258984.86349  -1755833.25048  21028942.4064   21028941.1134
      2221.1184
 04  9 17 21  6 15.0000000  0  7G 3G 8G28G13G19G23G27
  -1165703.32449   -902419.75047  22804199.5554   22804199.3134
       876.4714
  -3474118.10249  -2698527.32847  21893980.3054   21893979.8634
      3381.1924
   -573782.39549   -421114.51246  24107423.2114   24107424.7774
      4614.2854
   -671187.71949   -524881.02048  20267972.1414   20267969.7814
       436.6924
  -3329444.86749  -2585379.12547  22851656.5704   22851654.6524
      3122.9984
   1566750.62549   1209973.65647  22345131.2034   22345128.5164
     -1678.2534
  -2292279.14549  -1781776.83648  21022606.9144   21022605.4614
      2219.6194
 04  9 17 21  6 30.0000000  0  7G 3G 8G28G13G19G23G27
  -1178720.95349   -912563.35947  22801722.3594   22801722.2704
       867.8424
  -3524808.75449  -2738026.50447  21884334.2424   21884333.4024
      3379.3774
   -642971.72349   -475028.20746  24094256.7034   24094258.1644
      4612.6224
   -677630.91449   -529901.69148  20266745.8594   20266743.6414
       429.5464
  -3376203.75049  -2621814.58647  22842757.9694   22842757.2934
      3117.2594
   1591984.43849   1229636.35247  22349933.4224   22349930.7074
     -1682.2544
  -2325549.27049  -1807701.59448  21016275.6094   21016274.3404
      2218.0084
 04  9 17 21  6 45.0000000  0  7G 3G 8G28G13G19G23G27
  -1191609.70349   -922606.53947  22799269.1024   22799270.0394
       859.2504
  -3575472.67249  -2777504.87147  21874692.7504   21874692.7504
      3377.5954
   -712136.32048   -528922.60546  24081094.6644   24081095.2154
      4610.9734
   -683967.38349   -534839.20748  20265540.3284   20265537.8134
       422.4314
  -3422876.78949  -2658183.13747  22833876.7734   22833875.3134
      3111.5364
   1617277.73449   1249345.36747  22354745.9384   22354744.4734
     -1686.2204
  -2358795.89149  -1833608.04748  21009948.8834   21009948.1724
      2216.4414
 04  9 17 21  7  0.0000000  0  7G 3G 8G28G13G19G23G27
  -1204367.53149   -932547.67247  22796841.7274   22796842.0984
       850.5224
  -3626107.77749  -2816960.76247  21865058.1724   21865056.5944
      3375.6744
   -781273.875 9                  24067939.211
      4609.170
   -690195.09449   -539691.96948  20264355.0474   20264352.8164
       415.1814
  -3469461.62149  -2694482.98447  22825011.6564   22825010.0044
      3105.6554
   1642632.21549   1269102.07447  22359571.1094   22359569.4494
     -1690.2994
  -2392016.83649  -1859494.50048  21003627.0234   21003626.0594
      2214.7304
 04  9 17 21  7 15.0000000  0  7G 3G 8G28G13G19G23G27
  -1216996.27749   -942388.23447  22794438.3524   22794438.6214
       841.9164
  -3676716.07849  -2856395.79747  21855427.9694   21855426.5234
      3373.8874
   -850386.148 8                  24054787.648
      4607.485
   -696315.82049   -544461.36748  20263190.2194   20263188.3204
       408.0484
  -3515959.83649  -2730715.30947  22816163.8524   22816162.5164
      3099.8814
   1668045.78149   1288904.80947  22364407.4614   22364405.2544
     -1694.2384
  -2425213.94949  -1885362.36748  20997309.7584   20997309.1804
      2213.1414
 04  9 17 21  7 30.0000000  0  7G 3G 8G28G13G19G23G27
  -1229494.75049   -952127.28147  22792060.0554   22792060.4964
       833.2324
  -3727295.98849  -2895808.68747  21845802.3914   21845801.3874
      3371.9944
   -919471.668 9                  24041640.594
      4605.701
   -702328.32049   -549146.43448  20262046.2734   20262044.0944
       400.8334
  -3562369.82049  -2766878.90247  22807332.4064   22807330.9804
      3093.9994
   1693519.60549   1308754.50447  22369254.7194   22369252.3364
     -1698.2554
  -2458386.07049  -1911210.76248  20990998.0554   20990996.4884
      2211.4754
 04  9 17 21  7 45.0000000  0  8G 3G 8G28G13G19G10G23G27
  -1241863.81649   -961765.48047  22789706.6884   22789707.2154
       824.6044
  -3777848.43749  -2935200.16447  21836182.0164   21836181.7504
      3370.1634
   -988531.266 9                  24028499.078
      4603.973
   -708233.36349   -553747.76648  20260922.1564   20260920.3954
       393.6704
  -3608692.18749  -2802974.17647  22798517.6564   22798516.5474
      3088.1584
   -114305.28159    -84530.19557  24038536.6724   24038536.3444

   1719052.61349   1328650.32447  22374113.9454   22374111.1054
     -1702.2014
  -2491533.94949  -1937040.27348  20984689.6024   20984688.9774
      2209.8594
 04  9 17 21  8  0.0000000  0  8G 3G 8G28G13G19G10G23G27
  -1254104.94149   -971304.02747  22787376.9144   22787378.1214
       816.0754
  -3828375.14849  -2974571.61747  21826566.9304   21826566.8014
      3368.4474
  -1057566.094 9                  24015361.109
      4602.322
   -714032.44149   -558266.52748  20259818.6254   20259816.8444
       386.6054
  -3654928.12549  -2839002.13747  22789718.8594   22789717.3244
      3082.3964
   -163974.42249   -123233.41846  24029084.9304   24029084.4884
      3311.2764
   1744643.24249   1348591.06647  22378983.3524   22378981.2734
     -1706.0424
  -2524659.02049  -1962852.00848  20978386.3754   20978385.3164
      2208.3384
 04  9 17 21  8 15.0000000  0  8G 3G 8G28G13G19G10G23G27
  -1266216.36349   -980741.50047  22785072.6094   22785073.1644
       807.4284
  -3878873.91449  -3013921.26647  21816957.8204   21816957.1024
      3366.5844
  -1126573.91449   -851860.14156  24002229.7734   24002229.4144
      4600.5214
   -719723.65249   -562701.23848  20258735.6024   20258733.7774
       379.4144
  -3701075.39549  -2874961.00847  22780937.4844   22780936.0744
      3076.4854
   -213537.99249   -161854.38346  24019652.9384   24019652.7114
      3304.2384
   1770293.07449   1368577.92247  22383864.8364   22383862.4494
     -1709.9894
  -2557759.47349  -1988644.55548  20972087.4924   20972086.4774
      2206.6974
 04  9 17 21  8 30.0000000  0  8G 3G 8G28G13G19G10G23G27
  -1278201.56249   -990080.58247  22782792.7974   22782791.5124
       799.0134
  -3929348.14549  -3053251.82047  21807353.2114   21807352.2974
      3364.9494
  -1195558.15249   -905614.00846  23989102.3754   23989103.2664
      4598.9494
   -725310.58649   -567054.69548  20257672.2974   20257670.7234
       372.4624
  -3747137.23049  -2910853.28947  22772171.9924   22772170.8484
      3070.7894
   -262999.26649   -200395.59046  24010240.4694   24010240.5394
      3297.4184
   1795998.52349   1388608.09447  22388756.1724   22388754.5864
     -1713.6974
  -2590838.80549  -2014420.65248  20965792.6334   20965791.4304
      2205.2894
 04  9 17 21  8 45.0000000  0  8G 3G 8G28G13G19G10G23G27
  -1290059.78149   -999320.73447  22780535.0394   22780534.9384
       790.5484
  -3979797.18449  -3092562.73847  21797752.4924   21797751.5594
      3363.2694
  -1264517.89549   -959348.87946  23975980.3054   23975980.5744
      4597.3164
   -730792.41849   -571326.25448  20256629.6094   20256627.4064
       365.4554
  -3793112.48049  -2946678.11747  22763423.6094   22763422.5004
      3065.0174
   -312357.32049   -238856.37547  24000848.3524   24000848.6214
      3290.5374
   1821760.04349   1408681.96147  22393658.2194   22393655.9654
     -1717.4354
  -2623896.17249  -2040179.63348  20959502.2974   20959500.9104
      2203.8244
 04  9 17 21  9  0.0000000  0  8G 3G 8G28G13G19G10G23G27
  -1301789.25849  -1008460.58247  22778302.7344   22778302.5434
       781.9654
  -4030219.23449  -3131852.62547  21788157.7194   21788156.9494
      3361.4704
  -1333451.20749  -1013062.98046  23962862.2194   23962863.3404
      4595.5544
   -736167.34849   -575514.51648  20255606.6564   20255604.7504
       358.3294
  -3838999.19949  -2982433.94147  22754691.2114   22754690.2854
      3059.1154
   -361610.10549   -277235.14847  23991475.9774   23991475.3054
      3283.5194
   1847579.15649   1428800.71947  22398571.9924   22398569.6524
     -1721.2744
  -2656929.90649  -2065920.19148  20953215.7584   20953214.7154
      2202.2494
 04  9 17 21  9 15.0000000  0  8G 3G 8G28G13G19G10G23G27
  -1313389.51649  -1017499.71947  22776095.4614   22776094.6454
       773.3514
  -4080613.91049  -3171121.17647  21778567.7814   21778567.6844
      3359.6454
  -1402357.44948  -1066756.05946  23949749.4454   23949750.7304
      4593.7494
   -741434.89149   -579619.09048  20254604.5864   20254602.0394
       351.1704
  -3884796.51249  -3018120.10547  22745976.5704   22745975.2154
      3053.1544
   -410756.85949   -315531.31246  23982123.7504   23982122.5204
      3276.4504
   1873456.35549   1448964.73447  22403495.7194   22403494.0514
     -1725.1474
  -2689939.34849  -2091641.83248  20946934.6884   20946932.9844
      2200.6294
 04  9 17 21  9 30.0000000  0  8G 3G 8G28G13G19G10G23G27
  -1324860.99649  -1026438.52347  22773912.2664   22773911.7504
       764.7654
  -4130981.52749  -3210368.64847  21768983.1334   21768982.2934
      3357.8414
  -1471236.83249  -1120428.18746  23936641.8054   23936643.0554
      4591.9594
   -746595.39549   -583640.26648  20253622.6414   20253619.9454
       344.0344
  -3930504.53949  -3053736.70747  22737278.1484   22737275.3524
      3047.2024
   -459797.89849   -353745.12146  23972790.9924   23972790.1054
      3269.4034
   1899390.94549   1469173.48047  22408430.3284   22408428.8134
     -1728.9734
  -2722925.03949  -2117344.95748  20940657.6254   20940656.4614
      2199.0464
 04  9 17 21  9 45.0000000  0  8G 3G 8G28G13G19G10G23G27
  -1336205.69149  -1035278.55547  22771753.8134   22771753.0744
       756.3134
  -4181323.86749  -3249596.43047  21759403.1254   21759402.9064
      3356.1564
  -1540091.10948  -1174080.78546  23923538.6724   23923539.8284
      4590.2854
   -751650.86349   -587579.59048  20252660.4064   20252658.1024
       337.0314
  -3976125.00049  -3089285.06247  22728596.6954   22728594.5554
      3041.3644
   -508734.85549   -391877.81646  23963479.1024   23963478.3674
      3262.4644
   1925380.81649   1489425.25847  22413376.7734   22413374.9384
     -1732.6584
  -2755888.79749  -2143030.99248  20934384.9064   20934383.4804
      2197.5844
 04  9 17 21 10  0.0000000  0  8G 3G 8G28G13G19G10G23G27
  -1347420.54349  -1044017.37547  22769619.8984   22769620.0944
       747.6574
  -4231637.97749  -3288802.20347  21749829.4224   21749828.1174
      3354.2744
  -1608916.87148  -1227711.24646  23910441.0634   23910442.1804
      4588.3844
   -756598.19149   -591434.65248  20251718.8524   20251716.9144
       329.8224
  -4021654.35549  -3124762.42647  22719933.3834   22719931.6454
      3035.2904
   -557564.32449   -429926.77746  23954187.1174   23954185.5864
      3255.2984
   1951428.90649   1509722.45347  22418333.6024   22418332.0634
     -1736.5394
  -2788827.58249  -2168697.57848  20928116.8284   20928115.4304
      2195.9194
 04  9 17 21 10 15.0000000  0  8G 3G 8G28G13G19G10G23G27
  -1358505.43449  -1052654.91847  22767510.1644   22767511.1484
       738.9934
  -4281923.75049  -3327985.90647  21740260.3754   21740258.6954
      3352.3854
  -1677713.78149  -1281319.07846  23897351.0704   23897349.7544
      4586.4614
   -761437.14149   -595205.26248  20250798.1564   20250795.7894
       322.5974
  -4067092.36349  -3160168.62947  22711285.7974   22711284.4024
      3029.2014
   -606285.99649   -467891.66046  23944915.7504   23944914.4024
      3248.1114
   1977535.10949   1530064.90647  22423301.8204   22423299.5474
     -1740.4144
  -2821741.21549  -2194344.55948  20921853.4144   20921852.2704
      2194.2424
 04  9 17 21 10 30.0000000  0  8G 3G 8G28G13G19G10G23G27
  -1369461.94549  -1061192.48847  22765424.9534   22765425.1644
       730.4344
  -4332182.51249  -3367148.55947  21730695.8204   21730695.8444
      3350.5844
  -1746483.33248  -1334905.68046  23884265.0784   23884263.2034
      4584.6374
   -766169.37949   -598892.71948  20249897.5394   20249895.9024
       315.4834
  -4112440.18449  -3195504.50047  22702657.4224   22702655.5824
      3023.1884
   -654901.48049   -505773.87146  23935663.8984   23935663.9304
      3241.0324
   2003697.57449   1550451.21947  22428279.9454   22428277.6994
     -1744.1644
  -2854631.35249  -2219973.23048  20915594.4694   20915593.4224
      2192.6764
 04  9 17 21 10 44.9990000  0  8G 3G 8G28G13G19G10G23G27
  -1380287.82049  -1069628.21547  22763364.9724   22763365.2764
       721.7254
  -4382409.26249  -3406286.26247  21721137.9804   21721137.8864
      3348.4504
  -1815219.24248  -1388466.07846  23871183.7144   23871182.8584
      4582.3944
   -770792.90649   -602495.47748  20249017.8154   20249015.9374
       308.2354
  -4157692.89849  -3230766.31247  22694045.5194   22694043.8624
      3016.8484
   -703405.38349   -543569.05546  23926433.5974   23926434.2374
      3233.5934
   2029916.23049   1570881.27747  22433269.5114   22433267.6324
     -1747.9104
  -2887494.19949  -2245580.62948  20909341.1674   20909340.0304
      2190.8574
 04  9 17 21 10 59.9990000  0  8G 3G 8G28G13G19G10G23G27
  -1390982.03949  -1077961.38347  22761330.3314   22761329.7614
       712.9484
  -4432608.27749  -3445402.36347  21711585.6904   21711584.5384
      3346.6014
  -1883927.80548  -1442005.00846  23858109.6904   23858108.7304
      4580.5714
   -775305.91049   -606012.10548  20248158.9334   20248157.0074
       300.8674
  -4202853.73849  -3265956.50447  22685451.5894   22685449.9834
      3010.7234
   -751801.39549   -581280.22346  23917225.2454   23917224.1794
      3226.4014
   2056196.73449   1591359.57447  22438269.8314   22438269.1014
     -1752.0344
  -2920331.42249  -2271168.06648  20903092.3704   20903091.2024
      2189.1484
 04  9 17 21 11 14.9990000  0  8G 3G 8G28G13G19G10G23G27
  -1401545.55949  -1086192.67247  22759319.8314   22759320.0734
       704.2354
  -4482777.84849  -3484495.50847  21702038.2454   21702038.0654
      3344.6384
  -1952605.81248  -1495520.28946  23845040.0654   23845040.2184
      4578.5344
   -779709.71149   -609443.63748  20247320.9484   20247319.0264
       293.5874
  -4247920.96949  -3301073.77047  22676875.8394   22676873.9764
      3004.4824
   -800087.82449   -618906.02346  23908035.0814   23908035.7334
      3219.0954
   2082535.65649   1611883.36347  22443281.4334   22443280.7724
     -1755.9284
  -2953142.52049  -2296735.14548  20896848.6984   20896847.3784
      2187.4074
 04  9 17 21 11 29.9990000  0  8G 3G 8G28G13G19G10G23G27
  -1411978.96549  -1094322.57447  22757333.7064   22757334.8784
       695.5604
  -4532918.24649  -3523565.93447  21692497.0264   21692495.8434
      3342.6934
  -2021253.95748  -1549013.10546  23831978.8154   23831976.7574
      4576.5434
   -784004.91449   -612790.54748  20246503.6754   20246501.5264
       286.3474
  -4292895.05949  -3336118.44947  22668317.4094   22668315.8554
      2998.2734
   -848265.14149   -656446.75446  23898869.1674   23898867.9134
      3211.8214
   2108932.14149   1632452.00847  22448305.4874   22448304.0734
     -1759.7664
  -2985928.05149  -2322282.30148  20890609.5344   20890608.3974
      2185.7024
 04  9 17 21 11 44.9990000  0  7G 3G 8G13G19G10G23G27
  -1422281.14149  -1102350.25447  22755373.6754   22755374.6014
       686.8124
  -4583028.53549  -3562612.88747  21682960.7454   21682960.5894
      3340.6864
   -788190.39849   -616051.96948  20245706.6754   20245704.9604
       279.0324
  -4337774.37149  -3371089.27347  22659776.5654   22659775.3394
      2991.9544
   -896331.93049   -693901.37546  23889720.7764   23889721.1164
      3204.4534
   2135387.13749   1653066.23847  22453339.7064   22453337.9214
     -1763.6664
  -3018687.01249  -2347808.75448  20884375.9014   20884374.5344
      2183.9314
 04  9 17 21 11 59.9990000  0  7G 3G 8G13G19G10G23G27
  -1432451.73449  -1110275.39147  22753439.0034   22753439.0894
       678.0404
  -4633108.41049  -3601636.14547  21673431.4954   21673431.1514
      3338.6584
   -792265.60549   -619227.44948  20244931.5894   20244929.3624
       271.6804
  -4382558.33649  -3405985.82847  22651255.5034   22651252.7414
      2985.5984
   -944287.59448   -731269.39846  23880595.7374   23880595.2144
      3197.0444
   2161900.88349   1673726.26247  22458385.8474   22458383.2764
     -1767.5834
  -3051418.75449  -2373314.00848  20878147.5264   20878145.3704
      2182.1164
 04  9 17 21 12 14.9990000  0  7G 3G 8G13G19G10G23G27
  -1442491.32449  -1118098.45747  22751528.2694   22751528.6364
       669.3064
  -4683158.19549  -3640635.95347  21663907.6124   21663906.5854
      3336.6524
   -796231.25849   -622317.57448  20244176.8004   20244174.5034
       264.3774
  -4427247.17249  -3440808.26247  22642751.5264   22642748.6984
      2979.2564
   -992132.31249   -768551.00846  23871490.6054   23871490.0734
      3189.6484
   2188472.53549   1694431.42647  22463441.6594   22463439.8314
     -1771.4434
  -3084123.99249  -2398798.60248  20871923.3154   20871922.1324
      2180.3494
 04  9 17 21 12 29.9990000  0  8G 3G 8G28G13G19G10G23G27
  -1452399.00049  -1125818.68747  22749643.6444   22749642.9604
       660.5124
  -4733176.90649  -3679611.56247  21654389.2374   21654388.5344
      3334.5814
    -48407.23819                  23779783.823

   -800086.25049   -625321.46148  20243443.1364   20243441.1674
       256.9994
  -4471839.50849  -3475555.45747  22634265.1284   22634263.5224
      2972.8224
  -1039864.98449   -805745.29346  23862407.8474   23862407.7104
      3182.1784
   2215102.92649   1715182.34447  22468509.0264   22468507.8314
     -1775.3594
  -3116801.64549  -2424261.69948  20865705.6754   20865703.9444
      2178.5104
 04  9 17 21 12 44.9990000  0  8G 3G 8G28G13G19G10G23G27
  -1462176.81649  -1133437.75847  22747782.2534   22747782.2614
       651.8544
  -4783166.55949  -3718564.51647  21644876.7614   21644875.0974
      3332.6434
   -116896.898 9                  23766750.214
      4565.977
   -803832.60549   -628240.70748  20242730.2144   20242728.2804
       249.7574
  -4516337.23849  -3510228.96147  22625797.8394   22625795.4254
      2966.5154
  -1087487.60249   -842853.84446  23853346.1984   23853345.4804
      3174.8414
   2241789.77049   1735977.23847  22473587.6514   22473586.7924
     -1779.1234
  -3149453.76249  -2449704.89148  20859491.2924   20859490.4484
      2176.8084
 04  9 17 21 12 59.9990000  0  8G 3G 8G28G13G19G10G23G27
  -1471820.84849  -1140952.57047  22745947.1674   22745947.4954
       642.9354
  -4833123.15649  -3757491.71547  21635369.6754   21635369.1054
      3330.4404
   -185351.332 9                  23753724.230
      4563.629
   -807466.33649   -631072.17648  20242039.0734   20242037.1244
       242.2494
  -4560735.99649  -3544825.33647  22617348.6444   22617346.8314
      2959.9174
  -1134995.82449   -879873.21147  23844305.1754   23844304.4834
      3167.2154
   2268537.10949   1756819.28147  22478677.6444   22478675.4484
     -1783.1564
  -3182076.15649  -2475124.93448  20853284.0504   20853282.3704
      2174.8264
 04  9 17 21 13 14.9990000  0  8G 3G 8G28G13G19G10G23G27
  -1481333.19149  -1148364.80547  22744136.5424   22744136.9444
       634.1564
  -4883048.88349  -3796394.85947  21625869.5504   21625868.3354
      3328.3824
   -253772.711 9                  23740703.995
      4561.425
   -810989.62149   -633817.60248  20241368.1984   20241366.7184
       234.8864
  -4605037.74649  -3579346.12547  22608918.9254   22608915.9994
      2953.4504
  -1182391.54349   -916804.91446  23835286.1904   23835285.8274
      3159.7154
   2295342.41049   1777706.48847  22483778.9874   22483776.8274
     -1787.0204
  -3214671.15249  -2500523.60548  20847081.2614   20847079.8664
      2173.0004
 04  9 17 21 13 29.9990000  0  8G 3G 8G28G13G19G10G23G27
  -1490713.91449  -1155674.44147  22742351.8474   22742352.2334
       625.3824
  -4932943.52749  -3835273.78547  21616374.3084   21616373.8154
      3326.3104
   -322160.520 8                  23727690.839
      4559.187
   -814402.39549   -636476.90648  20240719.1754   20240717.1124
       227.5184
  -4649242.01649  -3613790.96547  22600506.4484   22600504.6404
      2946.9514
  -1229674.50849   -953648.72746  23826287.5584   23826287.8554
      3152.1984
   2322205.69949   1798638.87147  22488890.2454   22488888.5974
     -1790.8864
  -3247238.51249  -2525900.77048  20840883.8004   20840882.8514
      2171.1574
 04  9 17 21 13 44.9990000  0  8G 3G 8G28G13G19G10G23G27
  -1499961.27349  -1162880.15647  22740591.9094   22740591.8084
       616.4914
  -4982805.35949  -3874127.13347  21606886.3004   21606885.2104
      3324.1224
   -390513.156 9                  23714682.855
      4556.842
   -817703.02049   -639048.82048  20240091.1054   20240089.3664
       220.0424
  -4693346.89849  -3648158.33647  22592113.3234   22592111.3664
      2940.3264
  -1276842.68749   -990403.18446  23817312.1834   23817312.3044
      3144.5454
   2349128.35949   1819617.52747  22494013.6754   22494011.3514
     -1794.8444
  -3279776.62149  -2551255.12948  20834691.8234   20834691.0384
      2169.2074
 04  9 17 21 13 59.9990000  0  8G 3G 8G28G13G19G10G23G27
  -1509074.30949  -1169981.19947  22738857.6904   22738857.5854
       607.5364
  -5032633.11349  -3912953.95347  21597404.0114   21597403.5504
      3321.8504
   -458829.180 9                  23701683.300
      4554.402
   -820890.34849   -641532.45348  20239484.2454   20239482.5384
       212.4894
  -4737350.89849  -3682447.09047  22583739.9804   22583737.4914
      2933.6004
  -1323894.87149  -1027067.20746  23808358.6514   23808358.3044
      3136.8124
   2376111.32849   1840643.17247  22499148.5194   22499145.8394
     -1798.8654
  -3312284.32849  -2576585.80948  20828506.3154   20828504.9294
      2167.1804
 04  9 17 21 14 14.9990000  0  8G 3G 8G28G13G19G10G23G27
  -1518055.49649  -1176979.52747  22737148.4334   22737149.3084
       598.7464
  -5082429.20749  -3951756.07047  21587928.8704   21587927.7724
      3319.7404
   -527110.934 9                  23688688.480
      4552.117
   -823966.72349   -643929.62948  20238899.3154   20238897.2144
       205.0924
  -4781256.08649  -3716658.86347  22575385.2844   22575382.9604
      2927.0124
  -1370833.19148  -1063642.47746  23799425.7304   23799425.9174
      3129.2214
   2403152.13749   1861713.91847  22504293.8554   22504291.5424
     -1802.7214
  -3344763.92249  -2601894.57048  20822325.6124   20822324.2104
      2165.3064
 04  9 17 21 14 29.9990000  0  8G 3G 8G28G13G19G10G23G27
  -1526904.24249  -1183874.63347  22735464.3704   22735464.4804
       589.9164
  -5132193.34049  -3990533.31647  21578458.1514   21578457.6124
      3317.6094
   -595357.500 9                  23675702.612
      4549.771
   -826931.80149   -646240.09048  20238334.9724   20238333.0854
       197.6724
  -4825061.75849  -3750793.09847  22567048.6674   22567046.4214
      2920.3784
  -1417656.95749  -1100128.56646  23790517.6284   23790515.9014
      3121.5844
   2430250.93849   1882829.81647  22509451.0734   22509449.1834
     -1806.5874
  -3377214.99249  -2627181.10548  20816149.5114   20816148.6284
      2163.4054
 04  9 17 21 14 44.9990000  0  8G 3G 8G28G13G19G10G23G27
  -1535619.23449  -1190665.52747  22733806.1514   22733806.7414
       580.9994
  -5181923.87149  -4029284.35247  21568994.8864   21568994.6474
      3315.3694
   -663567.480 9                  23662722.933
      4547.332
   -829784.09449   -648462.65648  20237791.9404   20237789.8744
       190.1534
  -4868766.17249  -3784848.43447  22558731.9954   22558730.1084
      2913.6284
  -1464364.57049  -1136524.11346  23781628.9644   23781626.9294
      3113.8414
   2457409.02749   1903991.93047  22514619.5654   22514616.7414
     -1810.5394
  -3409636.04349  -2652444.25448  20809980.2694   20809979.2534
      2161.4034
 04  9 17 21 14 59.9990000  0  8G 3G 8G28G13G19G10G23G27
  -1544200.40649  -1197352.13347  22732173.1364   22732173.5224
       572.0784
  -5231620.79749  -4068009.21147  21559538.2374   21559536.8514
      3313.1284
   -731740.402 9                  23649749.675
      4544.861
   -832523.37549   -650597.15248  20237270.6594   20237268.6984
       182.6194
  -4912368.88749  -3818824.50447  22550434.4174   22550432.3974
      2906.8484
  -1510955.79349  -1172828.92246  23772762.2764   23772760.8124
      3106.0824
   2484626.32449   1925200.18047  22519797.8864   22519796.7374
     -1814.4864
  -3442026.96549  -2677683.92248  20803817.0654   20803815.1944
      2159.3954
 04  9 17 21 15 14.9990000  0  8G 3G 8G28G13G19G10G23G27
  -1552650.38349  -1203936.54747  22730565.5344   22730565.3974
       563.3324
  -5281286.56249  -4106709.78547  21550087.6364   21550086.7414
      3311.0514
   -799878.79749  -2165207.10256  23636783.3314   23636783.9804
      4542.5604
   -835152.35949   -652645.71148  20236770.6834   20236768.5774
       175.2664
  -4955872.29749  -3852723.22347  22542156.4874   22542154.5074
      2900.2274
  -1557432.87549  -1209044.82446  23763917.9404   23763917.8234
      3098.4724
   2511900.11749   1946452.44947  22524987.8554   22524986.1284
     -1818.2534
  -3474390.27749  -2702902.08248  20797658.2614   20797656.7224
      2157.5544
 04  9 17 21 15 29.9990000  0  8G 3G 8G28G13G19G10G23G27
  -1560967.11749  -1210417.08247  22728983.1834   22728983.2964
       554.4494
  -5330918.83249  -4145384.25047  21540642.4094   21540641.2144
      3308.8184
   -867980.17649  -2218273.00446  23623823.3624   23623824.2724
      4540.0924
   -837668.82049   -654606.60248  20236291.3624   20236289.5224
       167.7644
  -4999273.89849  -3886542.59447  22533896.7614   22533895.1204
      2893.4404
  -1603793.44949  -1245169.91446  23755095.7304   23755096.2724
      3090.7054
   2539232.28949   1967750.21147  22530189.4014   22530187.8514
     -1822.1454
  -3506723.71949  -2728096.96948  20791505.5654   20791504.0264
      2155.5634
 04  9 17 21 15 44.9990000  0  8G 3G 8G28G13G19G10G23G27
  -1569150.21149  -1216793.50047  22727426.1444   22727425.7534
       545.5404
  -5380517.16049  -4184032.28947  21531204.2064   21531202.5974
      3306.5554
   -936043.97749  -2271309.68746  23610871.0424   23610871.0304
      4537.5874
   -840072.36349   -656479.48848  20235834.1284   20235832.4014
       160.2364
  -5042573.04749  -3920282.12547  22525657.8004   22525655.6714
      2886.6104
  -1650036.90649  -1281203.81646  23746296.0264   23746295.1594
      3082.8974
   2566623.16449   1989093.71947  22535401.6594   22535399.8194
     -1826.0584
  -3539026.94549  -2753268.31248  20785358.4484   20785356.9994
      2153.5484
 04  9 17 21 15 59.9990000  0  8G 3G 8G28G13G19G10G23G27
  -1577202.07849  -1223067.65647  22725893.5654   22725892.9254
       536.7914
  -5430083.90249  -4222655.71147  21521772.1284   21521770.9874
      3304.4494
  -1004072.50049  -2324318.78546  23597926.1754   23597926.5654
      4535.2354
   -842365.48449   -658266.33248  20235397.2224   20235395.6244
       152.8754
  -5085771.81249  -3953943.43747  22517436.7304   22517435.1874
      2879.9184
  -1696165.51649  -1317148.12946  23737517.3864   23737516.0774
      3075.2414
   2594070.12149   2010480.90647  22540625.1444   22540623.5264
     -1829.7974
  -3571302.27349  -2778417.91048  20779216.8004   20779215.2454
      2151.6894
 04  9 17 21 16 14.9990000  0  8G 3G 8G28G13G19G10G23G27
  -1585122.32849  -1229239.29347  22724386.3004   22724385.8904
       528.0174
  -5479618.77349  -4261254.28547  21512346.3474   21512344.8744
      3302.3254
  -1072065.09449  -2377299.97346  23584986.9254   23584987.9684
      4532.8404
   -844547.63349   -659966.72348  20234983.0034   20234980.7334
       145.4774
  -5128869.41049  -3987525.94547  22509235.7614   22509234.1944
      2873.1734
  -1742178.54349  -1353002.41446  23728761.4484   23728760.8434
      3067.5354
   2621573.48449   2031912.06347  22545858.2614   22545856.9954
     -1833.5584
  -3603549.25449  -2803545.41448  20773080.1124   20773078.9564
      2149.7994
 04  9 17 21 16 29.9990000  0  8G 3G 8G28G13G19G10G23G27
  -1592907.89549  -1235305.94547  22722904.3474   22722904.8704
       519.0384
  -5529118.46149  -4299825.46147  21502925.8004   21502925.0194
      3299.9794
  -1140018.19549  -2430250.32446  23572055.7764   23572057.4834
      4530.2074
   -846615.67649   -661578.18448  20234589.1674   20234587.7304
       137.8704
  -5171862.42249  -4021026.93447  22501054.3554   22501052.5304
      2866.2014
  -1788072.50849  -1388763.97746  23720028.9874   23720027.2844
      3059.5984
   2649136.16049   2053389.42647  22551103.9804   22551102.4254
     -1837.5124
  -3635764.56649  -2828648.25448  20766949.7694   20766948.4994
      2147.6884
 04  9 17 21 16 44.9990000  0  8G 3G 8G28G13G19G10G23G27
  -1600560.26249  -1241268.78947  22721449.2374   22721448.2614
       510.1584
  -5578584.09449  -4338370.10247  21493513.5814   21493512.3864
      3297.7094
  -1207933.19149  -2483171.00846  23559132.6514   23559133.2924
      4527.6664
   -848571.14149   -663101.92648  20234216.9954   20234215.1444
       130.3644
  -5214752.00449  -4054447.34047  22492892.6754   22492891.4954
      2859.3054
  -1833848.70349  -1424433.72746  23711317.5034   23711316.8124
      3051.7464
   2676756.50849   2074911.73847  22556360.2374   22556357.7224
     -1841.3574
  -3667949.71149  -2853727.59048  20760824.8704   20760824.0344
      2145.6764
 04  9 17 21 16 59.9990000  0  8G 3G 8G28G13G19G10G23G27
  -1608078.53949  -1247127.18747  22720018.4254   22720017.4994
       501.2184
  -5628014.78949  -4376887.50847  21484106.9334   21484105.7104
      3295.3804
  -1275808.83649  -2536061.00046  23546215.1204   23546216.9724
      4525.0434
   -850412.80549   -664536.99648  20233866.4254   20233864.7304
       122.7784
  -5257536.80949  -4087786.10547  22484750.9334   22484749.4564
      2852.3204
  -1879505.94949  -1460010.78546  23702629.2924   23702629.7494
      3043.8164
   2704435.39849   2096479.67247  22561627.0814   22561624.7374
     -1845.2594
  -3700103.60949  -2878782.55948  20754706.1054   20754705.3864
      2143.5934
 04  9 17 21 17 14.9990000  0  8G 3G 8G28G13G19G10G23G27
  -1615464.17249  -1252882.20347  22718611.9644   22718612.8154
       492.3764
  -5677411.96549  -4415378.79347  21474706.8394   21474705.9214
      3293.1454
  -1343646.25449  -2588921.28146  23533306.5194   23533307.9724
      4522.4954
   -852142.16849   -665884.55148  20233537.4014   20233535.6124
       115.2914
  -5300217.93749  -4121044.07047  22476629.1204   22476627.0074
      2845.4094
  -1925045.49649  -1495496.09446  23693962.4724   23693964.1404
      3035.9704
   2732171.31349   2118092.04747  22566904.8554   22566903.6364
     -1849.0614
  -3732227.63749  -2903814.26248  20748593.3554   20748591.9564
      2141.6024
 04  9 17 21 17 29.9990000  0  8G 3G 8G28G13G19G10G23G27
  -1622716.51649  -1258533.35247  22717232.4564   22717232.2144
       483.4904
  -5726774.80149  -4453843.32447  21465313.0424   21465312.8274
      3290.8564
  -1411444.87149  -2641751.22746  23520405.2064   23520405.4724
      4519.9084
   -853758.66849   -667144.17248  20233230.0194   20233227.5304
       107.7674
  -5342794.49649  -4154220.55547  22468526.9644   22468524.3514
      2838.4374
  -1970466.37949  -1530888.98846  23685320.2224   23685319.8824
      3028.0594
   2759964.71949   2139749.19547  22572193.5974   22572191.9374
     -1852.8944
  -3764321.14549  -2928822.19148  20742486.1284   20742485.0034
      2139.5674
 04  9 17 21 17 44.9990000  0  8G 3G 8G28G13G19G10G23G27
  -1629833.70349  -1264079.19547  22715877.4644   22715877.5114
       474.4794
  -5776101.37549  -4492279.59847  21455926.9564   21455925.8514
      3288.4384
  -1479202.41049  -2694549.29346  23507511.1444   23507510.3434
      4517.1694
   -855260.39549   -668314.35548  20232943.9564   20232941.9294
       100.1154
  -5385264.31249  -4187313.87547  22460444.8704   22460443.8624
      2831.3214
  -2015766.61749  -1566187.88346  23676700.0114   23676699.0224
      3020.0164
   2787817.16049   2161452.35547  22577493.5734   22577492.1474
     -1856.8294
  -3796382.08249  -2953804.73448  20736384.9874   20736383.7924
      2137.3964
 04  9 17 21 17 59.9990000  0  8G 3G 8G28G13G19G10G23G27
  -1636817.90249  -1269521.41447  22714548.6124   22714548.2964
       465.6134
  -5825393.84049  -4530689.28147  21446546.4954   21446545.7804
      3286.1644
  -1546920.81249  -2747316.78146  23494624.2144   23494624.6084
      4514.5604
   -856649.53149   -669396.80548  20232679.7064   20232677.5624
        92.6094
  -5427629.32049  -4220325.51647  22452383.6054   22452382.2534
      2824.3344
  -2060948.07049  -1601394.21947  23668102.0194   23668101.7694
      3012.0974
   2815726.32449   2183199.71947  22582804.1754   22582802.9374
     -1860.6114
  -3828412.64149  -2978763.60548  20730289.8154   20730288.7304
      2135.3714
 04  9 17 21 18 14.9990000  0  8G 3G 8G28G13G19G10G23G27
  -1643669.26649  -1274860.11747  22713244.7064   22713244.5224
       456.7584
  -5874652.31249  -4569072.48847  21437173.3084   21437171.5504
      3283.8984
  -1614600.18449  -2800053.81246  23481745.1674   23481745.3194
      4511.9584
   -857926.19149   -670391.59448  20232436.9564   20232434.4094
        85.1114
  -5469889.19149  -4253255.23447  22444341.3864   22444338.9834
      2817.3254
  -2106010.59449  -1636507.87546  23659527.7144   23659527.1444
      3004.1684
   2843692.07049   2204991.16047  22588126.6364   22588124.9214
     -1864.3834
  -3860412.89149  -3003698.86348  20724200.5894   20724199.3704
      2133.3504
 04  9 17 21 18 29.9990000  0  8G 3G 8G28G13G19G10G23G27
  -1650386.27749  -1280094.11747  22711966.2924   22711966.5894
       447.8014
  -5923875.12949  -4607427.93447  21427806.6754   21427805.2614
      3281.5214
  -1682238.35949  -2852758.82446  23468874.5584   23468874.6164
      4509.2124
   -859088.64549   -671297.40248  20232215.2924   20232213.6904
        77.4974
  -5512042.09049  -4286101.59847  22436320.3864   22436317.4874
      2810.1934
  -2150952.34049  -1671527.39846  23650974.8234   23650974.8394
      2996.1164
   2871715.78549   2226827.76647  22593459.5734   22593457.2374
     -1868.2484
  -3892381.08249  -3028609.14548  20718117.1514   20718116.3044
      2131.2134
 04  9 17 21 18 44.9990000  0  8G 3G 8G28G13G19G10G23G27
  -1656970.81649  -1285224.93447  22710713.4254   22710713.9684
       438.9694
  -5973063.88349  -4645756.81247  21418446.1594   21418444.9094
      3279.2504
  -1749837.10949  -2905433.09446  23456011.0584   23456011.1244
      4506.5834
   -860138.75449   -672115.68448  20232015.4644   20232014.1594
        70.0074
  -5554089.41849  -4318865.72347  22428318.9644   22428317.2454
      2803.1554
  -2195774.94149  -1706454.06646  23642445.4564   23642444.3864
      2988.1734
   2899795.54749   2248708.07447  22598802.9954   22598800.9374
     -1871.9844
  -3924318.94949  -3053495.77348  20712039.4484   20712038.8864
      2129.1914
 04  9 17 21 18 59.9990000  0  8G 3G 8G28G13G19G10G23G27
  -1663420.72749  -1290250.83247  22709486.1204   22709486.6554
       429.9944
  -6022216.33249  -4684057.39847  21409092.8784   21409091.9294
      3276.8304
  -1817393.95749  -2958074.70746  23443155.3394   23443154.8474
      4503.7904
   -861074.27749   -672844.66848  20231837.7454   20231836.0264
        62.3684
  -5596028.68049  -4351545.63747  22420338.2844   22420335.8154
      2795.9514
  -2240475.95349  -1741286.01646  23633939.4254   23633937.8314
      2980.0674
   2927933.41449   2270633.66847  22604157.2694   22604156.0224
     -1875.8584
  -3956224.23449  -3078357.03948  20705967.9254   20705967.3864
      2127.0194
 04  9 17 21 19 14.9990000  0  8G 3G 8G28G13G19G10G23G27
  -1669737.45349  -1295172.93047  22708283.8084   22708284.5544
       421.1154
  -6071333.88749  -4722330.81247  21399745.5734   21399744.9294
      3274.5044
  -1884910.34049  -3010684.83246  23430306.4014   23430306.4724
      4501.0924
   -861896.64549   -673485.46548  20231681.1984   20231679.5734
        54.8244
  -5637861.08249  -4384142.26647  22412377.2694   22412375.2064
      2788.8274
  -2285056.59849  -1776024.18446  23625455.5114   23625455.4724
      2972.0434
   2956127.71149   2292603.18847  22609522.1834   22609521.3944
     -1879.6204
  -3988098.37549  -3103194.02048  20699902.6444   20699901.6164
      2124.9434
 04  9 17 21 19 29.9990000  0  8G 3G 8G28G13G19G10G23G27
  -1675920.95349  -1299991.22347  22707107.4484   22707107.7844
       412.2334
  -6120416.12949  -4760576.69947  21390405.6754   21390404.8354
      3272.1494
  -1952385.61349  -3063262.87946  23417466.9014   23417466.7454
      4498.3524
   -862605.77749   -674038.05148  20231546.2144   20231544.5854
        47.2764
  -5679586.08649  -4416655.21547  22404437.9014   22404435.5114
      2781.6674
  -2329516.52749  -1810668.25846  23616994.4014   23616994.9644
      2963.9954
   2984378.38749   2314616.65247  22614898.4014   22614896.8584
     -1883.3784
  -4019941.13349  -3128006.55548  20693843.4954   20693842.1284
      2122.8514
 04  9 17 21 19 44.9990000  0  8G 3G 8G28G13G19G10G23G27
  -1681971.06649  -1304705.59447  22705955.7064   22705956.0344
       403.3414
  -6169463.09049  -4798795.08247  21381072.9724   21381072.3234
      3269.7974
  -2019819.55149  -3115808.70346  23404635.1904   23404634.4484
      4495.5964
   -863201.37549   -674502.15248  20231432.8864   20231431.0424
        39.7074
  -5721203.27749  -4449084.16047  22396518.7694   22396515.5194
      2774.4794
  -2373855.20749  -1845217.91446  23608557.8084   23608556.9134
      2955.9124
   3012685.48849   2336674.06647  22620284.7224   22620283.5224
     -1887.1404
  -4051752.26649  -3152794.44548  20687790.0344   20687788.5194
      2120.7424
 04  9 17 21 19 59.9990000  0  8G 3G 8G28G13G19G10G23G27
  -1687886.81249  -1309315.24247  22704830.8784   22704830.5384
       394.3834
  -6218473.52749  -4836985.01647  21371746.0194   21371745.2724
      3267.3634
  -2087210.87149  -3168321.36746  23391810.9484   23391810.0854
      4492.7554
   -863682.47749   -674877.04748  20231341.0734   20231339.9294
        32.0734
  -5762711.30549  -4481428.06247  22388619.3004   22388616.5464
      2767.2024
  -2418071.63749  -1879672.25046  23600143.7924   23600142.6834
      2947.7624
   3041049.91049   2358776.19147  22625682.9014   22625681.0854
     -1890.9614
  -4083530.61749  -3177556.78548  20681742.7144   20681741.5224
      2118.5574
 04  9 17 21 20 14.9990000  0  8G 3G 8G28G13G19G10G23G27
  -1693670.54349  -1313822.02047  22703730.0974   22703729.5854
       385.5824
  -6267449.75449  -4875148.29747  21362426.0894   21362425.3434
      3265.0824
  -2154561.68049  -3220802.44146  23378993.3084   23378993.7024
      4490.0544
   -864051.33249   -675164.47348  20231271.0034   20231269.3314
        24.5904
  -5804112.36349  -4513688.58647  22380741.1674   22380738.2104
      2760.0714
  -2462167.75849  -1914032.85547  23591752.6514   23591752.0934
      2939.7414
   3069469.26249   2380921.10547  22631090.5584   22631089.4174
     -1894.6234
  -4115278.47749  -3202295.38348  20675701.1984   20675699.7454
      2116.5244
 04  9 17 21 20 29.9990000  0  8G 3G 8G28G13G19G10G23G27
  -1699321.34449  -1318225.24247  22702654.2534   22702654.7224
       376.7204
  -6316390.76649  -4913284.15247  21353112.6904   21353112.1514
      3262.7344
  -2221870.74649  -3273250.97746  23366184.9334   23366185.1284
      4487.2714
   -864307.06649   -675363.74248  20231222.5114   20231220.7494
        17.0494
  -5845404.92249  -4545864.54747  22372883.3704   22372881.4174
      2752.8374
  -2506142.42249  -1948298.79346  23583383.7614   23583383.7884
      2931.6444
   3097944.25449   2403109.35547  22636509.8624   22636507.8864
     -1898.3334
  -4146994.78549  -3227009.38748  20669665.8554   20669664.2764
      2114.4214
 04  9 17 21 20 44.9990000  0  8G 3G 8G28G13G19G10G23G27
  -1704839.26249  -1322524.91047  22701604.3234   22701604.3194
       367.8614
  -6365296.41849  -4951392.43047  21343806.7144   21343805.2574
      3260.3774
  -2289138.00049  -3325666.96546  23353385.0194   23353383.7304
      4484.4844
   -864449.79749   -675474.96948  20231195.3314   20231193.4764
         9.5154
  -5886588.98849  -4577956.00047  22365046.7694   22365044.4174
      2745.6044
  -2549995.53149  -1982470.06246  23575039.2844   23575037.7374
      2923.5414
   3126474.55949   2425340.71147  22641938.3704   22641936.8474
     -1902.0204
  -4178679.63349  -3251698.85948  20663636.7694   20663634.8624
      2112.3234
 04  9 17 21 20 59.9990000  0  8G 3G 8G28G13G19G10G23G27
  -1710222.39849  -1326719.55147  22700580.4724   22700579.6874
       358.8764
  -6414164.44549  -4989471.40247  21334507.4644   21334506.2694
      3257.8684
  -2356361.06649  -3378048.50446  23340593.8154   23340590.7104
      4481.5384
   -864477.17249   -675496.29748  20231190.0264   20231188.0074
         1.8254
  -5927662.02049  -4609960.93747  22357230.4954   22357227.8944
      2738.2024
  -2593724.78949  -2016544.81246  23566717.7694   23566716.7804
      2915.2844
   3155062.10549   2447616.69147  22647378.5734   22647377.0974
     -1905.8364
  -4210330.77749  -3276362.08648  20657613.3944   20657611.7804
      2110.0764
 04  9 17 21 21 14.9990000  0  8G 3G 8G28G13G19G10G23G27
  -1715471.59449  -1330809.82047  22699581.9564   22699580.8784
       349.9464
  -6462995.89849  -5027521.87547  21325214.7844   21325214.0154
      3255.4304
  -2423540.53549  -3430396.13346  23327809.2614   23327807.2064
      4478.6314
   -864390.11349   -675428.46548  20231206.4874   20231205.0854
        -5.8044
  -5968624.59049  -4641879.77347  22349435.5584   22349432.2534
      2730.8384
  -2637330.74249  -2050523.50446  23558419.4094   23558418.7454
      2907.0644
   3183706.03549   2469936.56347  22652828.5584   22652828.5654
     -1909.5954
  -4241948.92649  -3300999.59448  20651596.6054   20651595.3514
      2107.8774
 04  9 17 21 21 29.9990000  0  8G 3G 8G28G13G19G10G23G27
  -1720586.42649  -1334795.39847  22698607.9954   22698607.8084
       340.9894
  -6511790.09449  -5065543.29747  21315929.9484   21315928.5934
      3252.9464
  -2490675.87549  -3482709.26646  23315034.7374   23315033.2024
      4475.6894
   -864188.31249   -675271.22348  20231245.1674   20231243.4254
       -13.4534
  -6009475.96949  -4673711.99647  22341661.7304   22341659.2414
      2723.4254
  -2680812.63749  -2084405.49246  23550145.7694   23550144.9834
      2898.7934
   3212406.55149   2492300.55947  22658292.0034   22658289.5624
     -1913.3684
  -4273533.73849  -3325611.13748  20645586.3084   20645585.1244
      2105.6544
 04  9 17 21 21 44.9990000  0  8G 3G 8G28G13G19G10G23G27
  -1725566.40649  -1338675.91847  22697660.3394   22697660.3864
       331.9994
  -6560546.42249  -5103535.22747  21306651.8704   21306650.9804
      3250.4224
  -2557766.12549  -3534987.37146  23302266.7374   23302265.6554
      4472.6834
   -863871.21949   -675024.14548  20231305.7144   20231303.5544
       -21.1404
  -6050215.30549  -4705456.88747  22333909.3004   22333906.8704
      2715.9564
  -2724169.82849  -2118190.28946  23541895.4014   23541894.6014
      2890.4794
   3241164.09449   2514708.97747  22663764.0974   22663762.6404
     -1917.1704
  -4305084.41849  -3350196.07848  20639582.3554   20639581.3554
      2103.3794
 04  9 17 21 21 59.9990000  0  8G 3G 8G28G13G19G10G23G27
  -1730414.45749  -1342453.60947  22696737.0504   22696738.1634
       323.2034
  -6609267.70749  -5141499.85247  21297380.7534   21297379.6324
      3248.0864
  -2624814.10949  -3587232.52046  23289507.3944   23289506.3514
      4469.8664
   -863441.63349   -674689.41048  20231387.3314   20231385.4914
       -28.6394
  -6090845.03549  -4737116.37147  22326177.7224   22326175.3154
      2708.6494
  -2767404.90249  -2151879.95746  23533667.4724   23533667.8664
      2882.3384
   3269975.59849   2537159.48847  22669246.3394   22669244.4524
     -1920.7674
  -4336603.75849  -3374756.59848  20633584.3784   20633583.0194
      2101.2894
 04  9 17 21 22 14.9990000  0  8G 3G 8G28G13G19G10G23G27
  -1735130.36749  -1346128.32847  22695840.2304   22695840.3194
       314.3944
  -6657953.32849  -5179436.69547  21288115.9484   21288115.0584
      3245.7084
  -2691819.35249  -3639444.32046  23276756.6674   23276755.3554
      4467.0164
   -862899.26249   -674266.78548  20231490.4804   20231488.5774
       -36.1584
  -6131364.66849  -4768690.09847  22318466.3154   22318464.3704
      2701.3094
  -2810517.32849  -2185474.05946  23525463.7924   23525463.5654
      2874.1624
   3298841.20749   2559652.11347  22674739.5344   22674736.5384
     -1924.3744
  -4368091.47349  -3399292.47348  20627592.2764   20627591.3354
      2099.1814
 04  9 17 21 22 29.9990000  0  8G 3G 8G28G13G19G10G23G27
  -1739712.44949  -1349698.80147  22694968.8944   22694968.4604
       305.4724
  -6706601.78949  -5217344.56247  21278858.6124   21278857.1594
      3243.2314
  -2758779.68449  -3691621.12946  23264015.3624   23264013.0344
      4464.0224
   -862242.43449   -673754.97348  20231615.7144   20231613.7334
       -43.7894
  -6171772.23849  -4800176.48447  22310777.6444   22310774.7534
      2693.8384
  -2853505.30549  -2218971.12946  23517282.6284   23517282.7764
      2865.8654
   3327762.32449   2582187.98847  22680242.4334   22680240.7804
     -1928.0744
  -4399545.80549  -3423802.33648  20621606.8864   20621605.6014
      2096.9554
 04  9 17 21 22 44.9990000  0  8G 3G 8G28G13G19G10G23G27
  -1744160.87549  -1353165.08247  22694121.6444   22694122.0654
       296.5624
  -6755212.91449  -5255223.34847  21269607.9644   21269606.7724
      3240.7424
  -2825695.14849  -3743762.98046  23251281.0894   23251279.1204
      4461.0314
   -861471.11349   -673153.95348  20231762.1054   20231760.7104
       -51.4214
  -6212067.41049  -4831575.29347  22303108.9644   22303107.1284
      2686.3454
  -2896368.65249  -2252371.14546  23509126.9404   23509124.6944
      2857.5574
   3356738.94949   2604767.13347  22685756.9094   22685754.9954
     -1931.7754
  -4430966.60949  -3448286.07848  20615627.8864   20615626.4094
      2094.7204
 04  9 17 21 22 59.9990000  0  8G 3G 8G28G13G19G10G23G27
  -1748476.22349  -1356527.68447  22693300.4254   22693300.7184
       287.6904
  -6803787.15649  -5293073.39147  21260364.3864   21260363.4524
      3238.2834
  -2892565.94549  -3795870.12946  23238555.3554   23238553.9334
      4458.0534
   -860585.85249   -672464.13348  20231930.6514   20231928.9874
       -59.0174
  -6252250.58249  -4862886.83247  22295462.6054   22295461.4174
      2678.8784
  -2939107.53549  -2285674.18046  23500993.6674   23500992.2024
      2849.2594
   3385770.37149   2627388.97347  22691281.6124   22691280.2064
     -1935.4284
  -4462354.34849  -3472744.04748  20609655.1904   20609653.3394
      2092.5164
 04  9 17 21 23 14.9990000  0  8G 3G 8G28G13G19G10G23G27
  -1752659.35949  -1359787.29347  22692504.9724   22692504.2884
       278.8764
  -6852325.20349  -5330895.23447  21251128.3394   21251126.7884
      3235.8704
  -2959392.69549  -3847942.85946  23225838.3004   23225837.2304
      4455.1174
   -859587.41449   -671686.14548  20232120.5424   20232118.9014
       -66.5624
  -6292322.12549  -4894111.36347  22287837.3554   22287835.0114
      2671.4364
  -2981722.70349  -2318880.79746  23492883.8554   23492883.1944
      2841.0114
   3414855.56649   2650052.72747  22696816.5194   22696814.8274
     -1939.0134
  -4493709.81649  -3497176.87948  20603687.8084   20603686.4764
      2090.3654
 04  9 17 21 23 29.9990000  0  8G 3G 8G28G13G19G10G23G27
  -1756706.81649  -1362941.14147  22691734.2144   22691735.0734
       269.8304
  -6900823.45349  -5368686.06647  21241899.0584   21241898.2724
      3233.2174
  -3026171.59449  -3899978.23446  23213131.2764   23213129.5774
      4451.9274
   -858472.28549   -670817.21148  20232332.7844   20232330.8944
       -74.3424
  -6332278.18749  -4925245.91847  22280234.1594   22280230.9834
      2663.7384
  -3024210.29349  -2351988.01646  23484799.9804   23484798.2534
      2832.5064
   3443997.85549   2672760.94147  22702361.6054   22702360.5424
     -1942.8194
  -4525029.38749  -3521581.72748  20597728.0974   20597726.7374
      2087.9714
 04  9 17 21 23 44.9990000  0  8G 3G 8G28G13G19G10G23G27
  -1760622.75849  -1365992.52347  22690989.6984   22690989.4564
       261.0634
  -6949286.09449  -5406449.14147  21232677.3704   21232675.5224
      3230.8434
  -3092906.71149  -3951979.67646  23200431.6834   23200429.9564
      4449.0084
   -857244.69949   -669860.66048  20232566.6514   20232564.1324
       -81.8394
  -6372122.68449  -4956293.56247  22272651.3704   22272649.8474
      2656.3004
  -3066574.37949  -2384998.98046  23476737.7764   23476736.8234
      2824.2724
   3473193.00849   2695510.37547  22707917.7924   22707915.3514
     -1946.3434
  -4556316.97349  -3545961.66048  20591774.3554   20591773.0654
      2085.8394
 04  9 17 21 23 59.9990000  0  8G 3G 8G28G13G19G10G23G27
  -1764405.65249  -1368940.23047  22690269.9484   22690269.3474
       252.1934
  -6997711.07849  -5444182.88347  21223462.0894   21223461.2534
      3228.3324
  -3159596.30949  -4003945.43746  23187740.7764   23187740.6364
      4445.9734
   -855903.02049   -668815.19148  20232821.8784   20232819.6794
       -89.4454
  -6411853.82049  -4987252.84447  22265091.4014   22265088.8044
      2648.7424
  -3108813.05149  -2417912.20346  23468699.1444   23468698.6324
      2815.9114
   3502442.35249   2718302.01647  22713483.3004   22713482.1944
     -1949.9564
  -4587571.20349  -3570315.60248  20585827.0194   20585825.3394
      2083.6154
 04  9 17 21 24 14.9990000  0  8G 3G 8G28G13G19G10G23G27
  -1768055.07449  -1371783.93747  22689575.5114   22689575.4134
       243.2954
  -7046097.93449  -5481886.92247  21214254.1984   21214253.5034
      3225.7904
  -3226239.37949  -4055875.00446  23175059.6834   23175059.3004
      4442.8714
   -854446.71549   -667680.41848  20233098.8704   20233096.9214
       -97.0874
  -6451470.61749  -5018123.05147  22257552.2614   22257550.4564
      2641.1204
  -3150925.55149  -2450727.14546  23460685.4804   23460685.6514
      2807.5004
   3531746.30549   2741136.22347  22719059.5814   22719057.6834
     -1953.5974
  -4618791.16449  -3594642.84048  20579885.8554   20579884.5854
      2081.3314
 04  9 17 21 24 29.9990000  0  8G 3G 8G28G13G19G10G23G27
  -1771572.64149  -1374524.89547  22688905.8944   22688905.5114
       234.5044
  -7094448.30149  -5519562.51247  21205053.2614   21205052.5154
      3223.3584
  -3292837.42649  -4107769.49246  23162386.9484   23162385.6444
      4439.8704
   -852877.37949   -666457.55948  20233397.8944   20233395.9334
      -104.6224
  -6490974.39149  -5048905.19147  22250034.4874   22250033.3084
      2633.5854
  -3192913.28149  -2483444.85946  23452696.6444   23452695.3394
      2799.1824
   3561103.18049   2764011.67647  22724646.7064   22724644.3044
     -1957.1254
  -4649978.62149  -3618944.75448  20573951.2224   20573949.8394
      2079.1644
 04  9 17 21 24 44.9990000  0  8G 3G 8G28G13G19G10G23G27
  -1774956.77349  -1377161.91047  22688261.4334   22688261.3314
       225.6094
  -7142760.58649  -5557208.43447  21195860.0344   21195858.6124
      3220.8194
  -3359388.66449  -4159627.53146  23149722.4094   23149720.4994
      4436.7494
   -851193.43049   -665145.39848  20233718.1984   20233716.6874
      -112.2634
  -6530363.37949  -5079597.86347  22242539.3154   22242536.5464
      2625.9334
  -3234774.50449  -2516063.99646  23444730.8154   23444729.1554
      2790.7484
   3590514.35549   2786929.38347  22730243.4564   22730241.4254
     -1960.7454
  -4681131.70349  -3643219.87548  20568022.9094   20568022.0734
      2076.8724
 04  9 17 21 24 59.9990000  0  8G 3G 8G28G13G19G10G23G27
  -1778207.34449  -1379694.79747  22687642.8084   22687642.6054
       216.7054
  -7191034.22349  -5594824.23047  21186673.7924   21186672.1874
      3218.2424
  -3425892.53149  -4211448.62146  23137065.7454   23137064.6054
      4433.5914
   -849394.57049   -663743.69548  20234060.1364   20234058.3974
      -119.9244
  -6569636.87549  -5110200.56247  22235065.6444   22235063.1124
      2618.2334
  -3276508.71549  -2548584.18746  23436789.3474   23436787.2614
      2782.2814
   3619979.99249   2809889.58247  22735850.4874   22735849.6984
     -1964.3764
  -4712250.07049  -3667467.94548  20562101.0894   20562100.2334
      2074.5584
 04  9 17 21 25 14.9990000  0  8G 3G 8G28G13G19G10G23G27
  -1781324.46549  -1382123.73447  22687050.6594   22687050.2104
       207.8084
  -7239269.32849  -5632410.03147  21177494.5424   21177493.3784
      3215.6744
  -3492348.91849  -4263232.84446  23124420.4804   23124417.5894
      4430.4264
   -847480.87949   -662252.51248  20234424.4954   20234422.8554
      -127.5794
  -6608794.77749  -5140713.21147  22227613.6834   22227611.2654
      2610.5274
  -3318115.87549  -2581005.33246  23428870.7454   23428869.6444
      2773.8114
   3649499.78949   2832891.96947  22741468.0584   22741466.5974
     -1967.9864
  -4743333.73449  -3691688.97348  20556185.9954   20556184.8354
      2072.2444
 04  9 17 21 25 29.9990000  0  8G 3G 8G28G13G19G10G23G27
  -1784308.97749  -1384449.32447  22686481.6754   22686481.8154
       198.9674
  -7287466.69149  -5669966.40247  21168323.0894   21168321.8234
      3213.1584
  -3558758.37149  -4314980.34446  23111781.9014   23111782.0424
      4427.2974
   -845453.20749   -660672.50848  20234810.0734   20234808.6794
      -135.1784
  -6647837.46949  -5171136.05547  22220184.4804   22220182.4094
      2602.8464
  -3359596.39149  -2613327.80546  23420976.6834   23420976.0114
      2765.3684
   3679072.80149   2855935.82047  22747095.3784   22747093.6874
     -1971.5344
  -4774383.44549  -3715883.55548  20550277.6054   20550276.7374
      2069.9814
 04  9 17 21 25 44.9990000  0  8G 3G 8G28G13G19G10G23G27
  -1787160.64849  -1386671.43447  22685939.6674   22685938.7574
       190.1114
  -7335625.77349  -5707492.94547  21159158.6284   21159157.4644
      3210.6054
  -3625120.34449  -4366690.92646  23099154.7534   23099154.1634
      4424.1324
   -843311.23849   -659003.45348  20235217.8394   20235216.1404
      -142.7984
  -6686764.37949  -5201468.67647  22212776.7764   22212775.5854
      2595.1274
  -3400949.86749  -2645551.27046  23413108.5894   23413107.0814
      2756.8984
   3708699.20749   2879021.29747  22752733.1284   22752731.1054
     -1975.0944
  -4805398.81649  -3740051.37148  20544375.5264   20544374.3704
      2067.6914
 04  9 17 21 25 59.9990000  0  8G 3G 8G28G13G19G10G23G27
  -1789879.04349  -1388789.64147  22685421.6364   22685421.5224
       181.2264
  -7383745.70749  -5744989.00447  21150001.5974   21150000.8354
      3207.9964
  -3691434.09049  -4418363.92246  23086535.5034   23086535.0344
      4420.9164
   -841054.43049   -657244.90648  20235647.5344   20235645.5934
      -150.4544
  -6725574.79749  -5231710.54347  22205391.7764   22205389.6324
      2587.3614
  -3442175.54749  -2677675.15646  23405262.5894   23405262.0544
      2748.3794
   3738379.43049   2902148.68047  22758380.8084   22758379.8824
     -1978.6824
  -4836379.12949  -3764191.86348  20538480.0974   20538478.9334
      2065.3544
 04  9 17 21 26 14.9990000  0  8G 3G 8G28G13G19G10G23G27
  -1792467.02049  -1390806.25047  22684928.9484   22684929.0854
       172.5324
  -7431829.47349  -5782456.85547  21140851.9564   21140850.5774
      3205.5844
  -3757702.34049  -4470001.43446  23073925.3234   23073924.4684
      4417.8834
   -838685.69549   -655399.14148  20236097.7224   20236096.1244
      -157.9164
  -6764271.16849  -5261863.53147  22198027.8554   22198025.6204
      2579.7584
  -3483275.93049  -2709701.46946  23397441.1444   23397441.3704
      2740.0264
   3768110.45349   2925315.66047  22764038.3004   22764037.0344
     -1982.0684
  -4867327.16849  -3788307.21148  20532591.1984   20532589.8044
      2063.2034
 04  9 17 21 26 29.9990000  0  8G 3G 8G28G13G19G10G23G27
  -1794919.28949  -1392717.12947  22684462.7924   22684463.0304
       163.4854
  -7479871.55949  -5819892.23447  21131709.9014   21131708.7654
      3202.8064
  -3823919.39849  -4521599.03946  23061324.4484   23061323.8584
      4414.4714
   -836199.52049   -653461.86748  20236571.2614   20236569.4094
      -165.7454
  -6802847.83649  -5291923.25847  22190686.9804   22190684.7304
      2571.7784
  -3524245.57849  -2741625.82847  23389645.0114   23389645.5074
      2731.3104
   3797897.44149   2948526.23447  22769706.8864   22769705.2104
     -1985.7994
  -4898237.39849  -3812393.10548  20526708.8474   20526707.5224
      2060.6824
 04  9 17 21 26 44.9990000  0  8G 3G 8G28G13G19G10G23G27
  -1797237.55149  -1394523.58247  22684021.5114   22684022.8124
       154.5514
  -7527873.34049  -5857296.20747  21122575.7454   21122573.9604
      3200.1194
  -3890086.52049  -4573157.72746  23048733.4174   23048732.8314
      4411.1414
   -833597.33249   -651434.19148  20237066.3944   20237064.8664
      -173.4794
  -6841306.14149  -5321890.72747  22183368.2694   22183365.8904
      2563.8874
  -3565085.83649  -2773449.39547  23381874.3474   23381873.3664
      2722.6844
   3827738.63749   2971779.07047  22775386.2534   22775383.0734
     -1989.4134
  -4929111.37549  -3836450.74248  20520833.7924   20520832.7884
      2058.2654
 04  9 17 21 26 59.9990000  0  8G 3G 8G28G13G19G10G23G27
  -1799424.03149  -1396227.34847  22683605.3234   22683605.7694
       145.7654
  -7575836.98849  -5894670.46547  21113448.2764   21113447.2374
      3197.5774
  -3956205.80149  -4624679.16046  23036150.8864   23036151.5264
      4407.9524
   -830881.64149   -649318.06648  20237583.2064   20237581.2374
      -181.0464
  -6879647.91849  -5351767.42247  22176073.0264   22176070.6944
      2556.1184
  -3605798.73849  -2805173.75846  23374126.8154   23374125.5154
      2714.1934
   3857631.57849   2995072.21947  22781074.7224   22781072.9334
     -1992.8634
  -4959951.21549  -3860481.79348  20514965.2304   20514964.1164
      2055.9894
 04  9 17 21 27 14.9990000  0  8G 3G 8G28G13G19G10G23G27
  -1801478.44549  -1397828.18047  22683214.7304   22683214.9484
       136.9614
  -7623762.38749  -5932014.91847  21104328.1284   21104327.2884
      3195.0274
  -4022276.67249  -4676162.93046  23023578.4874   23023578.5694
      4404.7254
   -828052.19949   -647113.31648  20238121.7694   20238119.8664
      -188.6294
  -6917872.68749  -5381552.92647  22168798.3554   22168796.6014
      2548.3184
  -3646383.82849  -2836798.50046  23366403.2304   23366403.3624
      2705.6734
   3887576.68849   3018406.01247  22786772.1754   22786770.8824
     -1996.3414
  -4990756.60249  -3884485.98448  20509102.9644   20509102.1944
      2053.6924
 04  9 17 21 27 29.9990000  0  8G 3G 8G28G13G19G10G23G27
  -1803399.84449  -1399325.36347  22682848.4724   22682849.5224
       128.0934
  -7671648.18049  -5969328.50447  21095215.8004   21095215.0384
      3192.3864
  -4088298.07449  -4727607.95746  23011014.5974   23011013.6874
      4401.4274
   -825107.72349   -644818.93048  20238682.1364   20238680.2614
      -196.2984
  -6955979.01249  -5411246.14847  22161547.1204   22161544.2534
      2540.4224
  -3686839.73049  -2868322.58646  23358704.9484   23358704.0114
      2697.0604
   3917574.78149   3041781.07447  22792480.9954   22792479.9014
     -1999.8734
  -5021526.24649  -3908462.32448  20503247.9484   20503246.5304
      2051.3104
 04  9 17 21 27 44.9990000  0  8G 3G 8G28G13G19G10G23G27
  -1805190.13349  -1400720.41047  22682507.9564   22682508.8004
       119.3534
  -7719495.96549  -6006612.48847  21086110.8234   21086109.9764
      3189.8524
  -4154271.20349  -4779015.64146  22998461.2694   22998458.7694
      4398.2094
   -822050.09849   -642436.36348  20239263.7224   20239262.3474
      -203.8424
  -6993968.30949  -5440848.18447  22154318.8084   22154315.5034
      2532.6204
  -3727168.02349  -2899747.19946  23351030.2694   23351030.3864
      2688.5534
   3947623.87149   3065195.89847  22798199.2924   22798197.0694
     -2003.2734
  -5052261.75849  -3932412.07048  20497398.8154   20497397.7574
      2049.0344
 04  9 17 21 27 59.9990000  0  8G 3G 8G28G13G19G10G23G27
  -1806847.59849  -1402011.95347  22682193.0194   22682193.6124
       110.4984
  -7767303.74249  -6043865.29347  21077013.1834   21077011.7804
      3187.1854
  -4220194.26649  -4830384.16446  22985915.6754   22985915.0814
      4394.8714
   -818877.55149   -639964.26648  20239867.4954   20239865.8664
      -211.5034
  -7031838.59449  -5470357.46547  22147112.0504   22147109.2144
      2524.6864
  -3767366.74649  -2931070.87147  23343381.1984   23343380.5264
      2679.9154
   3977725.53149   3088651.66847  22803927.8154   22803925.6674
     -2006.7774
  -5082961.44949  -3956333.91048  20491557.0344   20491556.0504
      2046.6464
 04  9 17 21 28 14.9990000  0  8G 3G 8G28G13G19G10G23G27
  -1808372.22749  -1403199.98047  22681903.2924   22681903.2064
       101.6424
  -7815071.30949  -6081086.75847  21067923.1594   21067922.4684
      3184.5044
  -4286066.87549  -4881713.39846  22973380.9724   22973379.5504
      4391.5074
   -815589.88749   -637402.44948  20240493.1674   20240491.1054
      -219.1784
  -7069589.41849  -5499773.68747  22139928.3944   22139925.6284
      2516.7224
  -3807435.62949  -2962293.41046  23335756.4644   23335754.5654
      2671.2594
   4007879.78949   3112148.44147  22809665.1054   22809665.2574
     -2010.2844
  -5113624.85549  -3980227.46948  20485722.0034   20485721.1554
      2044.2274
 04  9 17 21 28 29.9990000  0  8G 3G 8G28G13G19G10G23G27
  -1809767.05149  -1404286.85947  22681637.9174   22681637.3434
        92.9884
  -7862801.64549  -6118279.21947  21058840.3084   21058839.6874
      3182.0224
  -4351891.94949  -4933005.61346  22960854.3394   22960852.7724
      4388.3384
   -812190.36349   -634753.48048  20241140.2614   20241138.3194
      -226.6354
  -7107223.62549  -5529099.01647  22132765.8394   22132764.5734
      2508.9474
  -3847377.47349  -2993416.90647  23328155.9094   23328154.9874
      2662.7904
   4038083.50449   3135683.73447  22815413.7144   22815412.2024
     -2013.5814
  -5144255.12149  -4004095.21148  20479893.4404   20479891.6244
      2042.0184
 04  9 17 21 28 44.9990000  0  8G 3G 8G28G13G19G10G23G27
  -1811029.67249  -1405270.72747  22681397.3234   22681397.8434
        84.1754
  -7910492.15649  -6155440.63347  21049765.3004   21049764.5734
      3179.3674
  -4417666.68749  -4984258.55146  22948338.3784   22948336.8274
      4384.9834
   -808676.38749   -632015.31648  20241808.7224   20241806.7264
      -234.2654
  -7144738.43449  -5558331.30147  22125627.3784   22125625.4874
      2500.9874
  -3887189.60549  -3024439.35247  23320580.6204   23320579.4954
      2654.1424
   4068338.97749   3159259.37147  22821170.5814   22821169.1364
     -2017.0324
  -5174849.52749  -4027934.99648  20474071.7304   20474070.0384
      2039.6274
 04  9 17 21 28 59.9990000  0  8G 3G 8G28G13G19G10G23G27
  -1812160.65649  -1406152.00447  22681181.6594   22681182.7884
        75.3994
  -7958143.27349  -6192571.35947  21040698.2064   21040696.5304
      3176.7414
  -4483391.25849  -5035472.27346  22935831.0974   22935828.7694
      4381.6384
   -805048.35249   -629188.28148  20242499.2374   20242497.6634
      -241.8694
  -7182134.00449  -5587470.67647  22118511.3234   22118508.7454
      2493.0384
  -3926872.19549  -3055360.81247  23313027.9954   23313028.8044
      2645.5064
   4098645.57049   3182874.83247  22826937.4804   22826936.9644
     -2020.4404
  -5205408.44549  -4051747.14848  20468256.3394   20468254.6014
      2037.2614
 04  9 17 21 29 14.9990000  0  8G 3G 8G28G13G19G10G23G27
  -1813159.98849  -1406930.75447  22680991.5194   22680992.7184
        66.6224
  -8005754.78149  -6229671.23047  21031637.0344   21031636.3434
      3174.1014
  -4549065.35549  -5086647.02746  22923332.8234   22923331.3274
      4378.2734
   -801306.16449   -626272.28948  20243211.1364   20243209.1904
      -249.4794
  -7219409.91849  -5616516.82847  22111417.2694   22111415.7964
      2485.0614
  -3966425.05149  -3086181.23847  23305502.2614   23305501.8944
      2636.8574
   4129003.20749   3206530.07847  22832714.5814   22832713.4054
     -2023.8424
  -5235931.73049  -4075531.52048  20462448.0654   20462446.3744
      2034.8864
 04  9 17 21 29 29.9990000  0  8G 3G 8G28G13G19G10G23G27
  -1814026.46149  -1407605.92647  22680826.6594   22680827.3784
        57.7654
  -8053325.24249  -6266739.10947  21022585.2304   21022583.8704
      3171.3644
  -4614687.37949  -5137780.92246  22910846.0424   22910845.0034
      4374.8024
   -797448.47749   -623266.31248  20243944.9564   20243943.2844
      -257.1794
  -7256564.52749  -5645468.45347  22104348.0424   22104345.5544
      2476.9744
  -4005846.59049  -3116899.29747  23298000.3154   23297999.6834
      2628.1034
   4159413.10949   3230226.03547  22838501.8474   22838499.9684
     -2027.3274
  -5266417.81249  -4099286.91448  20456646.6204   20456644.9684
      2032.4054
 04  9 17 21 29 44.9990000  0  8G 3G 8G28G13G19G10G23G27
  -1814761.89849  -1408179.02747  22680687.3554   22680687.6674
        49.0294
  -8100856.46549  -6303776.39847  21013540.3154   21013538.7454
      3168.7484
  -4680259.15249  -5188875.77746  22898368.0814   22898367.1444
      4371.4524
   -793477.32849   -620171.90648  20244700.8704   20244699.4724
      -264.7434
  -7293599.54349  -5674326.89147  22097300.1904   22097297.6444
      2469.0014
  -4045138.53149  -3147516.41846  23290522.3704   23290521.2844
      2619.4634
   4189873.22749   3253961.10947  22844298.4094   22844296.8394
     -2030.6744
  -5296868.71949  -4123014.89848  20450852.1284   20450850.3584
      2030.0604
 04  9 17 21 29 59.9990000  0  8G 3G 8G28G13G19G10G23G27
  -1815367.01249  -1408650.49647  22680572.0424   22680571.5304
        40.3414
  -8148348.62149  -6340783.28147  21004502.8084   21004501.6554
      3166.1444
  -4745780.97349  -5239931.65646  22885899.2304   22885898.7724
      4368.1214
   -789393.27049   -616989.53548  20245478.0584   20245476.7024
      -272.2714
  -7330515.10949  -5703092.23847  22090275.8004   22090273.4174
      2461.0384
  -4084301.28949  -3178032.82046  23283070.3474   23283070.6084
      2610.8514
   4220382.81649   3277734.75847  22850104.1364   22850102.7534
     -2033.9734
  -5327284.67649  -4146715.64148  20445064.0974   20445062.5584
      2027.7304
 04  9 17 21 30 14.9990000  0  8G 3G 8G28G13G19G10G23G27
  -1815838.13349  -1409017.60947  22680482.0654   22680482.2764
        31.4084
  -8195798.32449  -6377757.05147  20995473.2614   20995471.7614
      3163.3144
  -4811248.87949  -5290945.55546  22873440.5504   22873440.6794
      4364.5274
   -785192.50849   -613716.22748  20246277.6674   20246276.2334
      -280.0514
  -7367307.36749  -5731761.51647  22083273.9174   22083271.5114
      2452.8174
  -4123330.84849  -3208445.47747  23275643.6594   23275645.2844
      2601.9714
   4250945.42649   3301549.71947  22855920.3394   22855918.5344
     -2037.5074
  -5357661.99649  -4170386.27048  20439283.2924   20439281.9644
      2025.1554
 04  9 17 21 30 29.9980000  0  8G 3G 8G28G13G19G10G23G27
  -1816177.21549  -1409281.87547  22680418.0684   22680417.6664
        22.6054
  -8243203.96949  -6414696.51647  20986452.1314   20986451.0804
      3160.3764
  -4876660.15649  -5341915.33246  22860993.7644   22860993.1544
      4360.7524
   -780877.28149   -610353.72748  20247099.0294   20247097.4324
      -287.6824
  -7403975.44549  -5760334.03547  22076296.2794   22076293.6194
      2444.5394
  -4162226.39549  -3238753.66447  23268242.5224   23268241.9434
      2593.0364
   4281556.96549   3325402.80147  22861745.8504   22861743.2994
     -2040.7694
  -5388000.31649  -4194026.52748  20433510.0614   20433509.0684
      2022.5554
 04  9 17 21 30 44.9980000  0  8G 3G 8G28G13G19G10G23G27
  -1816386.97349  -1409445.32847  22680378.3734   22680377.5224
        13.9844
  -8290574.24649  -6451608.40647  20977437.6934   20977436.5574
      3158.0184
  -4942025.86749  -5392849.57046  22848555.0924   22848554.1274
      4357.7144
   -776449.54349   -606903.54748  20247941.4044   20247939.8144
      -295.1834
  -7440526.34449  -5788815.22747  22069341.2564   22069338.4594
      2436.7274
  -4200995.24649  -3268963.14547  23260864.6394   23260863.3934
      2584.5904
   4312218.92649   3349295.17247  22867579.7324   22867578.3034
     -2044.1314
  -5418306.16849  -4217641.46548  20427742.9594   20427742.1864
      2020.3904
 04  9 17 21 30 59.9980000  0  8G 3G 8G28G13G19G10G23G27
  -1816463.35549  -1409504.85547  22680363.2724   22680361.9944
         5.0924
  -8337901.73049  -6488486.94547  20968431.8504   20968430.6864
      3155.1664
  -5007337.23449  -5443741.52046  22836126.5924   22836125.6394
      4354.0914
   -771905.60549   -603362.81648  20248806.1394   20248804.6274
      -302.9294
  -7476953.38749  -5817199.89547  22062409.2794   22062406.0254
      2428.4704
  -4239630.71949  -3299068.74246  23253512.2874   23253511.5494
      2575.6984
   4342933.17649   3373228.28547  22873424.8504   22873423.5684
     -2047.6174
  -5448573.37949  -4241226.30548  20421983.5684   20421982.2134
      2017.8144
 04  9 17 21 31 14.9980000  0  8G 3G 8G28G13G19G10G23G27
  -1816408.23049  -1409461.89547  22680373.6234   22680372.3934
        -3.6754
  -8385188.27749  -6525333.60247  20959433.8974   20959432.4044
      3152.4364
  -5072595.91049  -5494592.35546  22823707.4434   22823707.5964
      4350.5784
   -767247.08649   -599732.81648  20249692.4824   20249690.5924
      -310.5684
  -7513257.95749  -5845489.16847  22055500.2404   22055497.4164
      2420.3054
  -4278134.42249  -3329071.61746  23246184.8504   23246183.7444
      2566.9144
   4373697.76649   3397200.60547  22879279.1004   22879278.3694
     -2050.9734
  -5478803.52049  -4264782.26248  20416230.9824   20416229.6114
      2015.3434
 04  9 17 21 31 29.9980000  0  8G 3G 8G28G13G19G10G23G27
  -1816221.58649  -1409316.48847  22680409.0764   22680408.5804
       -12.4434
  -8432433.68749  -6562148.20347  20950443.0684   20950441.4824
      3149.6944
  -5137801.73049  -5545401.92646  22811298.3574   22811298.6934
      4347.0554
   -762474.08249   -596013.60248  20250601.2254   20250598.4364
      -318.2004
  -7549439.98449  -5873682.91447  22048615.4984   22048612.4944
      2412.1354
  -4316506.13749  -3358971.64546  23238883.8264   23238883.3854
      2558.1144
   4404512.39149   3421211.95347  22885142.8974   22885141.8074
     -2054.3084
  -5508996.49649  -4288309.24648  20410485.3504   20410483.5844
      2012.8654
 04  9 17 21 31 44.9980000  0  8G 3G 8G28G13G19G10G23G27
  -1815904.78149  -1409069.60947  22680469.2174   22680469.8614
       -21.1204
  -8479639.00849  -6598931.54747  20941460.0764   20941459.1314
      3147.0214
  -5202955.41049  -5596170.98446  22798901.0374   22798900.2874
      4343.5794
   -757587.78549   -592206.09848  20251530.3574   20251528.4794
      -325.7534
  -7585500.26249  -5901781.83247  22041753.0294   22041750.1474
      2404.0184
  -4354746.83249  -3388769.59046  23231605.7254   23231605.8074
      2549.3804
   4435375.83649   3445261.29347  22891015.8034   22891014.8544
     -2057.5634
  -5539153.42249  -4311808.15648  20404746.7174   20404745.3264
      2010.4624
 04  9 17 21 31 59.9980000  0  8G 3G 8G28G13G19G10G23G27
  -1815457.67649  -1408721.23047  22680554.1624   22680554.6784
       -29.8074
  -8526803.93049  -6635683.41847  20932484.7644   20932483.4284
      3144.3284
  -5268056.81249  -5646899.26646  22786512.3034   22786511.5644
      4340.0934
   -752588.02349   -588310.18448  20252482.1864   20252480.3814
      -333.3174
  -7621438.32449  -5929785.50447  22034914.4434   22034912.6864
      2395.8714
  -4392856.19549  -3418465.20747  23224354.8114   23224353.8734
      2540.6244
   4466288.12549   3469348.73047  22896898.8734   22896897.0414
     -2060.8194
  -5569273.99649  -4335278.73048  20399014.7404   20399013.3694
      2008.0384
 04  9 17 21 32 14.9980000  0  8G 3G 8G28G13G19G10G23G27
  -1814879.40649  -1408270.66447  22680665.0374   22680664.8894
       -38.5514
  -8573927.30549  -6672402.93447  20923517.8344   20923516.2014
      3141.5584
  -5333104.55949  -5697585.71546  22774135.2794   22774133.7914
      4336.5164
   -747473.86349   -584325.14148  20253455.1394   20253453.5144
      -340.9444
  -7657252.87549  -5957692.92247  22028098.4044   22028097.2994
      2387.6374
  -4430832.89849  -3448057.43047  23217128.1004   23217128.2254
      2531.7804
   4497250.18049   3493474.94147  22902790.5534   22902789.3894
     -2064.1374
  -5599356.98049  -4358720.01648  20393290.2794   20393288.8224
      2005.5324
 04  9 17 21 32 29.9980000  0  8G 3G 8G28G13G19G10G23G27
  -1814171.25049  -1407718.84046  22680799.2404   22680798.9754
       -47.2104
  -8621010.30149  -6709090.96147  20914558.5064   20914556.4944
      3138.8664
  -5398099.67449  -5748231.20746  22761765.5684   22761765.7994
      4333.0084
   -742246.57449   -580251.94148  20254450.0454   20254448.0964
      -348.4864
  -7692944.85949  -5985504.82047  22021307.0294   22021304.5414
      2379.4664
  -4468678.00049  -3477547.12946  23209926.6234   23209925.5534
      2523.0074
   4528260.49649   3517638.76647  22908691.2564   22908689.6434
     -2067.3544
  -5629403.57849  -4382132.94948  20387572.6624   20387571.4004
      2003.1074
 04  9 17 21 32 44.9980000  0  8G 3G 8G28G13G19G10G23G27
  -1813332.01249  -1407064.90247  22680959.1544   22680959.2874
       -55.9494
  -8668051.49249  -6745746.43047  20905606.6314   20905604.6504
      3136.0794
  -5463040.71149  -5798834.57846  22749408.9434   22749406.9394
      4329.4024
   -736904.86749   -576089.58648  20255466.4824   20255464.6154
      -356.1144
  -7728512.77349  -6013220.06647  22014538.8814   22014535.6044
      2371.1944
  -4506390.15649  -3506933.20346  23202748.9044   23202748.1114
      2514.1444
   4559320.28949   3541841.12547  22914601.6394   22914600.2954
     -2070.6534
  -5659412.43049  -4405516.46948  20381862.0064   20381860.4324
      2000.5904
 04  9 17 21 32 59.9980000  0  8G 3G 8G28G13G19G10G23G27
  -1812362.49649  -1406309.43047  22681143.1864   22681143.6974
       -64.6344
  -8715051.22749  -6782369.60247  20896662.4674   20896661.2954
      3133.3164
  -5527927.99649  -5849396.12546  22737060.8734   22737058.6864
      4325.8194
   -731449.30949   -571838.50448  20256505.0064   20256503.0184
      -363.7044
  -7763956.96149  -6040838.89147  22007794.3034   22007791.3894
      2362.9464
  -4543969.83249  -3536216.10546  23195598.7174   23195596.4864
      2505.3124
   4590428.81649   3566081.44547  22920521.7174   22920520.2404
     -2073.9024
  -5689384.00849  -4428870.94148  20376158.8814   20376157.1474
      1998.1054
 04  9 17 21 33 14.9980000  0  8G 3G 8G28G13G19G10G23G27
  -1811262.13749  -1405452.00847  22681353.5294   22681354.0374
       -73.3574
  -8762008.87149  -6818959.96947  20887726.8034   20887725.3464
      3130.5104
  -5592760.85549  -5899915.14546  22724723.2794   22724722.3074
      4322.1914
   -725879.38749   -567498.32048  20257564.4044   20257562.8974
      -371.3284
  -7799276.52049  -6068360.60547  22001072.6074   22001070.4594
      2354.6374
  -4581416.19949  -3565395.09846  23188473.3114   23188470.6114
      2496.4244
   4621586.42249   3590360.03947  22926450.2644   22926449.5884
     -2077.1744
  -5719317.53549  -4452195.77048  20370462.7724   20370460.9044
      1995.5684
 04  9 17 21 33 29.9980000  0  8G 3G 8G28G13G19G10G23G27
  -1810032.25449  -1404493.64847  22681587.0294   22681587.7564
       -81.9924
  -8808925.76249  -6855518.57447  20878798.9124   20878797.7754
      3127.7934
  -5657540.13349  -5950392.40646  22712396.3264   22712395.3184
      4318.6184
   -720196.33249   -563069.96948  20258646.0144   20258644.5254
      -378.8704
  -7834472.52349  -6095786.04347  21994375.5684   21994373.1864
      2346.4004
  -4618730.46149  -3594471.10246  23181371.3654   23181371.8264
      2487.6174
   4652791.71149   3614675.77347  22932389.0764   22932388.7954
     -2080.3534
  -5749214.26249  -4475491.91048  20364773.2644   20364771.7644
      1993.1154
 04  9 17 21 33 44.9980000  0  8G 3G 8G28G13G19G10G23G27
  -1808670.74249  -1403432.73847  22681846.0064   22681846.7444
       -90.7674
  -8855799.56649  -6892043.60947  20869879.0144   20869877.4204
      3124.9204
  -5722263.55149  -6000826.18746  22700079.5294   22700079.5104
      4314.8954
   -714397.98849   -558551.78948  20259749.3114   20259747.7294
      -386.5564
  -7869542.51649  -6123113.27347  21987701.9904   21987699.1274
      2337.9994
  -4655910.05949  -3623442.22347  23174298.2724   23174296.4554
      2478.6404
   4684046.77749   3639030.29747  22938337.5294   22938336.4244
     -2083.6714
  -5779071.85949  -4498757.56648  20359091.6864   20359090.5724
      1990.5074
 04  9 17 21 33 59.9980000  0  8G 3G 8G28G13G19G10G23G27
  -1807180.47749  -1402271.49647  22682130.1154   22682130.3464
       -99.3514
  -8902632.67249  -6928536.92647  20860966.8114   20860966.2644
      3122.2074
  -5786933.46949  -6051218.27346  22687773.3424   22687772.4824
      4311.3284
   -708487.01249   -553945.84448  20260874.6704   20260872.1544
      -394.0654
  -7904488.85249  -6150344.15647  21981051.5844   21981049.3774
      2329.7564
  -4692957.50449  -3652310.36346  23167246.6394   23167245.3304
      2469.8304
   4715348.72749   3663421.35247  22944293.8894   22944293.0224
     -2086.7974
  -5808892.79349  -4521994.66048  20353416.7174   20353415.3464
      1988.0624
 04  9 17 21 34 14.9980000  0  8G 3G 8G28G13G19G10G23G27
  -1805559.74249  -1401008.59447  22682437.8344   22682438.3814
      -108.0494
  -8949423.38749  -6964997.20347  20852062.8574   20852061.9044
      3119.3814
  -5851547.91049  -6101567.11346  22675477.2094   22675477.8184
      4307.6294
   -702461.79349   -549250.88748  20262020.9044   20262018.9674
      -401.6814
  -7939309.54749  -6177477.14547  21974425.7484   21974422.5684
      2321.3804
  -4729870.81649  -3681073.97346  23160221.9824   23160222.2254
      2460.8874
   4746699.18049   3687850.21947  22950258.6474   22950258.1194
     -2090.0304
  -5838675.22349  -4545201.75448  20347749.6624   20347748.1894
      1985.4954
 04  9 17 21 34 29.9980000  0  8G 3G 8G28G13G19G10G23G27
  -1803808.50849  -1399644.02047  22682772.1314   22682771.7444
      -116.7494
  -8996171.43449  -7001424.24647  20843167.6074   20843165.6784
      3116.5364
  -5916106.57449  -6151872.52046  22663192.1934   22663192.2254
      4303.9114
   -696322.06249   -544466.69548  20263189.2564   20263187.6074
      -409.3154
  -7974004.12549  -6204511.85947  21967822.9594   21967819.7724
      2312.9724
  -4766649.72749  -3709732.88746  23153223.4284   23153224.3734
      2451.9274
   4778098.13349   3712316.83247  22956234.3894   22956234.0104
     -2093.2644
  -5868418.98849  -4568378.70748  20342089.4904   20342087.9714
      1982.9184
 04  9 17 21 34 44.9980000  0  8G 3G 8G28G13G19G10G23G27
  -1801927.52349  -1398178.31247  22683129.5224   22683128.9474
      -125.3994
  -9042877.21949  -7037818.37947  20834279.5064   20834278.0844
      3113.7194
  -5980609.87949  -6202134.73846  22650918.6394   22650917.7754
      4300.2204
   -690068.67249   -539593.92248  20264378.9044   20264377.3694
      -416.8934
  -8008573.06649  -6231448.66847  21961244.8504   21961241.6434
      2304.5964
  -4803294.87149  -3738287.48846  23146249.8184   23146250.4474
      2443.0104
   4809544.73849   3736820.62147  22962218.8264   22962216.9554
     -2096.4404
  -5898124.50449  -4591525.85948  20336436.8114   20336435.4244
      1980.3684
 04  9 17 21 34 59.9980000  0  8G 3G 8G28G13G19G10G23G27
  -1799916.77049  -1396611.50846  22683512.0144   22683511.5334
      -134.0504
  -9089540.32049  -7074179.23047  20825399.7954   20825398.4754
      3110.8734
  -6045057.44149  -6252353.61746  22638654.4754   22638652.8814
      4296.5044
   -683701.35549   -534632.39148  20265590.7564   20265589.3144
      -424.4884
  -8043015.80949  -6258287.14547  21954690.6004   21954687.4284
      2296.1834
  -4839805.81649  -3766737.59046  23139303.1074   23139302.2564
      2434.0634
   4841039.10549   3761361.56347  22968211.7564   22968211.2214
     -2099.6244
  -5927791.54749  -4614643.03948  20330791.4674   20330789.9084
      1977.8034
 04  9 17 21 35 14.9980000  0  8G 3G 8G28G13G19G10G23G27
  -1797777.15249  -1394944.25046  22683918.7324   22683918.5644
      -142.6414
  -9136161.55949  -7110507.46947  20816527.7794   20816526.3544
      3108.0834
  -6109449.87549  -6302529.48046  22626400.1864   22626399.2444
      4292.8294
   -677221.02349   -529582.79348  20266824.0534   20266822.4514
      -432.0224
  -8077333.03149  -6285027.82047  21948159.9204   21948157.4864
      2287.8154
  -4876183.21149  -3795083.59446  23132380.7484   23132380.2684
      2425.1604
   4872580.05549   3785938.86347  22974214.7254   22974213.1584
     -2102.7304
  -5957420.78949  -4637730.76648  20325152.9124   20325151.7794
      1975.2834
 04  9 17 21 35 29.9980000  0  8G 3G 8G28G13G19G10G23G27
  -1795507.82449  -1393175.94146  22684350.6934   22684350.7484
      -151.2894
  -9182740.02349  -7146802.36747  20807663.7874   20807663.4864
      3105.2314
  -6173786.15649  -6352661.58647  22614157.4204   22614157.8034
      4289.0854
   -670626.94549   -524444.56248  20268079.0764   20268077.6544
      -439.6054
  -8111523.61749  -6311669.81247  21941654.3114   21941652.0294
      2279.3724
  -4912426.15249  -3823324.87546  23125483.6074   23125481.9004
      2416.1964
   4904168.41049   3810553.12547  22980225.1474   22980223.4244
     -2105.8904
  -5987011.29349  -4660788.29748  20319522.4824   20319520.3814
      1972.7004
 04  9 17 21 35 44.9980000  0  8G 3G 8G28G13G19G10G23G27
  -1793109.70749  -1391307.30546  22684807.0224   22684807.1894
      -159.8744
  -9229276.54349  -7183064.57847  20798808.8574   20798807.7564
      3102.4354
  -6238066.84849  -6402750.37147  22601925.5144   22601925.1154
      4285.3794
   -663919.77749   -519218.20748  20269355.0224   20269353.6894
      -447.1454
  -8145588.18449  -6338213.59447  21935171.6544   21935169.4594
      2270.9714
  -4948535.08249  -3851461.68746  23118612.0144   23118610.3974
      2407.2624
   4935803.16449   3835203.47747  22986245.2404   22986244.3074
     -2108.9844
  -6016563.73449  -4683816.18048  20313898.5374   20313896.7754
      1970.1634
 04  9 17 21 35 59.9980000  0  8G 3G 8G28G13G19G10G23G27
  -1790582.89549  -1389338.37546  22685287.6934   22685287.8774
      -168.4544
  -9275770.68449  -7219293.77047  20789961.4044   20789960.6044
      3099.6094
  -6302291.45749  -6452795.44947  22589703.7644   22589703.2484
      4281.6414
   -657099.37149   -513903.62148  20270653.0534   20270651.4514
      -454.6944
  -8179526.12549  -6364658.69547  21928713.4044   21928711.6234
      2262.5294
  -4984509.71549  -3879493.87546  23111766.5844   23111764.8974
      2398.3094
   4967484.37549   3859890.09047  22992273.7564   22992273.3424
     -2112.0814
  -6046077.87549  -4706814.21548  20308281.9824   20308280.8074
      1967.6094
 04  9 17 21 36 14.9980000  0  8G 3G 8G28G13G19G10G23G27
  -1787928.28949  -1387269.84847  22685793.7404   22685793.1394
      -176.9744
  -9322223.32849  -7255490.62547  20781121.6474   20781120.9124
      3096.8434
  -6366460.86349  -6502797.53547  22577493.3974   22577491.7174
      4277.9604
   -650166.85949   -508501.67248  20271972.5454   20271970.4634
      -462.1674
  -8213338.33249  -6391005.84047  21922279.1074   21922276.9864
      2254.1474
  -5020350.71949  -3907421.94146  23104945.1234   23104944.8574
      2389.4004
   4999210.99249   3884612.03547  22998311.3574   22998309.9824
     -2115.1084
  -6075554.41449  -4729782.94948  20302672.5534   20302671.8774
      1965.1034
 04  9 17 21 36 29.9980000  0  8G 3G 8G28G13G19G10G23G27
  -1785144.86349  -1385100.94147  22686322.8034   22686322.8574
      -185.5624
  -9368632.98849  -7291653.99647  20772290.1864   20772289.1004
      3093.9774
  -6430573.46549  -6552755.37546  22565292.4594   22565290.8224
      4274.1734
   -643121.01249   -503011.41848  20273313.2644   20273311.4394
      -469.7234
  -8247023.19149  -6417253.75847  21915868.6234   21915866.3894
      2245.6574
  -5056056.94149  -3935244.94546  23098152.2484   23098151.0924
      2380.4154
   5030983.95749   3909370.12147  23004358.0924   23004356.8184
     -2118.1984
  -6104992.06649  -4752721.37548  20297071.1004   20297069.8114
      1962.5104
 04  9 17 21 36 44.9980000  0  8G 3G 8G28G13G19G10G23G27
  -1782232.28549  -1382831.41047  22686877.8264   22686877.2524
      -194.1724
  -9414999.09849  -7327783.42647  20763467.2404   20763465.3464
      3091.0744
  -6494628.84449  -6602668.55146  22553103.1474   22553102.3504
      4270.3594
   -635961.52049   -497432.59848  20274675.8974   20274673.9364
      -477.2994
  -8280580.03949  -6443401.93047  21909482.9514   21909480.1394
      2237.1234
  -5091627.70349  -3962962.43446  23091382.3034   23091381.7134
      2371.3844
   5062803.58649   3934164.54347  23010413.1934   23010412.4474
     -2121.3094
  -6134390.28149  -4775629.07848  20291476.8424   20291475.3894
      1959.8814
 04  9 17 21 36 59.9980000  0  8G 3G 8G28G13G19G10G23G27
  -1779192.46949  -1380462.70347  22687455.9824   22687455.6194
      -202.6544
  -9461323.44949  -7363880.33647  20754651.8424   20754650.0294
      3088.2904
  -6558628.48449  -6652538.38746  22540924.2644   22540923.2724
      4266.6434
   -628690.05549   -491766.53148  20276059.1474   20276057.5184
      -484.7644
  -8314010.44949  -6469451.56647  21903121.9124   21903118.7524
      2228.6944
  -5127064.75049  -3990575.67646  23084639.2174   23084638.3304
      2362.4704
   5094667.93849   3958993.83247  23016477.6784   23016474.5964
     -2124.2904
  -6163750.83649  -4798507.43048  20285889.7174   20285888.7294
      1957.3704
 04  9 17 21 37 14.9980000  0  8G 3G 8G28G13G19G10G23G27
  -1776025.74649  -1377995.12947  22688058.4364   22688058.4714
      -211.1154
  -9507606.13349  -7399944.75847  20745844.4124   20745842.7994
      3085.5124
  -6622572.37949  -6702364.74646  22528756.0454   22528754.8694
      4262.9264
   -621306.96949   -486013.48048  20277464.4514   20277462.5534
      -492.2064
  -8347314.52349  -6495402.78547  21896784.6234   21896781.6744
      2220.2724
  -5162368.02349  -4018084.72346  23077920.7404   23077919.3264
      2353.5524
   5126576.49249   3983857.56647  23022547.8814   23022546.6194
     -2127.2374
  -6193073.71949  -4821356.43048  20280309.8574   20280308.7724
      1954.8594
 04  9 17 21 37 29.9980000  0  8G 3G 8G28G13G19G10G23G27
  -1772730.33649  -1375427.28947  22688685.4044   22688685.8384
      -219.6944
  -9553845.00449  -7435975.04747  20737045.2014   20737044.3034
      3082.5914
  -6686458.37949  -6752145.97346  22516598.3504   22516597.9794
      4259.0674
   -613810.35249   -480171.97748  20278890.6784   20278889.5644
      -499.7744
  -8380489.89149  -6521253.69147  21890471.6004   21890468.6894
      2211.6914
  -5197535.46149  -4045487.93746  23071229.5684   23071226.1784
      2344.4964
   5158531.11349   4008757.19147  23028628.6394   23028628.1234
     -2130.3084
  -6222356.87149  -4844174.47748  20274737.4434   20274736.2404
      1952.2104
 04  9 17 21 37 44.9980000  0  8G 3G 8G28G13G19G10G23G27
  -1769305.84049  -1372758.83247  22689337.0684   22689337.8694
      -228.3004
  -9600039.69549  -7471970.89547  20728254.7484   20728253.4044
      3079.6464
  -6750285.87149  -6801881.60946  22504453.2254   22504451.9044
      4255.1664
   -606199.78949   -474241.67648  20280338.9594   20280337.6234
      -507.3714
  -8413535.94149  -6547003.83647  21884182.6474   21884179.9864
      2203.0704
  -5232566.42649  -4072784.84447  23064563.2954   23064563.0254
      2335.3984
   5190532.15249   4033692.97347  23034719.3504   23034717.2724
     -2133.4034
  -6251599.72749  -4866961.11748  20269172.7404   20269171.5454
      1949.5244
 04  9 17 21 37 59.9980000  0  8G 3G 8G28G13G19G10G23G27
  -1765753.40649  -1369990.73047  22690013.3814   22690013.6194
      -236.8294
  -9646190.95749  -7507932.91447  20719472.6544   20719471.9324
      3076.7514
  -6814055.70349  -6851572.38346  22492318.3574   22492316.1434
      4251.3224
   -598476.40649   -468223.48048  20281809.0684   20281807.3344
      -514.8924
  -8446453.60249  -6572653.92247  21877918.8734   21877916.2724
      2194.5114
  -5267461.93749  -4099976.09846  23057922.6704   23057921.8074
      2326.3674
   5222578.25449   4058663.89547  23040817.6074   23040816.0224
     -2136.4074
  -6280803.29749  -4889717.14548  20263615.5224   20263614.3464
      1946.9054
 04  9 17 21 38 14.9980000  0  8G 3G 8G28G13G19G10G23G27
  -1762073.37549  -1367123.18047  22690713.9674   22690714.0534
      -245.3354
  -9692299.01249  -7543861.27347  20710698.5924   20710697.4594
      3073.8704
  -6877767.72749  -6901218.08646  22480194.0144   22480192.4164
      4247.4684
   -590640.38749   -462117.49248  20283300.1074   20283298.2484
      -522.4014
  -8479242.61749  -6598203.79747  21871680.1474   21871676.4084
      2185.9344
  -5302221.81249  -4127061.70747  23051308.2174   23051307.9634
      2317.3254
   5254669.23049   4083669.78547  23046924.5064   23046923.3544
     -2139.3984
  -6309967.48449  -4912442.48048  20258065.9514   20258064.7404
      1944.2794
 04  9 17 21 38 29.9980000  0  8G 3G 8G28G13G19G10G23G27
  -1758265.00849  -1364155.62547  22691438.6474   22691438.5144
      -253.8914
  -9738362.75849  -7579755.08247  20701933.0144   20701931.9434
      3070.9164
  -6941420.90649  -6950817.94146  22468080.5684   22468078.6074
      4243.5454
   -582690.87949   -455923.07848  20284812.6544   20284811.2644
      -529.9674
  -8511901.89849  -6623652.59047  21865463.9754   21865461.8694
      2177.2854
  -5336845.26249  -4154041.00846  23044719.4754   23044718.7604
      2308.2304
   5286805.71949   4108711.09847  23053039.7484   23053037.6664
     -2142.4334
  -6339091.40649  -4935136.45348  20252523.7794   20252522.3384
      1941.5954
 04  9 17 21 38 44.9980000  0  8G 3G 8G28G13G19G10G23G27
  -1754329.01249  -1361088.62947  22692187.6154   22692187.7294
      -262.4004
  -9784382.71949  -7615614.78947  20693175.4364   20693174.0724
      3067.9974
  -7005015.66849  -7000372.27346  22455979.2254   22455977.9044
      4239.6514
   -574628.63749   -449640.82048  20286347.1074   20286344.8934
      -537.4834
  -8544431.94949  -6649000.65247  21859273.9754   21859271.1114
      2168.6704
  -5371332.61749  -4180914.31246  23038156.9204   23038154.8464
      2299.1574
   5318986.80149   4133787.20347  23059163.0684   23059162.9324
     -2145.4054
  -6368175.64149  -4957799.48848  20246989.2254   20246987.8264
      1938.9494
 04  9 17 21 38 59.9980000  0  8G 3G 8G28G13G19G10G23G27
  -1750266.78149  -1357923.24247  22692959.8654   22692960.7794
      -270.8154
  -9830359.96549  -7651441.20347  20684426.5294   20684424.8694
      3065.1504
  -7068553.05949  -7049881.87147  22443888.4674   22443888.3384
      4235.8264
   -566454.89849   -443271.68048  20287902.2644   20287900.6664
      -544.9164
  -8576833.71549  -6674248.75847  21853107.7874   21853105.2954
      2160.1184
  -5405684.87549  -4207682.33647  23031619.0764   23031618.9434
      2290.1514
   5351211.26249   4158897.07447  23065296.1394   23065294.3224
     -2148.2974
  -6397221.24249  -4980432.43048  20241461.9284   20241460.2014
      1936.3734
 04  9 17 21 39 14.9980000  0  8G 3G 8G28G13G19G10G23G27
  -1746078.37149  -1354659.54347  22693757.3974   22693757.5024
      -279.2274
  -9876294.21149  -7687234.12547  20675685.2014   20675684.0534
      3062.2834
  -7132032.75849  -7099346.50047  22431809.1474   22431808.6824
      4231.9804
   -558169.66049   -436815.66048  20289479.0144   20289477.1744
      -552.3494
  -8609106.82449  -6699396.62547  21846967.1154   21846964.4794
      2151.5414
  -5439902.00449  -4234344.98046  23025107.2794   23025107.4284
      2281.1424
   5383478.94149   4184040.65647  23071436.3034   23071434.8114
     -2151.1794
  -6426227.95349  -5003035.05548  20235941.9754   20235940.2914
      1933.7814
 04  9 17 21 39 29.9980000  0  8G 3G 8G28G13G19G10G23G27
  -1741761.64549  -1351295.88347  22694578.1394   22694578.4004
      -287.7824
  -9922183.28549  -7722991.83647  20666952.9204   20666952.0254
      3059.2724
  -7195452.37149  -7148764.30947  22419740.7794   22419739.6624
      4227.9744
   -549770.64149   -430270.98448  20291077.1314   20291075.3114
      -559.9354
  -8641248.80549  -6724442.30547  21840850.1784   21840847.7874
      2142.7994
  -5473981.59849  -4260900.49246  23018622.3734   23018622.2294
      2271.9734
   5415791.98849   4209219.57047  23077584.6544   23077583.4164
     -2154.2034
  -6455193.40249  -5025605.53948  20230430.2254   20230428.7094
      1931.0304
 04  9 17 21 39 44.9980000  0  8G 3G 8G28G13G19G10G23G27
  -1737318.71149  -1347833.85247  22695424.6394   22695424.1194
      -296.1964
  -9968028.76249  -7758715.57847  20658228.5144   20658227.3384
      3056.3654
  -7258813.59449  -7198136.66846  22407682.8734   22407681.9944
      4224.0824
   -541259.86749   -423639.22748  20292696.3894   20292695.3814
      -567.3854
  -8673261.47749  -6749387.22347  21834758.6624   21834756.2994
      2134.1784
  -5507925.43749  -4287350.19146  23012163.7644   23012161.4554
      2262.9234
   5448148.27749   4234432.19147  23083742.1314   23083741.0684
     -2157.0864
  -6484119.34049  -5048145.23048  20224925.7484   20224924.4794
      1928.3964
 04  9 17 21 39 59.9980000  0  8G 3G 8G28G13G19G10G23G27
  -1732748.87949  -1344272.94946  22696293.1314   22696293.6474
      -304.6554
 -10013829.86749  -7794404.75847  20649513.3114   20649512.1894
      3053.4074
  -7322115.38349  -7247462.69546  22395637.0144   22395635.7754
      4220.1194
   -532636.67249   -416919.86348  20294337.9824   20294336.0024
      -574.8804
  -8705143.65649  -6774230.45747  21828691.2794   21828689.6004
      2125.4794
  -5541732.52349  -4313693.41847  23005730.5294   23005729.5684
      2253.8064
   5480548.40649   4259678.94147  23089908.0614   23089907.4244
     -2160.0094
  -6513005.00449  -5070653.54348  20219429.1154   20219427.6474
      1925.7114
 04  9 17 21 40 14.9980000  0  8G 3G 8G28G13G19G10G23G27
  -1728052.92249  -1340613.76247  22697187.2644   22697186.7174
      -313.0644
 -10059587.30549  -7830059.91047  20640805.6474   20640804.7054
      3050.4964
  -7385358.28149  -7296742.85546  22383602.6154   22383601.1824
      4216.1934
   -523901.76249   -410113.45748  20296000.0294   20295998.1314
      -582.3274
  -8736895.98449  -6798972.50847  21822649.1004   21822647.1434
      2116.8224
  -5575403.56649  -4339930.59846  22999322.3574   22999322.7484
      2244.7364
   5512991.41449   4284959.14147  23096081.4044   23096081.5454
     -2162.8674
  -6541850.80949  -5093130.79748  20213939.5764   20213938.7604
      1923.0544
 04  9 17 21 40 29.9980000  0  8G 3G 8G28G13G19G10G23G27
  -1723232.01249  -1336857.23847  22698104.7094   22698104.4284
      -321.3944
 -10105301.65649  -7865681.46947  20632106.9284   20632105.8074
      3047.6234
  -7448543.03949  -7345977.68446  22371578.6784   22371577.7644
      4212.3174
   -515056.04749   -403220.70748  20297683.2954   20297681.6194
      -589.7144
  -8768519.08249  -6823613.87147  21816631.4364   21816628.6394
      2108.2074
  -5608939.25049  -4366062.28146  22992941.2324   22992940.5964
      2235.7124
   5545476.30549   4310271.90647  23102263.1074   23102263.2134
     -2165.6594
  -6570657.77049  -5115577.77348  20208457.8894   20208456.9674
      1920.4644
 04  9 17 21 40 44.9980000  0  8G 3G 8G28G13G19G10G23G27
  -1718285.45349  -1333002.79747  22699045.8574   22699046.1044
      -329.7714
 -10150972.09849  -7901268.82047  20623415.8974   20623414.7014
      3044.6964
  -7511668.64149  -7395166.43046  22359565.8264   22359564.3934
      4208.3734
   -506098.96149   -396241.16048  20299387.8424   20299385.7994
      -597.1394
  -8800011.92249  -6848153.74647  21810638.6864   21810635.8144
      2099.5234
  -5642338.66049  -4392087.81246  22986585.4364   22986585.0644
      2226.6274
   5578003.66849   4335617.82047  23108452.2404   23108452.6784
     -2168.4914
  -6599424.82449  -5137993.66448  20202983.8504   20202982.7134
      1917.8044
 04  9 17 21 40 59.9980000  0  8G 3G 8G28G13G19G10G23G27
  -1713212.43749  -1329049.78147  22700011.6704   22700011.4284
      -338.2014
 -10196597.73449  -7936821.25847  20614733.2724   20614731.9594
      3041.7094
  -7574733.98449  -7444308.23446  22347564.7404   22347563.9284
      4204.3564
   -497029.54349   -389174.09848  20301113.4904   20301111.4984
      -604.6284
  -8831373.42249  -6872591.24647  21804670.7254   21804668.3114
      2090.7674
  -5675600.73849  -4418006.28946  22980255.4044   22980256.1584
      2217.4724
   5610574.30149   4360997.43847  23114650.6544   23114649.7324
     -2171.3764
  -6628150.91849  -5160377.63348  20197517.4754   20197516.3814
      1915.0734
 04  9 17 21 41 14.9980000  0  8G 3G 8G28G13G19G10G23G27
  -1708013.09849  -1324998.36747  22701000.8654   22701001.2684
      -346.6234
 -10242178.27349  -7972338.55947  20606059.7014   20606058.6704
      3038.7034
  -7637738.91049  -7493402.95347  22335576.2794   22335575.4514
      4200.3284
   -487847.74649   -382019.46548  20302860.6704   20302859.2364
      -612.1204
  -8862603.26249  -6896926.18447  21798727.7794   21798725.5024
      2081.9894
  -5708725.24649  -4443817.62146  22973953.1784   22973952.3344
      2208.3014
   5643188.00449   4386410.63347  23120857.1474   23120856.1044
     -2174.2474
  -6656835.95349  -5182729.61348  20192058.9434   20192057.6504
      1912.3364
 04  9 17 21 41 29.9980000  0  8G 3G 8G28G13G19G10G23G27
  -1702688.66049  -1320849.48447  22702013.5924   22702014.2404
      -354.9624
 -10287714.43749  -8007821.28547  20597395.2094   20597393.1864
      3035.7444
  -7700684.13749  -7542451.15247  22323597.5454   22323596.9594
      4196.3484
   -478554.79749   -374778.21148  20304629.1004   20304627.2444
      -619.5304
  -8893702.24649  -6921159.15647  21792810.2174   21792807.5964
      2073.2664
  -5741713.10949  -4469522.47347  22967677.4204   22967675.2604
      2199.1914
   5675843.54749   4411856.42647  23127071.8114   23127070.9244
     -2177.0364
  -6685480.88749  -5205050.32848  20186607.6544   20186606.6354
      1909.6624
 04  9 17 21 41 44.9980000  0  8G 3G 8G28G13G19G10G23G27
  -1697238.57049  -1316602.66447  22703050.6784   22703050.8974
      -363.3394
 -10333205.73449  -8043269.04347  20588737.7874   20588736.5644
      3032.7534
  -7763568.76649  -7591452.11347  22311630.5844   22311629.9394
      4192.3094
   -469150.03549   -367449.84048  20306418.7644   20306417.1274
      -626.9844
  -8924669.48049  -6945289.44947  21786917.1004   21786914.3184
      2064.4824
  -5774563.58649  -4495120.19547  22961423.9754   22961423.9394
      2190.0324
   5708541.57449   4437335.29347  23133294.1544   23133293.6784
     -2179.8684
  -6714084.87149  -5227339.14548  20181164.7874   20181163.3574
      1906.9324
 04  9 17 21 41 59.9980000  0  8G 3G 8G28G13G19G10G23G27
  -1691663.44549  -1312258.41847  22704112.0844   22704111.4944
      -371.6754
 -10378652.37549  -8078682.01247  20580089.5144   20580088.4244
      3029.7764
  -7826393.28149  -7640406.25847  22299676.6234   22299674.9674
      4188.3014
   -459634.02349   -360034.76648  20308229.5144   20308227.9084
      -634.4014
  -8955505.35549  -6969317.39547  21781049.4124   21781047.3114
      2055.7254
  -5807277.13349  -4520611.30546  22955198.5764   22955198.0614
      2180.9034
   5741281.21549   4462846.59047  23139524.2174   23139523.7054
     -2182.6434
  -6742648.28549  -5249596.35548  20175729.0534   20175727.7724
      1904.2284
 04  9 17 21 42 14.9980000  0  8G 3G 8G28G13G19G10G23G27
  -1685964.96949  -1307818.04347  22705196.0454   22705196.9084
      -379.8984
 -10424055.97349  -8114061.43447  20571449.8264   20571448.4554
      3026.9074
  -7889158.83249  -7689314.39547  22287732.1474   22287731.4864
      4184.3704
   -450008.37549   -352534.28548  20310061.1394   20310059.8144
      -641.7104
  -8986211.17249  -6993243.98047  21775206.0294   21775203.2094
      2047.0544
  -5839855.13349  -4545996.75846  22948999.2794   22948998.2094
      2171.8674
   5774060.82049   4488389.04746  23145761.8974   23145761.9084
     -2185.3074
  -6771172.55549  -5271823.05548  20170301.1624   20170299.8224
      1901.6184
 04  9 17 21 42 29.9980000  0  8G 3G 8G28G13G19G10G23G27
  -1680141.33649  -1303280.19147  22706304.3814   22706305.2524
      -388.2424
 -10469414.31649  -8149405.59848  20562818.3734   20562817.2524
      3023.8904
  -7951863.29749  -7738174.96946  22275798.6234   22275798.7324
      4180.2984
   -440271.15249   -344946.85248  20311914.1074   20311912.7404
      -649.1484
  -9016784.65649  -7017067.45347  21769388.3264   21769385.6234
      2038.2324
  -5872295.46149  -4571274.91847  22942826.0064   22942827.0254
      2162.6894
   5806882.28949   4513964.11746  23152007.7324   23152007.0414
     -2188.0984
  -6799655.59449  -5294017.64148  20164880.8034   20164879.7754
      1898.8694
 04  9 17 21 42 44.9980000  0  8G 3G 8G28G13G19G10G23G27
  -1674191.92649  -1298644.30547  22707437.9674   22707437.4244
      -396.6274
 -10514726.46949  -8184713.75448  20554195.6784   20554194.6194
      3020.8104
  -8014505.78549  -7786987.27047  22263879.2954   22263876.4124
      4176.1664
   -430421.71149   -337271.97348  20313788.4674   20313787.0924
      -656.6294
  -9047225.03549  -7040787.21547  21763595.2644   21763592.0924
      2029.3594
  -5904597.34049  -4596445.16847  22936679.2174   22936680.1624
      2153.4594
   5839746.03949   4539572.12546  23158261.9824   23158261.0924
     -2190.9174
  -6828096.48449  -5316179.37148  20159468.7874   20159467.4754
      1896.0594
 04  9 17 21 42 59.9980000  0  8G 3G 8G28G13G19G10G23G27
  -1668117.91049  -1293911.32446  22708592.0454   22708592.8694
      -404.9344
 -10559993.49649  -8219986.75047  20545581.9674   20545580.6504
      3017.8024
  -8077087.11749  -7835751.96147  22251970.8814   22251969.5184
      4172.0894
   -420461.21949   -329510.56648  20315684.2254   20315682.7014
      -664.0334
  -9077533.14849  -7064403.90247  21757828.6864   21757825.4004
      2020.5414
  -5936761.55549  -4621508.22346  22930559.1074   22930558.7364
      2144.2814
   5872650.93449   4565212.21947  23164522.9364   23164522.1004
     -2193.6604
  -6856496.30949  -5338309.10948  20154064.8734   20154063.0644
      1893.3224
 04  9 17 21 43 14.9980000  0  8G 3G 8G28G13G19G10G23G27
  -1661918.67249  -1289080.77747  22709772.1544   22709772.9904
      -413.2834
 -10605214.42249  -8255223.84448  20536976.6234   20536974.8774
      3014.7284
  -8139606.29349  -7884468.14847  22240073.2324   22240072.7294
      4167.9454
   -410388.85549   -321661.98847  20317600.7254   20317599.0724
      -671.4914
  -9107707.80549  -7087916.60947  21752087.0374   21752083.7294
      2011.6444
  -5968787.23049  -4646463.29347  22924464.7794   22924463.2874
      2135.0454
   5905597.64149   4590884.90247  23170793.2254   23170791.9554
     -2196.4474
  -6884853.96149  -5360405.98048  20148668.2644   20148666.3854
      1890.5104
 04  9 17 21 43 29.9980000  0  8G 3G 8G28G13G19G10G23G27
  -1655596.96149  -1284154.78947  22710975.8034   22710976.2404
      -421.4474
 -10650391.58649  -8290426.82047  20528379.4044   20528378.2724
      3011.8114
  -8202065.77749  -7933137.82447  22228187.0454   22228186.5104
      4163.9664
   -400207.32049   -313728.34048  20319538.2794   20319536.3694
      -678.7694
  -9137751.42649  -7111327.21147  21746368.7404   21746366.2134
      2002.9084
  -6000676.86749  -4671312.36346  22918396.2724   22918395.2994
      2125.9764
   5938583.27349   4616587.89147  23177069.9124   23177069.4004
     -2199.0424
  -6913171.93049  -5382471.93448  20143279.6154   20143278.3034
      1887.8654
 04  9 17 21 43 44.9980000  0  8G 3G 8G28G13G19G10G23G27
  -1649150.47349  -1279131.54347  22712202.3574   22712202.4124
      -429.7664
 -10695522.37149  -8325593.67647  20519791.4124   20519790.0374
      3008.7194
  -8264462.86349  -7981758.91047  22216314.3504   22216312.4824
      4159.8064
   -389914.26649   -305707.77747  20321497.0534   20321495.4204
      -686.2044
  -9167661.32049  -7134633.61347  21740677.2484   21740675.1624
      1993.9934
  -6032428.02749  -4696053.53147  22912354.3894   22912354.2324
      2116.7444
   5971610.14549   4642323.03146  23183354.3344   23183354.5614
     -2201.7914
  -6941447.66449  -5404504.96948  20137898.8034   20137897.3034
      1885.0494
 04  9 17 21 43 59.9980000  0  8G 3G 8G28G13G19G10G23G27
  -1642580.71949  -1274012.25847  22713452.7794   22713453.0804
      -437.9844
 -10740608.21949  -8360725.50047  20511212.1864   20511210.5724
      3005.7234
  -8326798.80949  -8030332.32847  22204451.6544   22204450.6314
      4155.7304
   -379511.19949   -297601.50848  20323476.6544   20323475.0614
      -693.5384
  -9197438.74249  -7157836.77047  21735010.4434   21735008.0294
      1985.1614
  -6064041.87549  -4720687.66047  22906337.4754   22906338.4984
      2107.5904
   6004676.62949   4668089.02747  23189647.9594   23189646.8814
     -2204.4324
  -6969682.52349  -5426506.16448  20132525.9904   20132524.4674
      1882.3244
 04  9 17 21 44 14.9980000  0  8G 3G 8G28G13G19G10G23G27
  -1635886.57849  -1268796.03147  22714725.9284   22714726.5104
      -446.2764
 -10785647.68049  -8395821.18047  20502641.0374   20502639.9434
      3002.6314
  -8389072.12549  -8078856.96547  22192601.1704   22192600.3424
      4151.5544
   -368996.78949   -289408.46548  20325477.3424   20325475.6544
      -700.9614
  -9227082.23849  -7180935.57847  21729369.2724   21729367.0224
      1976.2334
  -6095516.96949  -4745213.72347  22900348.7564   22900348.7294
      2098.3404
   6037783.98049   4693886.85946  23195947.6004   23195946.2874
     -2207.1574
  -6997874.94549  -5448474.28148  20127161.3114   20127159.7954
      1879.4954
 04  9 17 21 44 29.9980000  0  8G 3G 8G28G13G19G10G23G27
  -1629068.65249  -1263483.38347  22716023.0064   22716024.0534
      -454.5284
 -10830641.17249  -8430881.03547  20494079.5144   20494078.1354
      2999.5664
  -8451282.99649  -8127332.91847  22180762.9284   22180762.9434
      4147.3914
   -358371.55549   -281129.08647  20327499.3574   20327497.7404
      -708.3494
  -9256591.96949  -7203930.15647  21723754.6704   21723751.2094
      1967.3154
  -6126853.65649  -4769631.94146  22894385.2324   22894385.3034
      2089.1134
   6070931.57849   4719716.09047  23202256.0224   23202254.9324
     -2209.8404
  -7026025.35949  -5470409.66448  20121804.8344   20121803.0684
      1876.6944
 04  9 17 21 44 44.9980000  0  8G 3G 8G28G13G19G10G23G27
  -1622128.41449  -1258075.44947  22717344.5144   22717345.3504
      -462.6834
 -10875589.69149  -8465905.85248  20485525.8114   20485524.6504
      2996.5684
  -8513432.53149  -8175761.12547  22168936.5374   22168935.1474
      4143.3024
   -347636.98449   -272764.49648  20329542.1934   20329540.1624
      -715.6384
  -9285969.16049  -7226821.46147  21718163.8574   21718160.9984
      1958.4794
  -6158053.25049  -4793943.30946  22888448.8734   22888447.5614
      2079.9734
   6104117.82049   4745575.39547  23208570.1864   23208570.3304
     -2212.4164
  -7054134.94549  -5492313.23848  20116454.9514   20116454.3144
      1873.9724
 04  9 17 21 44 59.9980000  0  8G 3G 8G28G13G19G10G23G27
  -1615065.84449  -1252572.14147  22718687.7014   22718689.2524
      -470.8384
 -10920493.01649  -8500895.44548  20476980.9904   20476980.3974
      2993.5554
  -8575520.36349  -8224141.19947  22157121.2724   22157119.8654
      4139.1894
   -336792.71949   -264314.43748  20331605.8034   20331604.4514
      -722.9514
  -9315213.24649  -7249609.03947  21712598.8034   21712595.8114
      1949.6064
  -6189115.28149  -4818147.52046  22882538.4124   22882536.2444
      2070.8024
   6137342.85949   4771464.92646  23214893.6474   23214892.3344
     -2215.0034
  -7082203.29749  -5514184.68748  20111114.0614   20111112.9474
      1871.2234
 04  9 17 21 45 14.9980000  0  8G 3G 8G28G13G19G10G23G27
  -1607878.96149  -1246972.00847  22720055.5064   22720056.4044
      -479.1264
 -10965349.14549  -8535848.25848  20468445.1394   20468443.9204
      2990.4094
  -8637544.16849  -8272471.41447  22145319.3574   22145317.7484
      4134.9204
   -325836.99649   -255777.53147  20333690.4124   20333689.1704
      -730.3824
  -9344322.10249  -7272291.23847  21707059.2254   21707056.6434
      1940.5904
  -6220037.67649  -4842242.88347  22876653.7254   22876653.3224
      2061.4934
   6170608.46949   4797386.13346  23221223.2404   23221221.4904
     -2217.7074
  -7110228.17649  -5536022.26248  20105781.1864   20105779.9754
      1868.3254
 04  9 17 21 45 29.9980000  0  8G 3G 8G28G13G19G10G23G27
  -1600568.51649  -1241275.58646  22721446.5294   22721447.8504
      -487.3634
 -11010158.19949  -8570764.41048  20459918.3814   20459917.4394
      2987.2704
  -8699504.30549  -8320752.00447  22133527.6784   22133526.8814
      4130.6764
   -314770.30149   -247154.14547  20335796.7404   20335794.9204
      -737.7804
  -9373295.92249  -7294868.22747  21701545.7324   21701543.1624
      1931.5884
  -6250820.69549  -4866229.62147  22870794.7094   22870795.4904
      2052.2014
   6203914.13749   4823338.50846  23227561.1234   23227560.2484
     -2220.3784
  -7138210.02749  -5557826.29748  20100456.2254   20100454.9514
      1865.4574
 04  9 17 21 45 44.9980000  0  8G 3G 8G28G13G19G10G23G27
  -1593135.47749  -1235483.62147  22722860.9754   22722861.9594
      -495.5364
 -11054920.89149  -8605644.42648  20451399.9904   20451399.0294
      2984.1794
  -8761401.59849  -8368983.62147  22121748.9124   22121748.1624
      4126.4864
   -303593.78549   -238445.18048  20337923.2724   20337921.3574
      -745.1014
  -9402135.56649  -7317340.65647  21696058.0924   21696054.9674
      1922.6434
  -6281465.31249  -4890108.59046  22864965.1234   22864963.6114
      2042.9744
   6237258.61349   4849321.11746  23233907.0454   23233905.9084
     -2222.9654
  -7166149.66449  -5579597.44548  20095139.5294   20095138.1314
      1862.6424
 04  9 17 21 45 59.9980000  0  8G 3G 8G28G13G19G10G23G27
  -1585580.71149  -1229596.85247  22724298.8814   22724299.2134
      -503.6514
 -11099637.60249  -8640488.60247  20442890.6784   20442889.4634
      2981.1144
  -8823236.23849  -8417166.41447  22109982.6624   22109981.1354
      4122.3094
   -292307.88749   -229650.98047  20340071.4674   20340069.3574
      -752.3934
  -9430841.23049  -7339708.68747  21690595.3974   21690592.7214
      1913.7114
  -6311972.01649  -4913880.02747  22859159.2174   22859157.3144
      2033.7804
   6270641.26649   4875333.47747  23240258.8654   23240258.5104
     -2225.5104
  -7194047.43049  -5601335.96948  20089831.0294   20089829.3304
      1859.8514
 04  9 17 21 46 14.9980000  0  8G 3G 8G28G13G19G10G23G27
  -1577904.58649  -1223615.47346  22725759.6704   22725759.9434
      -511.7424
 -11144308.59449  -8675297.16047  20434390.5844   20434389.0644
      2978.0664
  -8885008.48049  -8465300.61347  22098227.7094   22098226.7794
      4118.1494
   -280913.09049   -220771.93747  20342239.2794   20342237.5844
      -759.6534
  -9459413.04749  -7361972.41447  21685158.4044   21685155.6474
      1904.7884
  -6342340.84849  -4937544.04346  22853379.3734   22853378.0884
      2024.5894
   6304061.50849   4901375.14846  23246617.9514   23246618.9164
     -2228.0164
  -7221903.60549  -5623042.07848  20084529.8034   20084528.3774
      1857.0784
 04  9 17 21 46 29.9980000  0  8G 3G 8G28G13G19G10G23G27
  -1570106.26249  -1217538.84446  22727243.6074   22727243.2684
      -519.8884
 -11188932.98449  -8710069.41048  20425898.1074   20425897.0454
      2974.9594
  -8946717.18449  -8513385.25447  22086485.0924   22086483.9824
      4113.9144
   -269408.30949   -211807.18047  20344428.4514   20344427.2484
      -766.9854
  -9487849.94549  -7384131.03947  21679747.1234   21679744.9004
      1895.7934
  -6372570.85249  -4961099.92246  22847627.5144   22847625.4984
      2015.3344
   6337520.20749   4927446.73446  23252985.9754   23252986.9864
     -2230.5804
  -7249717.02349  -5644714.87148  20079237.1314   20079235.6004
      1854.2284
 04  9 17 21 46 44.9980000  0  8G 3G 8G28G13G19G10G23G27
  -1562186.28549  -1211367.46147  22728751.3184   22728750.6274
      -527.9984
 -11233511.10949  -8744805.62148  20417415.4124   20417414.3424
      2971.8754
  -9008362.55549  -8561420.55947  22074754.0064   22074752.7174
      4109.6914
   -257794.39549   -202757.39147  20346638.3264   20346637.2444
      -774.2614
  -9516152.21949  -7406184.74247  21674361.2724   21674359.5684
      1886.8184
  -6402662.51249  -4984547.97347  22841900.9824   22841898.8464
      2006.1114
   6371016.68449   4953547.80146  23259359.5764   23259359.4714
     -2233.0984
  -7277488.05949  -5666354.65248  20073952.4754   20073950.9324
      1851.4024
 04  9 17 21 46 59.9980000  0  8G 3G 8G28G13G19G10G23G27
  -1554144.04349  -1205100.80947  22730281.2724   22730282.2564
      -536.1494
 -11278041.71149  -8779504.77347  20408941.4754   20408940.4754
      2968.7074
  -9069943.47749  -8609405.68047  22063036.3574   22063034.6744
      4105.3954
   -246070.37949   -193621.82847  20348869.5534   20348868.3184
      -781.6014
  -9544318.78949  -7428132.69147  21669001.4284   21668999.3894
      1877.7714
  -6432614.69549  -5007887.33646  22836200.7874   22836200.5614
      1996.8124
   6404551.58649   4979678.78946  23265742.2404   23265741.8034
     -2235.6604
  -7305215.73449  -5687960.62948  20068676.1234   20068675.2724
      1848.5124
 04  9 17 21 47 14.9980000  0  8G 3G 8G28G13G19G10G23G27
  -1545979.70749  -1198738.96146  22731835.6784   22731834.6934
      -544.2894
 -11322524.91049  -8814167.00848  20400476.9434   20400475.9434
      2965.5474
  -9131459.83249  -8657340.44947  22051330.0374   22051328.0104
      4101.0904
   -234236.37949   -184400.53947  20351121.5684   20351120.5334
      -788.9334
  -9572349.46949  -7449974.76247  21663667.3344   21663663.8654
      1868.7124
  -6462427.32049  -5031117.94546  22830527.7954   22830526.7254
      1987.5084
   6438124.67649   5005839.54346  23272130.5144   23272130.5684
     -2238.2064
  -7332899.84049  -5709532.65648  20063407.6934   20063406.3184
      1845.6074
 04  9 17 21 47 29.9980000  0  8G 3G 8G28G13G19G10G23G27
  -1537695.27049  -1192283.57846  22733410.7254   22733410.7604
      -552.2964
 -11366962.11749  -8848793.40648  20392020.4204   20392019.6504
      2962.4804
  -9192913.17249  -8705226.14147  22039634.9044   22039634.4984
      4096.8894
   -222294.23449   -175094.98447  20353394.1544   20353393.0574
      -796.1434
  -9600245.82849  -7471712.19147  21658358.3114   21658356.0024
      1859.7574
  -6492102.04749  -5054241.09046  22824880.4594   22824880.3074
      1978.3154
   6471734.27349   5032028.72747  23278526.2874   23278526.3464
     -2240.6404
  -7360542.01249  -5731072.02048  20058147.7874   20058146.6584
      1842.8114
 04  9 17 21 47 44.9980000  0  8G 3G 8G28G13G19G10G23G27
  -1529290.18049  -1185734.20746  22735010.5224   22735009.9594
      -560.3394
 -11411352.75449  -8883383.51247  20383573.4044   20383572.4244
      2959.3764
  -9254302.82049  -8753062.22347  22027953.3344   22027952.3854
      4092.6434
   -210243.55949   -165704.87547  20355687.5534   20355685.6194
      -803.3784
  -9628007.14849  -7493344.37147  21653075.8184   21653073.3814
      1850.7554
  -6521638.14549  -5077256.26647  22819261.3344   22819261.4324
      1969.0734
   6505380.59449   5058246.55547  23284929.4754   23284928.1704
     -2243.0884
  -7388141.64849  -5752578.22348  20052896.1474   20052894.4324
      1839.9764
 04  9 17 21 47 59.9980000  0  8G 3G 8G28G13G19G10G23G27
  -1520763.99249  -1179090.45346  22736633.1934   22736633.0224
      -568.4124
 -11455696.03949  -8917936.70347  20375135.0224   20375134.0924
      2956.2194
  -9315627.72349  -8800847.78547  22016283.4434   22016282.0024
      4088.3274
   -198083.49649   -156229.50847  20358001.4514   20357999.6274
      -810.6714
  -9655632.49249  -7514870.59447  21647818.3424   21647816.4594
      1841.6904
  -6551034.94149  -5100162.84846  22813666.0224   22813666.7524
      1959.7864
   6539064.12549   5084493.37947  23291338.8114   23291338.8694
     -2245.5694
  -7415697.83649  -5774050.57848  20047652.2724   20047650.5144
      1837.0794
 04  9 17 21 48 14.9980000  0  8G 3G 8G28G13G19G10G23G27
  -1512117.85949  -1172353.23046  22738279.3894   22738278.4364
      -576.4094
 -11499992.43749  -8952453.37947  20366705.4824   20366704.6664
      2953.0934
  -9376888.82849  -8848583.67647  22004625.7794   22004624.7564
      4084.0744
   -185815.39149   -146669.96147  20360335.8264   20360334.1864
      -817.8744
  -9683122.60549  -7536291.45747  21642587.4044   21642585.3424
      1832.6744
  -6580293.28149  -5122961.55146  22808098.2404   22808096.2134
      1950.5564
   6572783.77049   5110768.34846  23297755.8424   23297755.5104
     -2247.9764
  -7443211.37149  -5795489.70748  20042416.5614   20042415.2324
      1834.2364
 04  9 17 21 48 29.9980000  0  8G 3G 8G28G13G19G10G23G27
  -1503350.92649  -1165521.81246  22739946.9204   22739945.6154
      -584.4624
 -11544241.18749  -8986932.93047  20358285.4124   20358284.1704
      2949.9174
  -9438084.84449  -8896268.83647  21992981.0064   21992979.9284
      4079.7344
   -173438.16849   -137025.39147  20362690.9124   20362689.0964
      -825.1484
  -9710476.40249  -7557606.07447  21637382.2014   21637379.9794
      1823.5864
  -6609412.07049  -5145651.52346  22802557.7874   22802556.1044
      1941.2534
   6606540.50849   5137072.17646  23304179.3504   23304179.5964
     -2250.4494
  -7470681.20349  -5816894.77048  20037189.1544   20037188.1504
      1831.3224
 04  9 17 21 48 44.9980000  0  8G 3G 8G28G13G19G10G23G27
  -1494462.75849  -1158596.00846  22741638.7954   22741637.7524
      -592.5454
 -11588441.66049  -9021374.85947  20349874.8184   20349872.8144
      2946.6984
  -9499215.10249  -8943902.81247  21981347.8734   21981346.8424
      4075.3514
   -160951.33649   -127295.40247  20365067.4594   20365065.8854
      -832.4554
  -9737693.16849  -7578813.94147  21632203.3814   21632201.1934
      1814.4514
  -6638390.70749  -5168232.30146  22797043.0144   22797042.5614
      1931.9094
   6640334.55149   5163405.07846  23310610.5224   23310610.0884
     -2252.9364
  -7498106.62549  -5838265.24248  20031970.4044   20031969.0224
      1828.3614
 04  9 17 21 48 59.9980000  0  8G 3G 8G28G13G19G10G23G27
  -1485454.64549  -1151576.73046  22743352.1784   22743352.6864
      -600.5414
 -11632594.71949  -9055779.83248  20341472.0144   20341470.9324
      2943.5374
  -9560280.56249  -8991486.23047  21969727.5454   21969726.6314
      4071.0314
   -148356.09449   -117480.94947  20367464.0614   20367461.9904
      -839.6834
  -9764773.72749  -7599915.66047  21627050.0144   21627047.7834
      1805.3714
  -6667230.16449  -5190704.64846  22791556.3654   22791555.1664
      1922.6304
   6674164.71549   5189766.14847  23317048.0924   23317048.2794
     -2255.3444
  -7525488.52749  -5859601.77348  20026759.6394   20026758.4124
      1825.4604
 04  9 17 21 49 14.9980000  0  8G 3G 8G28G13G19G10G23G27
  -1476326.28949  -1144463.75046  22745089.9044   22745090.2834
      -608.5574
 -11676699.58649  -9090147.25448  20333079.6864   20333078.5494
      2940.3244
  -9621280.30949  -9039018.47347  21958119.9984   21958118.8774
      4066.6504
   -135652.00849   -107581.67647  20369881.8814   20369880.2054
      -846.9394
  -9791717.35549  -7620910.70347  21621923.2094   21621920.3854
      1796.2424
  -6695929.86349  -5213068.02046  22786093.9904   22786093.5724
      1913.3134
   6708031.30949   5216155.56347  23323492.6234   23323492.4514
     -2257.7734
  -7552826.27349  -5880903.92248  20021557.3974   20021556.2604
      1822.5164
 04  9 17 21 49 29.9980000  0  8G 3G 8G28G13G19G10G23G27
  -1467078.20749  -1137257.48046  22746850.1624   22746850.2794
      -616.5394
 -11720756.34449  -9124477.19948  20324695.7564   20324694.6394
      2937.1174
  -9682214.52349  -9086499.62547  21946523.9044   21946522.7174
      4062.2814
   -122839.43749    -97597.87147  20372319.9434   20372318.5764
      -854.1714
  -9818524.19549  -7641799.12947  21616821.6864   21616819.4904
      1787.1234
  -6724489.93749  -5235322.62546  22780659.1704   22780658.3034
      1904.0054
   6741934.02749   5242573.14547  23329944.2014   23329944.5454
     -2260.1814
  -7580119.96949  -5902171.73848  20016363.7404   20016362.4244
      1819.5804
 04  9 17 21 49 44.9980000  0  8G 3G 8G28G13G19G10G23G27
  -1457710.50049  -1129957.94546  22748632.3974   22748633.1004
      -624.5144
 -11764765.23049  -9158769.82447  20316321.2874   20316319.8384
      2933.9264
  -9743083.16049  -9133929.70747  21934941.2094   21934940.0254
      4057.9094
   -109918.52349    -87529.64847  20374778.7174   20374777.5614
      -861.3944
  -9845194.09049  -7662580.85947  21611747.2324   21611743.8774
      1777.9934
  -6752910.48049  -5257468.50447  22775252.1784   22775249.4124
      1894.7034
   6775872.32049   5269018.44947  23336403.2794   23336403.2054
     -2262.5534
  -7607369.58249  -5923405.19948  20011178.2324   20011176.9984
      1816.6414
 04  9 17 21 49 59.9970000  0  8G 3G 8G28G13G19G10G23G27
  -1448224.97749  -1122566.66846  22750437.6884   22750438.2864
      -632.3684
 -11808724.09449  -9193023.48848  20307956.1424   20307955.1424
      2930.5914
  -9803882.94549  -9181306.15647  21923370.9234   21923370.2554
      4053.3194
    -96891.29349    -77378.57447  20377257.6034   20377255.9894
      -868.4824
  -9871726.27049  -7683255.30147  21606697.8134   21606694.2434
      1768.8124
  -6781190.53949  -5279504.93046  22769870.2824   22769867.1384
      1885.3374
   6809842.82449   5295488.87547  23342867.2984   23342867.9034
     -2264.7004
  -7634574.26249  -5944603.66048  20006001.0714   20006000.2434
      1813.6454
 04  9 17 21 50 14.9970000  0  7G 3G 8G28G13G19G10G27
  -1438619.38749  -1115081.82046  22752266.0564   22752266.6734
      -640.3734
 -11852637.11749  -9227241.43048  20299599.6884   20299598.0914
      2927.5354
  -9864620.41049  -9228634.04347  21911813.5404   21911812.8254
      4049.1644
    -83754.82049    -67142.38747  20379757.8064   20379756.2244
      -875.7654
  -9898122.59849  -7703823.84047  21601674.4784   21601671.6924
      1759.7554
  -6809332.38349  -5301433.61346  22764514.5564   22764513.1734
      1876.1234
  -7661736.12149  -5965768.74248  20000832.7744   20000831.4784
      1810.7914
 04  9 17 21 50 29.9970000  0  7G 3G 8G28G13G19G10G27
  -1428896.89149  -1107505.90646  22754116.2984   22754117.0054
      -648.1664
 -11896503.96549  -9261423.38748  20291252.1424   20291250.4074
      2924.4574
  -9925293.91049  -9275912.07447  21900267.1494   21900267.1184
      4044.9004
    -70512.42249    -56823.63747  20382277.1734   20382275.8494
      -882.8274
  -9924383.76249  -7724287.09047  21596676.7434   21596674.8494
      1750.7444
  -6837336.56249  -5323255.06246  22759185.8994   22759184.0564
      1866.9454
  -7688855.68449  -5986900.87148  19995672.3374   19995670.4194
      1807.9714
 04  9 17 21 50 44.9970000  0  7G 3G 8G28G13G19G10G27
  -1419054.85949  -1099836.73846  22755988.9384   22755990.0284
      -656.1354
 -11940321.53149  -9295566.94148  20282914.4234   20282912.9194
      2921.1714
  -9985900.42249  -9323137.89547  21888734.8214   21888733.6884
      4040.4344
    -57161.47749    -46420.32847  20384817.8604   20384816.2084
      -890.0634
  -9950506.71149  -7744642.62147  21591706.7284   21591703.7204
      1741.5304
  -6865200.31649  -5344967.09847  22753882.3534   22753882.7554
      1857.5844
  -7715929.98049  -6007997.72748  19990519.7674   19990518.6224
      1804.9534
 04  9 17 21 50 59.9970000  0  7G 3G 8G28G13G19G10G27
  -1409093.41849  -1092074.66046  22757884.2044   22757885.4114
      -664.0964
 -11984089.61749  -9329671.94148  20274585.2434   20274583.9814
      2917.8724
 -10046439.73849  -9370311.38347  21877214.3764   21877212.3214
      4035.9544
    -43702.09849    -35932.51247  20387379.0874   20387377.3844
      -897.2924
  -9976491.34049  -7764890.38347  21586760.9464   21586758.8374
      1732.3094
  -6892923.33649  -5366569.46946  22748608.1884   22748607.5604
      1848.2014
  -7742958.84049  -6029059.18048  19985376.3684   19985375.1104
      1801.9244
 04  9 17 21 51 14.9970000  0  7G 3G 8G28G13G19G10G27
  -1399011.74249  -1084218.76646  22759802.1574   22759803.4624
      -672.1124
 -12027807.25849  -9363737.64148  20266265.9934   20266264.9234
      2914.5094
 -10106910.60549  -9417431.52347  21865707.2124   21865705.8024
      4031.3914
    -30133.18049    -25359.34047  20389961.7904   20389960.2554
      -904.5954
 -10002336.31649  -7785029.33247  21581843.7124   21581840.8564
      1722.9984
  -6920504.63749  -5388061.36346  22743358.2434   22743357.8604
      1838.7534
  -7769941.07049  -6050084.29348  19980242.0324   19980240.2594
      1798.8154
 04  9 17 21 51 29.9970000  0  7G 3G 8G28G13G19G10G27
  -1388806.90649  -1076266.98846  22761743.7044   22761745.1924
      -680.3224
 -12071471.07049  -9397761.37948  20257956.9234   20257955.8764
      2910.9214
 -10167309.75449  -9464495.77347  21854213.7674   21854212.6884
      4026.6104
    -16451.85549    -14698.59047  20392564.9154   20392563.1654
      -912.0884
 -10028038.46549  -7805056.96547  21576952.1264   21576950.0484
      1713.4774
  -6947940.93449  -5409440.29346  22738137.6654   22738137.3884
      1829.0864
  -7796873.53149  -6071070.62948  19975116.8684   19975115.7714
      1795.4974
 04  9 17 21 51 44.9970000  0  7G 3G 8G28G13G19G10G27
  -1378481.52749  -1068221.31646  22763708.6654   22763710.5284
      -688.3594
 -12115083.31249  -9431744.95348  20249657.9544   20249656.6064
      2907.4834
 -10227639.55949  -9511505.97347  21842733.0244   21842732.3254
      4021.9874
     -2660.69949     -3952.25847  20395189.0094   20395187.9854
      -919.4104
 -10053600.04749  -7824975.07047  21572087.8214   21572085.4854
      1704.1054
  -6975234.68449  -5430708.16446  22732943.5174   22732943.7824
      1819.5834
  -7823758.46949  -6092019.94148  19970000.7984   19969999.5284
      1792.3294
 04  9 17 21 51 59.9970000  0  7G 3G 8G28G13G19G10G27
  -1368033.35949  -1060079.87546  22765698.0564   22765698.1494
      -696.5454
 -12158641.44549  -9465686.34048  20241368.9234   20241367.6694
      2903.8764
 -10287897.16849  -9558459.92647  21831265.8844   21831265.3494
      4017.1744
     11242.82449      6881.63747  20397835.0874   20397833.7594
      -926.9024
 -10079018.23849  -7844781.45747  21567251.0564   21567249.1464
      1694.5464
  -7002383.19549  -5451862.83646  22727778.4314   22727777.3494
      1809.9014
  -7850593.11749  -6112930.05948  19964894.3534   19964893.0914
      1788.9774
 04  9 17 21 52 14.9970000  0  7G 3G 8G28G13G19G10G27
  -1357465.46149  -1051845.12146  22767708.0634   22767710.1144
      -704.5274
 -12202148.30149  -9499587.78148  20233089.8214   20233089.0634
      2900.4574
 -10348085.49649  -9605359.87947  21819813.0714   21819811.6144
      4012.5554
     25255.45349     17800.55547  20400501.5484   20400499.7594
      -934.1754
 -10104296.07849  -7864478.47347  21562440.5324   21562438.4034
      1685.1894
  -7029389.66449  -5472906.86346  22722638.7284   22722637.5054
      1800.4314
  -7877380.49649  -6133803.34048  19959797.0714   19959795.5524
      1785.8254
 04  9 17 21 52 29.9970000  0  7G 3G 8G28G13G19G10G27
  -1346776.79349  -1043516.33246  22769742.6424   22769744.0674
      -712.5784
 -12245602.33249  -9533448.06648  20224820.7824   20224819.9664
      2896.9354
 -10408202.92249  -9652204.60947  21808373.1034   21808371.9384
      4007.8284
     39378.68049     28805.64847  20403188.8374   20403187.5954
      -941.5484
 -10129431.93049  -7884064.86347  21557657.8684   21557655.8374
      1675.7234
  -7056252.56249  -5493839.00447  22717526.7984   22717526.8564
      1790.8604
  -7904118.96549  -6154638.50848  19954708.7984   19954707.3804
      1782.5654
 04  9 17 21 52 44.9970000  0  7G 3G 8G28G13G19G10G27
  -1335968.71549  -1035094.48046  22771798.7284   22771800.0954
      -720.5394
 -12289004.83249  -9567268.19948  20216561.6654   20216560.6034
      2893.5004
 -10468250.66049  -9698995.01247  21796946.1264   21796945.0834
      4003.1834
     53610.90249     39895.66847  20405897.6424   20405895.7744
      -948.8154
 -10154427.03549  -7903541.55947  21552901.2904   21552899.0994
      1666.3404
  -7082973.21149  -5514660.27346  22712441.3924   22712440.9664
      1781.3774
  -7930809.91049  -6175436.65648  19949629.6184   19949628.3844
      1779.3964
 04  9 17 21 52 59.9970000  0  7G 3G 8G28G13G19G10G27
  -1325041.12549  -1026579.53146  22773879.4784   22773879.0364
      -728.5064
 -12332355.17249  -9601047.67648  20208312.5874   20208310.9464
      2890.0234
 -10528228.21149  -9745730.75047  21785533.0794   21785531.6064
      3998.5034
     67952.40649     51070.85547  20408626.5794   20408625.2124
      -956.1004
 -10179280.92649  -7922908.23047  21548172.3534   21548168.9584
      1656.9264
  -7109551.13749  -5535370.35547  22707385.6184   22707384.0874
      1771.8624
  -7957452.68049  -6196197.26248  19944559.7354   19944558.4624
      1776.1854
 04  9 17 21 53 14.9970000  0  7G 3G 8G28G13G19G10G27
  -1313995.75849  -1017972.80946  22775981.3214   22775981.2004
      -736.3584
 -12375654.98449  -9634787.79348  20200072.6654   20200071.4624
      2886.6544
 -10588136.96149  -9792412.87947  21774132.6264   21774132.1654
      3993.9174
     82401.46949     62329.86347  20411376.3064   20411374.3604
      -963.2714
 -10203995.00049  -7942165.94547  21543468.9154   21543466.7674
      1647.6054
  -7135987.78549  -5555970.35246  22702354.1424   22702352.6144
      1762.4434
  -7984048.79749  -6216921.50848  19939498.3454   19939497.3924
      1773.0744
 04  9 17 21 53 29.9970000  0  7G 3G 8G28G13G19G10G27
  -1302831.32849  -1009273.21546  22778104.5174   22778105.9384
      -744.2954
 -12418902.55149  -9668487.19547  20191843.2824   20191841.7904
      2883.1714
 -10647975.11349  -9839039.96547  21762745.8924   21762745.2284
      3989.2104
     96959.60949     73673.84447  20414146.6424   20414145.0564
      -970.5434
 -10228567.54349  -7961313.39547  21538793.2204   21538790.7554
      1638.1704
  -7162281.59449  -5576459.02746  22697349.9544   22697349.4624
      1752.9214
  -8010596.50449  -6237608.03148  19934447.1654   19934445.8564
      1769.8474
 04  9 17 21 53 44.9970000  0  7G 3G 8G28G13G19G10G27
  -1291550.43449  -1000482.97746  22780251.1574   22780252.8064
      -752.0604
 -12462100.18449  -9702147.68447  20183623.0954   20183621.4154
      2879.8424
 -10707745.00449  -9885613.87147  21751371.2514   21751370.8254
      3984.6594
    111624.16849     85100.75047  20416937.1104   20416935.8254
      -977.6374
 -10253000.91849  -7980352.38747  21534143.7434   21534140.6854
      1628.8924
  -7188435.00849  -5596838.30946  22692372.7824   22692373.0874
      1743.5614
  -8037098.27049  -6258258.75448  19929403.6494   19929401.9934
      1766.7844
 04  9 17 21 53 59.9970000  0  7G 3G 8G28G13G19G10G27
  -1280152.35949   -991601.40246  22782420.8374   22782420.4624
      -759.8724
 -12505246.69149  -9735768.33648  20175412.3134   20175411.0564
      2876.4344
 -10767445.56249  -9932133.75047  21740011.2674   21740010.5054
      3980.0374
    126396.12149     96611.35947  20419747.9154   20419746.8724
      -984.7974
 -10277294.03149  -7999282.06247  21529520.4234   21529518.2904
      1619.5414
  -7214446.85949  -5617107.29746  22687423.0014   22687422.0794
      1734.1234
  -8063552.85949  -6278872.72348  19924369.6264   19924367.9934
      1763.6394
 04  9 17 21 54 14.9970000  0  7G 3G 8G28G13G19G10G27
  -1268636.35949   -982627.87946  22784611.2434   22784612.3994
      -767.7334
 -12548341.17249  -9769348.44948  20167211.2044   20167210.6424
      2872.9654
 -10827075.61349  -9978598.68047  21728664.0794   21728663.5174
      3975.3374
    141276.18049    108206.17647  20422579.7594   20422578.4354
      -992.0044
 -10301445.79349  -8018101.61347  21524924.2514   21524922.0834
      1610.1174
  -7240316.41849  -5637265.40247  22682501.1344   22682499.0134
      1724.6374
  -8089959.22749  -6299449.12148  19919344.4234   19919343.2084
      1760.4244
 04  9 17 21 54 29.9970000  0  7G 3G 8G28G13G19G10G27
  -1257004.47349   -973564.08246  22786826.1654   22786825.0054
      -775.4594
 -12591384.84849  -9802888.96948  20159020.8454   20159019.5794
      2869.5784
 -10886636.69549 -10025009.89547  21717329.6424   21717329.3174
      3970.7394
    156262.48849    119883.80547  20425431.4154   20425430.1854
      -999.0874
 -10325457.83649  -8036812.30547  21520356.1104   21520352.7084
      1600.8034
  -7266045.44549  -5657314.00046  22677604.7124   22677602.8134
      1715.2684
  -8116319.12149  -6319989.29748  19914328.4154   19914326.8764
      1757.3264
 04  9 17 21 54 44.9970000  0  7G 3G 8G28G13G19G10G27
  -1245255.19949   -964408.84046  22789061.1104   22789060.2634
      -783.2854
 -12634376.45749  -9836388.93048  20150839.5404   20150838.6144
      2866.1074
 -10946127.28149 -10071366.17247  21706008.9854   21706007.5754
      3966.0394
    171356.40649    131645.28547  20428303.5244   20428302.6694
     -1006.2614
 -10349328.44149  -8055412.76647  21515813.1344   21515810.5094
      1591.3744
  -7291632.18449  -5677251.72346  22672736.1734   22672735.0214
      1705.7834
  -8142630.64149  -6340491.79348  19909321.3604   19909319.8134
      1754.1014
 04  9 17 21 54 59.9970000  0  7G 3G 8G28G13G19G10G27
  -1233391.23849   -955164.22746  22791318.6814   22791317.4464
      -790.9314
 -12677318.19149  -9869850.01248  20142668.2204   20142666.7084
      2862.7824
 -11005549.41449 -10117669.10947  21694701.8134   21694700.7744
      3961.4764
    186555.44549    143488.67247  20431195.9854   20431195.4354
     -1013.2694
 -10373059.80549  -8073904.75447  21511297.0094   21511295.0714
      1582.0914
  -7317079.09049  -5697080.49247  22667893.4464   22667893.6384
      1696.4604
  -8168896.23849  -6360958.48448  19904323.3374   19904321.6384
      1751.0404
 04  9 17 21 55 14.9970000  0  7G 3G 8G28G13G19G10G27
  -1221411.27749   -945829.19946  22793598.1814   22793596.8534
      -798.6644
 -12720208.52049  -9903271.03948  20134506.3454   20134504.7394
      2859.3554
 -11064901.62949 -10163917.55147  21683407.3454   21683406.2394
      3956.8144
    201860.96549    155415.04347  20434108.7984   20434107.0714
     -1020.3684
 -10396650.48449  -8092287.09447  21506807.5634   21506805.1464
      1572.7124
  -7342384.70349  -5716799.14847  22663077.9784   22663078.0564
      1687.0414
  -8195114.28549  -6381388.14148  19899334.0244   19899332.3134
      1747.8704
 04  9 17 21 55 29.9970000  0  7G 3G 8G28G13G19G10G27
  -1209314.75849   -936403.40646  22795900.3764   22795899.2124
      -806.4354
 -12763046.39149  -9936651.19548  20126354.7284   20126353.2594
      2855.8584
 -11124183.03149 -10210110.83647  21672126.5564   21672124.7474
      3952.0934
    217273.61749    167424.87547  20437041.8214   20437040.1854
     -1027.5104
 -10420099.64549  -8110559.15647  21502345.5324   21502342.3214
      1563.2774
  -7367548.12549  -5736407.03546  22658289.4384   22658288.7674
      1677.5614
  -8221283.94949  -6401780.08648  19894354.4154   19894352.6064
      1744.6444
 04  9 17 21 55 44.9970000  0  7G 3G 8G28G13G19G10G27
  -1197101.27349   -926886.41846  22798226.0484   22798223.1574
      -814.2324
 -12805830.82449  -9969989.72348  20118212.8604   20118211.4154
      2852.2964
 -11183392.48449 -10256248.05147  21660859.4384   21660857.4704
      3947.2974
    232794.01649    179518.67647  20439995.2284   20439993.4274
     -1034.6934
 -10443406.22749  -8128720.12947  21497910.3924   21497907.4894
      1553.7724
  -7392568.64849  -5755903.54346  22653528.5714   22653526.7554
      1668.0354
  -8247404.23849  -6422133.56648  19889383.8214   19889382.2744
      1741.3534
 04  9 17 21 55 59.9970000  0  7G 3G 8G28G13G19G10G27
  -1184774.11349   -917280.86346  22800570.9464   22800570.2314
      -821.8114
 -12848565.19949 -10003289.22348  20110080.9704   20110079.6224
      2848.9584
 -11242533.35549 -10302331.84047  21649604.7744   21649603.9894
      3942.7254
    248418.76649    191693.78547  20442968.2044   20442966.8294
     -1041.6504
 -10466573.46149  -8146772.51647  21493502.1184   21493499.2394
      1544.4824
  -7417449.41049  -5775291.15646  22648793.2124   22648792.1694
      1658.7174
  -8273478.34849  -6442451.04748  19884421.6734   19884420.4814
      1738.2744
 04  9 17 21 56 14.9970000  0  7G 3G 8G28G13G19G10G27
  -1172333.30549   -907586.75046  22802938.2514   22802937.9584
      -829.3874
 -12891248.98049 -10036549.30948  20101958.5404   20101957.0674
      2845.5854
 -11301605.07049 -10348361.71547  21638363.9624   21638362.9114
      3938.1144
    264148.09849    203950.39547  20445961.1574   20445960.6884
     -1048.6224
 -10489600.78549  -8164715.89147  21489120.3374   21489117.1184
      1535.1554
  -7442190.02049  -5794569.57447  22644085.3994   22644085.1104
      1649.3744
  -8299505.75849  -6462732.16048  19879469.1184   19879467.5754
      1735.1614
 04  9 17 21 56 29.9970000  0  7G 3G 8G28G13G19G10G27
  -1159778.75449   -897803.93446  22805327.5954   22805326.5364
      -836.9704
 -12933881.77749 -10069769.68048  20093845.5484   20093844.1104
      2842.1864
 -11360607.15249 -10394337.33247  21627136.6184   21627134.6814
      3933.4724
    279982.17249    216288.61747  20448974.3764   20448973.7824
     -1055.6054
 -10512487.96949  -8182550.05147  21484765.0404   21484761.6734
      1525.8124
  -7466790.31249  -5813738.63746  22639404.6654   22639403.8564
      1640.0204
  -8325486.10949  -6482976.59048  19874525.3064   19874523.6774
      1732.0234
 04  9 17 21 56 44.9970000  0  7G 3G 8G28G13G19G10G27
  -1147110.90249   -887932.90246  22807738.0564   22807737.5714
      -844.5234
 -12976463.83649 -10102950.49248  20085742.6494   20085741.1854
      2838.8044
 -11419539.87149 -10440258.93047  21615921.4234   21615920.9034
      3928.8484
    295920.42649    228708.00847  20452007.9854   20452006.1304
     -1062.5504
 -10535235.21549  -8200275.19547  21480436.1574   21480433.6344
      1516.4834
  -7491250.52049  -5832798.55947  22634750.1654   22634748.3724
      1630.6804
  -8351419.62549  -6503184.53148  19869590.0714   19869588.8174
      1728.9014
 04  9 17 21 56 59.9970000  0  7G 3G 8G28G13G19G10G27
  -1134330.41849   -877974.09846  22810170.3844   22810170.0794
      -852.0324
 -13018995.30549 -10136091.88348  20077649.2204   20077647.8964
      2835.4314
 -11478403.30549 -10486126.48447  21604720.7824   21604719.2474
      3924.2294
    311962.44549    241208.26647  20455060.3844   20455058.9464
     -1069.4684
 -10557842.64849  -8217891.35547  21476134.5324   21476131.3804
      1507.1624
  -7515570.94149  -5851749.53547  22630122.0244   22630120.9274
      1621.3614
  -8377306.35949  -6523356.02048  19864664.1494   19864662.7824
      1725.7824
 04  9 17 21 57 14.9970000  0  7G 3G 8G28G13G19G10G27
  -1121436.55549   -867926.99246  22812623.9154   22812623.0564
      -859.5914
 -13061475.20749 -10169193.11748  20069565.2904   20069564.1734
      2831.9934
 -11537196.47349 -10531939.31247  21593532.6424   21593530.0634
      3919.5454
    328109.03149    253790.00047  20458133.0324   20458131.5284
     -1076.4394
 -10580309.34449  -8235397.87147  21471859.0564   21471856.5404
      1497.7804
  -7539750.73449  -5870590.94547  22625520.5954   22625519.7164
      1611.9864
  -8403145.41849  -6543490.34848  19859747.3214   19859745.8534
      1722.6044
 04  9 17 21 57 29.9970000  0  7G 3G 8G28G13G19G10G27
  -1108429.97749   -857792.06246  22815097.8534   22815098.2784
      -867.1054
 -13103903.78149 -10202254.34048  20061491.2594   20061490.0954
      2828.5724
 -11595919.50849 -10577697.52347  21582357.7284   21582356.0794
      3914.8694
    344359.50449    266452.69547  20461225.1034   20461223.3884
     -1083.3654
 -10602635.52049  -8252794.87947  21467610.2124   21467608.0954
      1488.4124
  -7563790.25049  -5889323.07046  22620945.8764   22620945.6344
      1602.6344
  -8428937.00849  -6563587.68748  19854839.2824   19854837.5754
      1719.4394
 04  9 17 21 57 44.9970000  0  7G 3G 8G28G13G19G10G27
  -1095311.51249   -847569.90646  22817595.9234   22817595.7084
      -874.5644
 -13146281.41049 -10235275.86748  20053427.2744   20053426.3294
      2825.1754
 -11654573.00849 -10623401.52047  21571195.9704   21571195.0954
      3910.2334
    360713.12149    279195.75447  20464337.2044   20464336.4074
     -1090.2414
 -10624821.68049  -8270082.80147  21463387.8924   21463385.8964
      1479.0774
  -7587690.08649  -5907946.29347  22616398.2594   22616396.4354
      1593.3224
  -8454681.64149  -6583648.44148  19849940.0714   19849939.2594
      1716.3094
 04  9 17 21 57 59.9970000  0  7G 3G 8G28G13G19G10G27
  -1082080.89149   -837260.29346  22820112.8764   22820113.7984
      -882.0414
 -13188607.81649 -10268257.48048  20045372.8684   20045371.3104
      2821.7604
 -11713156.30949 -10669050.79747  21560048.1264   21560047.3494
      3905.5534
    377170.51649    292019.68047  20467469.4854   20467467.9744
     -1097.1604
 -10646867.30149  -8287261.21147  21459193.4384   21459189.9074
      1469.7084
  -7611449.91449  -5926460.45347  22611875.8534   22611876.6344
      1583.9894
  -8480378.75049  -6603672.17648  19845050.4464   19845048.6884
      1713.1414
 04  9 17 21 58 14.9970000  0  7G 3G 8G28G13G19G10G27
  -1068738.24649   -826863.53946  22822651.6654   22822652.7674
      -889.5104
 -13230882.59849 -10301198.87148  20037328.2354   20037327.1034
      2818.3194
 -11771669.19949 -10714645.23447  21548913.4314   21548912.0754
      3900.8594
    393731.34849    304924.20347  20470620.2514   20470619.0094
     -1104.0554
 -10668772.32849  -8304330.04747  21455024.0874   21455021.5564
      1460.3354
  -7635069.52349  -5944865.33647  22607381.1814   22607381.5284
      1574.6414
  -8506028.22749  -6623658.77748  19840169.2204   19840167.8174
      1709.9654
 04  9 17 21 58 29.9970000  0  7G 3G 8G28G13G19G10G27
  -1055283.19949   -816379.05146  22825212.5564   22825212.6964
      -897.0034
 -13273104.75449 -10334099.25048  20029293.8454   20029292.0874
      2814.8104
 -11830110.80549 -10760184.12547  21537792.4624   21537791.3534
      3896.1074
    410396.39849    317909.93447  20473792.0714   20473790.6264
     -1111.0034
 -10690535.67249  -8321288.49647  21450882.8534   21450880.8254
      1450.8904
  -7658548.07049  -5963160.33246  22602914.0404   22602913.1924
      1565.2364
  -8531629.14849  -6643607.55948  19835297.3064   19835295.7394
      1706.7284
 04  9 17 21 58 44.9970000  0  7G 3G 8G28G13G19G10G27
  -1041713.60549   -805805.36746  22827794.8374   22827794.7354
      -904.6404
 -13315272.18749 -10366956.99248  20021269.1494   20021267.9934
      2811.1624
 -11888478.84049 -10805665.68747  21526685.9074   21526684.7714
      3891.2024
    427167.47349    330978.28147  20476983.2434   20476981.6464
     -1118.0724
 -10712155.25049  -8338134.93447  21446769.0484   21446766.6694
      1441.3054
  -7681883.51249  -5981343.80146  22598472.5484   22598473.1384
      1555.6964
  -8557179.21549  -6663516.70348  19830435.4544   19830434.2744
      1703.3384
 04  9 17 21 58 59.9970000  0  7G 3G 8G28G13G19G10G27
  -1028033.01249   -795145.13346  22830398.5094   22830398.1694
      -912.0404
 -13357387.84449 -10399774.38748  20013255.2354   20013254.2554
      2807.7104
 -11946776.22349 -10851092.20747  21515591.4384   21515590.0244
      3886.4924
    444041.45349    344126.81647  20480194.2984   20480192.9854
     -1124.9324
 -10733634.03149  -8354871.64847  21442681.8924   21442679.6184
      1431.9194
  -7705078.79749  -5999418.07447  22594059.8604   22594059.0524
      1546.3524
  -8582681.31249  -6683388.46548  19825582.5794   19825581.2434
      1700.1404
 04  9 17 21 59 14.9970000  0  7G 3G 8G28G13G19G10G27
  -1014241.40649   -784398.45746  22833023.0954   22833023.0954
      -919.4404
 -13399451.59449 -10432551.32448  20005250.5244   20005249.6184
      2804.2504
 -12005002.96549 -10896463.66847  21504511.9784   21504510.3374
      3881.7834
    461018.09449    357355.35547  20483424.6884   20483423.0284
     -1131.7764
 -10754971.97749  -8371498.60547  21438621.0094   21438618.8924
      1422.5304
  -7728134.03549  -6017383.21547  22589672.8064   22589671.5444
      1537.0164
  -8608135.46549  -6703222.87948  19820738.9784   19820737.6384
      1696.9434
 04  9 17 21 59 29.9970000  0  7G 3G 8G28G13G19G10G27
  -1000339.58649   -773565.91446  22835667.4544   22835669.5244
      -926.7884
 -13441463.63749 -10465287.98048  19997255.9154   19997255.1574
      2800.8034
 -12063159.07849 -10941780.10547  21493444.2124   21493443.2434
      3877.0744
    478096.98049    370663.56347  20486674.5714   20486673.3884
     -1138.5924
 -10776169.23449  -8388015.94547  21434587.9704   21434585.7714
      1413.1514
  -7751049.71949  -6035239.58647  22585311.8454   22585310.8644
      1527.7124
  -8633541.88349  -6723020.08648  19815904.1654   19815902.9894
      1693.7614
 04  9 17 21 59 44.9970000  0  7G 3G 8G28G13G19G10G27
   -986326.79749   -762646.87946  22838334.3994   22838335.5444
      -934.1864
 -13483422.89549 -10497983.50448  19989271.4384   19989270.1924
      2797.2844
 -12121243.41049 -10987040.60547  21482391.2514   21482389.5914
      3872.2894
    495278.91449    384052.05147  20489944.2744   20489942.9424
     -1145.4624
 -10797224.66849  -8404422.78147  21430581.0634   21430578.6854
      1403.6964
  -7773824.71549  -6052986.35546  22580977.7284   22580976.4784
      1518.3334
  -8658899.19549  -6742779.04348  19811078.9464   19811077.5834
      1690.4884
 04  9 17 21 59 59.9970000  0  7G 3G 8G28G13G19G10G27
   -972202.94949   -751641.32846  22841021.7124   22841022.3604
      -941.5904
 -13525328.90649 -10530637.53948  19981296.8604   19981295.8724
      2793.7344
 -12179255.82049 -11032245.07047  21471352.0404   21471350.6264
      3867.4944
    512563.80149    397520.78147  20493233.7124   20493232.3804
     -1152.3264
 -10818138.19549  -8420719.03147  21426601.3214   21426599.0014
      1394.2354
  -7796458.78549  -6070623.30546  22576670.9704   22576669.6814
      1508.9384
  -8684207.25049  -6762499.60948  19806262.5094   19806261.2744
      1687.2044
 04  9 17 22  0 14.9970000  0  7G 3G 8G28G13G19G10G27
   -957969.33649   -740550.23846  22843730.0634   22843731.3104
      -948.9084
 -13567182.66849 -10563250.86348  19973332.4384   19973330.9704
      2790.2514
 -12237196.93049 -11077393.94147  21460325.7594   21460325.4814
      3862.7414
    529950.78149    411069.06647  20496541.9234   20496540.8884
     -1159.1324
 -10838910.49649  -8436905.25847  21422648.5324   21422645.7554
      1384.8204
  -7818952.93049  -6088151.19147  22572389.9624   22572389.0914
      1499.6104
  -8709466.93449  -6782182.48848  19801455.9934   19801454.9744
      1683.9794
 04  9 17 22  0 29.9970000  0  7G 3G 8G28G13G19G10G27
   -943626.54849   -729374.12546  22846460.3924   22846460.7864
      -956.1864
 -13608984.70349 -10595823.87148  19965377.8534   19965376.2044
      2786.8024
 -12295067.24249 -11122487.67247  21449313.4384   21449313.1534
      3858.0214
    547439.02749    424696.24247  20499870.0634   20499868.8964
     -1165.8834
 -10859542.21549  -8452981.92247  21418722.6734   21418720.0214
      1375.4484
  -7841307.89849  -6105570.68447  22568135.5484   22568134.9784
      1490.3314
  -8734678.67649  -6801828.00048  19796658.3604   19796657.2784
      1680.7834
 04  9 17 22  0 44.9970000  0  7G 3G 8G28G13G19G10G27
   -929173.62549   -718112.07446  22849210.2984   22849210.4234
      -963.5284
 -13650733.21149 -10628355.18048  19957433.6264   19957431.9894
      2783.2344
 -12352865.21149 -11167525.03147  21438315.0244   21438313.7204
      3853.1984
    565029.75449    438403.27747  20503217.6574   20503217.0914
     -1172.7154
 -10880031.81249  -8468947.84047  21414823.3924   21414820.8064
      1365.9734
  -7863522.25449  -6122880.56647  22563908.8454   22563908.6104
      1480.9574
  -8759840.96949  -6821434.98448  19791870.4314   19791869.0404
      1677.4864
 04  9 17 22  0 59.9970000  0  7G 3G 8G28G13G19G10G27
   -914610.91449   -706764.49246  22851981.2824   22851982.0404
      -970.8474
 -13692428.44549 -10660844.97348  19949499.1184   19949497.7944
      2779.6824
 -12410591.00449 -11212506.16447  21427330.5484   21427329.1104
      3848.3864
    582722.55949    452189.84847  20506584.3454   20506583.1534
     -1179.5204
 -10900379.40649  -8484803.11347  21410951.3684   21410948.5954
      1356.5064
  -7885596.23449  -6140081.08646  22559707.6884   22559708.2984
      1471.5994
  -8784953.84849  -6841003.46548  19787091.4384   19787090.3994
      1674.1924
 04  9 17 22  1 14.9970000  0  7G 3G 8G28G13G19G10G27
   -899938.22349   -695331.30946  22854774.5244   22854774.1264
      -978.1794
 -13734069.91849 -10693292.87148  19941574.6814   19941573.7784
      2776.0984
 -12468244.10549 -11257430.62147  21416359.1424   21416358.1814
      3843.5404
    600517.80149    466056.24647  20509971.0174   20509969.7044
     -1186.3494
 -10920584.58649  -8500547.40647  21407105.8684   21407103.5994
      1347.0124
  -7907529.28149  -6157171.82047  22555534.8064   22555534.4384
      1462.2034
  -8810016.77749  -6860533.02348  19782322.3064   19782320.9234
      1670.8624
 04  9 17 22  1 29.9970000  0  7G 3G 8G28G13G19G10G27
   -885157.66449   -683813.99646  22857586.7204   22857586.7124
      -985.3714
 -13775659.27349 -10725700.16448  19933660.2744   19933659.6034
      2772.6244
 -12525825.98449 -11302299.60547  21405402.0874   21405400.5834
      3838.7924
    618413.50049    480000.93447  20513376.1344   20513374.8684
     -1193.0474
 -10940648.94549  -8516181.96547  21403288.3294   21403285.5524
      1337.6244
  -7929323.25849  -6174154.09447  22551387.2674   22551386.4234
      1452.9324
  -8835031.48849  -6880025.01648  19777561.9074   19777560.6694
      1667.6474
 04  9 17 22  1 44.9970000  0  7G 3G 8G28G13G19G10G27
   -870266.56249   -672210.66046  22860420.8294   22860419.8884
      -992.7404
 -13817193.44549 -10758064.44548  19925756.6734   19925755.7944
      2768.9454
 -12583333.64549 -11347110.75047  21394458.8374   21394457.4314
      3833.8444
    636412.53549    494026.14147  20516801.6104   20516799.7004
     -1199.9364
 -10960569.49249  -8531704.46547  21399497.4784   21399494.7084
      1328.0364
  -7950975.15249  -6191025.71946  22547267.2354   22547266.5874
      1443.4604
  -8859994.78149  -6899476.93448  19772811.5404   19772810.3104
      1664.2204
 04  9 17 22  1 59.9970000  0  7G 3G 8G28G13G19G10G27
   -855267.50849   -660523.07846  22863274.8454   22863275.3254
      -999.9374
 -13858674.61749 -10790387.43448  19917863.4234   19917862.4544
      2765.4114
 -12640769.32449 -11391865.80547  21383529.1814   21383527.9154
      3829.0454
    654512.28149    508129.82047  20520245.3844   20520244.3844
     -1206.6504
 -10980348.53149  -8547116.71147  21395733.6424   21395731.1304
      1318.6034
  -7972487.47349  -6207788.57047  22543173.0954   22543171.9814
      1434.1554
  -8884908.94549  -6918890.57048  19768070.3294   19768069.1464
      1660.9444
 04  9 17 22  2 14.9970000  0  7G 3G 8G28G13G19G10G27
   -840159.44949   -648750.55546  22866150.2594   22866150.7044
     -1007.2044
 -13900101.48449 -10822668.10948  19909980.1814   19909978.9894
      2761.7914
 -12698131.61749 -11436563.67247  21372613.4934   21372612.2744
      3824.1534
    672713.70349    522312.71947  20523709.4314   20523707.8534
     -1213.4284
 -10999984.82049  -8562417.69947  21391996.7904   21391994.9274
      1309.0864
  -7993859.01249  -6224441.71546  22539106.9934   22539106.4624
      1424.7694
  -8909772.65649  -6938264.88748  19763339.5954   19763337.8374
      1657.5814
 04  9 17 22  2 29.9970000  0  7G 3G 8G28G13G19G10G27
   -824942.54349   -636893.22746  22869046.0094   22869045.8494
     -1014.4604
 -13941473.84049 -10854906.31248  19902107.3534   19902105.8964
      2758.1574
 -12755420.40649 -11481204.26647  21361711.6814   21361710.2204
      3819.2534
    691016.77049    536574.83247  20527192.1814   20527191.2514
     -1220.2044
 -11019478.09049  -8577607.26647  21388287.5794   21388285.1264
      1299.5514
  -8015089.74249  -6240985.16846  22535066.1344   22535065.6464
      1415.3824
  -8934585.73049  -6957599.75448  19758617.0484   19758616.3684
      1654.2054
 04  9 17 22  2 44.9970000  0  7G 3G 8G28G13G19G10G27
   -809616.44948   -624950.78946  22871960.7824   22871961.9854
     -1021.7404
 -13982790.79349 -10887101.34448  19894245.1104   19894243.3414
      2754.4644
 -12812634.91849 -11525786.97347  21350823.9544   21350822.6034
      3814.3014
    709422.43449    550916.87147  20530694.9384   20530693.1304
     -1227.0444
 -11038827.63349  -8592684.84047  21384605.5244   21384602.8804
      1289.9704
  -8036179.05949  -6257418.41446  22531053.2204   22531052.4194
      1405.9544
  -8959347.35949  -6976894.53148  19753905.3454   19753904.5094
      1650.7754
 04  9 17 22  2 59.9970000  0  7G 3G 8G28G13G19G10G27
   -794182.42649   -612924.28946  22874898.8844   22874899.0564
     -1028.9354
 -14024053.56249 -10919254.14148  19886393.0404   19886391.5994
      2750.8514
 -12869776.11349 -11570312.54747  21339950.2674   21339949.4584
      3809.4134
    727928.96149    565337.52747  20534216.4704   20534215.0214
     -1233.7684
 -11058034.56249  -8607651.27747  21380950.4854   21380947.9974
      1280.4624
  -8057128.09849  -6273742.37146  22527066.1104   22527066.3064
      1396.6034
  -8984058.55549  -6996150.00448  19749203.4384   19749201.9234
      1647.4134
 04  9 17 22  3 14.9970000  0  7G 3G 8G28G13G19G10G27
   -778640.01649   -600813.42246  22877857.7354   22877856.4704
     -1036.1614
 -14065261.36349 -10951364.12548  19878551.2594   19878549.5634
      2747.1874
 -12926843.15649 -11614780.36347  21329091.0404   21329089.9854
      3804.4704
    746536.88349    579837.18447  20537757.7674   20537756.2284
     -1240.5284
 -11077098.02749  -8622505.94147  21377323.2044   21377320.4034
      1270.8984
  -8077936.15249  -6289956.42646  22523106.6574   22523106.3994
      1387.2044
  -9008718.44549  -7015365.51248  19744510.2674   19744509.4744
      1643.9934
 04  9 17 22  3 29.9970000  0  7G 3G 8G28G13G19G10G27
   -762989.24649   -588617.93446  22880835.4074   22880834.5214
     -1043.3854
 -14106413.51249 -10983430.73048  19870720.3214   19870718.8644
      2743.4774
 -12983835.52349 -11659189.96547  21318245.4314   21318244.4934
      3799.4914
    765246.25849    594415.89847  20541317.7594   20541316.4194
     -1247.2924
 -11096017.74249  -8637248.56247  21373722.7984   21373719.6344
      1261.3144
  -8098602.86749  -6306060.41047  22519175.5244   22519173.0954
      1377.7814
  -9033326.59449  -7034540.69948  19739827.6344   19739826.2004
      1640.5434
 04  9 17 22  3 44.9970000  0  7G 3G 8G28G13G19G10G27
   -747231.77349   -576339.46946  22883832.6264   22883832.9784
     -1050.4984
 -14147511.39149 -11015455.04748  19862899.4464   19862898.5404
      2739.8594
 -13040754.55949 -11703542.44147  21307414.5404   21307412.9624
      3794.6024
    784055.48449    609072.41047  20544896.8684   20544895.6064
     -1253.9484
 -11114795.02749  -8651880.24647  21370148.9784   21370146.3374
      1251.8194
  -8119129.82849  -6322055.45747  22515268.3764   22515267.6814
      1368.4644
  -9057884.21149  -7053676.50848  19735154.4314   19735153.1264
      1637.1744
 04  9 17 22  3 59.9970000  0  7G 3G 8G28G13G19G10G27
   -731366.76249   -563977.11746  22886852.6184   22886851.3964
     -1057.6674
 -14188553.65649 -11047436.03148  19855089.6884   19855088.4384
      2736.1514
 -13097598.99649 -11747836.81247  21296596.7984   21296595.1424
      3789.6294
    802965.69949    623807.61747  20548495.6574   20548494.5794
     -1260.6814
 -11133428.82849  -8666400.07847  21366603.5794   21366601.4314
      1242.2534
  -8139515.75849  -6337940.58246  22511388.8374   22511388.8334
      1359.0624
  -9082390.23849  -7072772.10948  19730490.9234   19730490.3454
      1633.7354
 04  9 17 22  4 14.9970000  0  7G 3G 8G28G13G19G10G27
   -715394.32448   -551531.02746  22889891.4934   22889891.1384
     -1064.8294
 -14229540.28149 -11079373.66448  19847289.9384   19847288.7394
      2732.4424
 -13154368.85949 -11792073.03547  21285794.3214   21285792.9114
      3784.6584
    821976.76649    638621.42247  20552113.3134   20552111.5604
     -1267.4044
 -11151918.91049  -8680807.92247  21363085.4854   21363082.6654
      1232.6724
  -8159760.73449  -6353715.89146  22507537.0324   22507536.7354
      1349.6654
  -9106844.49249  -7091827.37948  19725837.6344   19725836.5444
      1630.2844
 04  9 17 22  4 29.9970000  0  7G 3G 8G28G13G19G10G27
   -699316.72749   -539002.96146  22892951.2434   22892950.1614
     -1071.8404
 -14270473.14549 -11111269.39148  19839501.1654   19839499.7084
      2728.8584
 -13211065.87949 -11836252.49647  21275004.8374   21275004.1494
      3779.8014
    841086.53549    653512.14147  20555749.7594   20555747.9424
     -1273.9854
 -11170267.24249  -8695105.32447  21359593.6964   21359590.6144
      1223.2224
  -8179866.82449  -6369383.01246  22503710.3134   22503710.5324
      1340.4064
  -9131248.69549  -7110843.64548  19721193.7434   19721192.7044
      1626.9474
 04  9 17 22  4 44.9970000  0  7G 3G 8G28G13G19G10G27
   -683131.50449   -526391.28946  22896030.6884   22896030.7514
     -1079.0154
 -14311349.33649 -11143120.96548  19831722.3684   19831721.2244
      2725.0794
 -13267687.25849 -11880373.02747  21264230.0484   21264229.4784
      3774.7594
    860297.34449    668481.56347  20559406.1574   20559403.7744
     -1280.7214
 -11188471.21549  -8709290.25447  21356129.5714   21356126.4584
      1213.5984
  -8199831.39849  -6384939.80546  22499911.6424   22499911.3214
      1330.9724
  -9155600.28949  -7129818.90648  19716559.6734   19716558.8024
      1623.4404
 04  9 17 22  4 59.9970000  0  7G 3G 8G28G13G19G10G27
   -666841.09848   -513697.39546  22899130.8994   22899130.1264
     -1086.0274
 -14352170.76649 -11174929.87948  19823954.1264   19823953.0284
      2721.4294
 -13324234.80949 -11924436.04347  21253469.9234   21253468.3374
      3769.8374
    879607.17249    683528.16847  20563080.0954   20563078.9464
     -1287.3224
 -11206532.66449  -8723364.10247  21352691.8604   21352690.0564
      1204.0974
  -8219656.52749  -6400387.98447  22496139.6814   22496138.4274
      1321.6754
  -9179900.94949  -7148754.49248  19711935.2674   19711934.2904
      1620.0444
 04  9 17 22  5 14.9970000  0  7G 3G 8G28G13G19G10G27
   -650445.73449   -500921.81646  22902250.9464   22902251.2594
     -1093.0244
 -14392937.53949 -11206696.18748  19816196.3844   19816195.4664
      2717.7854
 -13380708.68049 -11968441.64147  21242723.0634   21242721.5134
      3764.9254
    899015.66449    698651.64847  20566773.5014   20566771.9194
     -1293.8994
 -11224451.67249  -8737326.97347  21349282.1264   21349280.2824
      1194.6014
  -8239342.34049  -6415727.58246  22492392.6574   22492391.8804
      1312.3884
  -9204150.78149  -7167650.47348  19707320.9074   19707319.7634
      1616.6554
 04  9 17 22  5 29.9970000  0  7G 3G 8G28G13G19G10G27
   -633944.36748   -488063.68446  22905392.1034   22905391.2904
     -1100.0914
 -14433648.04749 -11238418.66048  19808449.1734   19808448.2594
      2714.0344
 -13437107.36749 -12012388.64147  21231990.6814   21231989.3374
      3759.9134
    918523.98449    713852.91447  20570485.7284   20570484.5014
     -1300.5554
 -11242226.83649  -8751177.75447  21345900.1184   21345897.4744
      1185.0114
  -8258887.64849  -6430957.71547  22488674.1654   22488672.9424
      1303.0214
  -9228348.35549  -7186505.72348  19702716.3924   19702715.6464
      1613.1724
 04  9 17 22  5 44.9970000  0  7G 3G 8G28G13G19G10G27
   -617338.89549   -475124.30146  22908552.5634   22908550.7004
     -1107.0324
 -14474303.93049 -11270098.56648  19800712.9154   19800711.8454
      2710.3924
 -13493432.43049 -12056278.28547  21221272.1734   21221271.0834
      3755.0044
    938130.38749    729130.60547  20574216.7354   20574215.2204
     -1307.0934
 -11259859.77049  -8764917.69147  21342544.3844   21342541.6884
      1175.5294
  -8278294.09849  -6446079.63747  22484980.6574   22484979.7744
      1293.7634
  -9252495.00049  -7205321.29348  19698121.5484   19698120.1734
      1609.7764
 04  9 17 22  5 59.9970000  0  7G 3G 8G28G13G19G10G27
   -600628.15248   -462103.05546  22911729.6884   22911730.3374
     -1114.0494
 -14514903.51249 -11301734.60948  19792987.2044   19792985.6614
      2706.6394
 -13549682.12149 -12100109.19147  21210568.6184   21210567.3294
      3749.9794
    957836.10549    744485.69147  20577966.6424   20577965.0054
     -1313.7154
 -11277348.90649  -8778545.60947  21339216.9154   21339214.0834
      1165.9424
  -8297560.33249  -6461092.26247  22481314.5874   22481314.7044
      1284.4164
  -9276589.28549  -7224096.06248  19693536.3454   19693535.1614
      1606.2864
 04  9 17 22  6 14.9970000  0  7G 3G 8G28G13G19G10G27
   -583814.473 8                  22914928.853
     -1120.912
 -14555448.78149 -11333328.32048  19785271.7824   19785270.3374
      2703.0184
 -13605858.66449 -12143883.08247  21199878.2674   21199876.4074
      3745.1034
    977638.79349    759916.32847  20581734.7824   20581733.9424
     -1320.1794
 -11294696.45749  -8792063.18747  21335915.6884   21335912.7984
      1156.5034
  -8316688.28149  -6475997.18747  22477673.9464   22477674.7244
      1275.1974
  -9300633.19149  -7242831.57448  19688961.2984   19688959.3644
      1602.9274
 04  9 17 22  6 29.9970000  0  7G 3G 8G28G13G19G10G27
                                  22918145.993
     -1127.774
 -14595938.41449 -11364878.67648  19777566.9544   19777565.4854
      2699.3094
 -13661960.37949 -12187598.70747  21189202.2124   21189200.5914
      3740.1144
    997539.68049    775423.50047  20585521.7044   20585520.9664
     -1326.7264
 -11311900.94549  -8805469.28947  21332641.5094   21332638.9664
      1146.9664
  -8335676.76649  -6490793.42647  22474060.5094   22474061.0134
      1265.8994
  -9324625.09449  -7261526.56248  19684395.6494   19684394.4194
      1599.4604
 04  9 17 22  6 44.9970000  0  7G 3G 8G28G13G19G10G27
   -549875.93018                  22921389.399
     -1134.637
 -14636372.98049 -11396386.13348  19769872.4464   19769870.8724
      2695.6384
 -13717988.03549 -12231256.59447  21178541.1104   21178539.2474
      3735.1774
   1017537.89149    791006.49247  20589327.2204   20589326.4544
     -1333.2144
 -11328963.08249  -8818764.45747  21329394.7284   21329391.6774
      1137.4764
  -8354526.64549  -6505481.64147  22470474.2904   22470474.1464
      1256.6594
  -9348565.70349  -7280181.58648  19679839.6964   19679838.2714
      1596.0414
 04  9 17 22  6 59.9970000  0  7G 3G 8G28G13G19G10G27
   -532752.602 8                  22924648.392
     -1141.555
 -14676752.53149 -11427850.71548  19762188.2354   19762187.3604
      2691.9704
 -13773941.65249 -12274856.82047  21167892.8214   21167891.9784
      3730.2414
   1037633.01649    806665.00847  20593151.4704   20593150.4464
     -1339.6754
 -11345882.99249  -8831948.80947  21326174.9624   21326172.7044
      1127.9944
  -8373238.21949  -6520062.09846  22466912.9934   22466914.2784
      1247.4384
  -9372455.12149  -7298796.71948  19675293.5094   19675292.4354
      1592.6284
 04  9 17 22  7 14.9970000  0  7G 3G 8G28G13G19G10G27
   -515526.152 8                  22927923.688
     -1148.430
 -14717076.07449 -11459271.66048  19754514.9464   19754513.6264
      2688.2364
 -13829820.25449 -12318398.55947  21157259.8764   21157258.6854
      3725.2404
   1057825.62549    822399.48047  20596993.5014   20596992.5324
     -1346.1744
 -11362659.94949  -8845021.73847  21322982.5634   21322980.1224
      1118.4644
  -8391810.65649  -6534534.14546  22463378.6494   22463377.4114
      1238.1624
  -9396292.37149  -7317371.20348  19670757.5484   19670756.0994
      1589.1504
 04  9 17 22  7 29.9970000  0  7G 3G 8G28G13G19G10G27
   -498195.867 8                  22931223.103
     -1155.352
 -14757342.59449 -11490648.16448  19746852.2434   19746851.4744
      2684.4354
 -13885622.93449 -12361881.12947  21146641.2984   21146639.8644
      3720.1794
   1078116.38749    838210.44947  20600855.3374   20600854.0244
     -1352.7174
 -11379292.94949  -8857982.51247  21319817.6654   21319814.7284
      1108.8674
  -8410243.08649  -6548897.12147  22459872.2124   22459870.8804
      1228.8294
  -9420076.42249  -7335904.23048  19666231.4544   19666230.2824
      1585.6034
 04  9 17 22  7 44.9970000  0  7G 3G 8G28G13G19G10G27
   -480763.422 8                  22934540.142
     -1162.163
 -14797553.24649 -11521981.13348  19739200.8684   19739199.4464
      2680.7104
 -13941350.75449 -12405305.37947  21136036.1814   21136034.6574
      3715.1884
   1098504.00449    854096.87947  20604735.2514   20604733.3454
     -1359.1744
 -11395783.05549  -8870831.95747  21316679.2744   21316676.8644
      1099.3404
  -8428536.89549  -6563152.02046  22456390.4464   22456389.1104
      1219.5874
  -9443808.39549  -7354396.68048  19661715.8294   19661714.1884
      1582.1324
 04  9 17 22  7 59.9970000  0  7G 3G 8G28G13G19G10G27
   -463228.039 8                  22937877.165
     -1169.026
 -14837706.92649 -11553269.71148  19731559.7354   19731558.6614
      2676.9124
 -13997002.84849 -12448670.62947  21125446.2434   21125444.2824
      3710.1404
   1118989.16849    870059.33647  20608633.0714   20608631.7084
     -1365.6784
 -11412129.49249  -8883569.44547  21313568.6344   21313566.2284
      1089.7634
  -8446691.33649  -6577298.32847  22452935.5634   22452935.2354
      1210.2964
  -9467487.37149  -7372847.82848  19657209.6654   19657208.4074
      1578.5984
 04  9 17 22  8 14.9970000  0  7G 3G 8G28G13G19G10G27
   -445592.105 8                  22941234.626
     -1175.729
 -14877805.73849 -11584515.53148  19723929.1344   19723927.9854
      2673.2544
 -14052581.14149 -12491978.37547  21114870.1884   21114868.5634
      3705.2204
   1139569.54349    886095.95347  20612549.5244   20612548.8134
     -1372.0254
 -11428334.44549  -8896196.67647  21310484.8214   21310482.3604
      1080.3304
  -8464708.39849  -6591337.64147  22449507.2354   22449507.4934
      1201.1384
  -9491115.24649  -7391259.16448  19652713.4234   19652712.4974
      1575.1924
 04  9 17 22  8 29.9970000  0  7G 3G 8G28G13G19G10G27
   -427852.859 8                  22944609.204
     -1182.616
 -14917846.43449 -11615716.08248  19716309.8294   19716308.4974
      2669.3804
 -14108082.30549 -12535226.01247  21104308.0094   21104306.7744
      3700.0784
   1160248.03549    902209.03947  20616484.1494   20616483.5134
     -1378.5664
 -11444394.59849  -8908711.06647  21307429.2044   21307425.5674
      1070.6774
  -8482585.14149  -6605267.57446  22446104.6034   22446105.0364
      1191.7834
  -9514688.77349  -7409628.15248  19648227.7514   19648226.4744
      1571.5684
 04  9 17 22  8 44.9970000  0  7G 3G 8G28G13G19G10G27
   -410012.332 8                  22948002.540
     -1189.368
 -14957830.78949 -11646872.73448  19708700.6654   19708699.6614
      2665.6244
 -14163508.18749 -12578415.00847  21093761.0094   21093759.4424
      3695.0594
   1181022.61349    918396.99247  20620437.5324   20620436.2984
     -1384.9724
 -11460311.80549  -8921114.07847  21304400.5954   21304396.7204
      1061.1474
  -8500323.38349  -6619089.55946  22442729.1034   22442729.3064
      1182.5494
  -9538209.76649  -7427956.20748  19643751.6574   19643750.5324
      1568.0664
 04  9 17 22  8 59.9970000  0  7G 3G 8G28G13G19G10G27
                                  22951416.446
     -1196.121
 -14997759.23049 -11677985.78948  19701102.6104   19701101.4114
      2661.8964
 -14218859.14849 -12621545.60247  21083228.2204   21083226.3174
      3690.0644
   1201892.55549    934659.26647  20624409.0244   20624407.2904
     -1391.3294
 -11476086.57449  -8933406.09847  21301398.5324   21301395.1534
      1051.6514
  -8517923.69949  -6632804.15647  22439380.3764   22439381.1614
      1173.3544
  -9561678.56249  -7446243.57448  19639285.6884   19639284.8254
      1564.5864
 04  9 17 22  9 14.9960000  0  6G 8G28G13G19G10G27
 -15037628.76249 -11709052.96148  19693516.0124   19693514.7074
      2657.9694
 -14274131.35949 -12664614.83247  21072710.1214   21072708.6294
      3684.8144
   1222856.30549    950994.63347  20628398.4814   20628397.0044
     -1397.5834
 -11491717.88749  -8945586.33647  21298424.0274   21298420.7114
      1042.0884
  -8535385.02749  -6646410.37146  22436057.6294   22436057.7664
      1164.0894
  -9585093.34049  -7464488.86748  19634830.3094   19634829.0314
      1560.9854
 04  9 17 22  9 29.9960000  0  6G 8G28G13G19G10G27
 -15077443.12149 -11740077.12948  19685939.1914   19685938.7114
      2654.2914
 -14329330.59049 -12707627.19547  21062205.8564   21062204.6604
      3679.9494
   1243917.99649    967406.31647  20632406.3244   20632404.8594
     -1404.1134
 -11507206.29749  -8957655.21947  21295476.0904   21295473.2734
      1032.5614
  -8552708.31249  -6659909.05947  22432761.3324   22432760.3284
      1154.8864
  -9608455.78949  -7482693.37148  19630384.6604   19630383.3284
      1557.4974
 04  9 17 22  9 44.9960000  0  6G 8G28G13G19G10G27
 -15117202.37149 -11771058.35948  19678373.1994   19678372.2464
      2650.6174
 -14384456.11749 -12750582.14847  21051715.9344   21051714.2234
      3675.0354
   1265073.16049    983890.83647  20636431.9964   20636430.8054
     -1410.3444
 -11522553.65649  -8969614.19547  21292555.7384   21292553.2464
      1023.1574
  -8569895.43049  -6673301.59046  22429489.8094   22429490.7154
      1145.8084
  -9631767.05149  -7500858.00048  19625948.0514   19625947.4884
      1554.0844
 04  9 17 22  9 59.9960000  0  6G 8G28G13G19G10G27
 -15156904.20349 -11801994.84848  19670818.2154   19670817.3984
      2646.7894
 -14439505.33649 -12793477.61747  21041241.0274   21041238.8524
      3669.9484
   1286323.99649   1000449.91047  20640475.7704   20640474.6994
     -1416.7224
 -11537757.50849  -8981461.34847  21289662.6764   21289660.1604
      1013.5904
  -8586944.02049  -6686586.22746  22426246.1914   22426246.6914
      1136.5734
  -9655024.66449  -7518980.81648  19621522.7934   19621521.8634
      1550.5084
 04  9 17 22 10 14.9960000  0  6G 8G28G13G19G10G27
 -15196548.94949 -11832886.85548  19663274.1914   19663273.0394
      2642.9834
 -14494478.59849 -12836313.91047  21030779.6064   21030777.9694
      3664.8844
   1307669.76249   1017082.96147  20644537.5274   20644536.7114
     -1423.0514
 -11552818.44549  -8993197.12547  21286796.4884   21286794.2704
      1004.0634
  -8603854.75449  -6699763.42646  22423028.1524   22423027.6914
      1127.3824
  -9678229.02049  -7537062.13748  19617106.8634   19617105.8244
      1546.9574
 04  9 17 22 10 29.9960000  0  6G 8G28G13G19G10G27
 -15236134.99649 -11863733.12548  19655741.7154   19655740.1764
      2639.0704
 -14549374.31249 -12879089.77747  21020333.2384   21020331.4144
      3659.7144
   1329111.55949   1033790.81647  20648618.0824   20648617.3484
     -1429.4534
 -11567734.82849  -9004820.26647  21283958.3564   21283955.1454
       994.4264
  -8620626.02749  -6712831.96946  22419837.6294   22419835.9734
      1118.0854
  -9701378.44149  -7555100.64548  19612701.8954   19612700.8284
      1543.2954
 04  9 17 22 10 44.9960000  0  7G 3G 8G28G13G19G10G27
     21615.82019                  22975851.668

 -15275666.96949 -11894537.26248  19648218.7624   19648217.2584
      2635.4654
 -14604197.21149 -12921808.89147  21009900.5274   21009899.0704
      3654.8604
   1350644.60949   1050569.78947  20652715.7154   20652714.4574
     -1435.5374
 -11582511.53549  -9016334.57847  21281146.2314   21281143.4454
       985.1144
  -8637262.89549  -6725795.78147  22416671.5044   22416670.1374
      1109.1244
  -9724477.61349  -7573100.01248  19608306.5274   19608305.0204
      1539.9454
 04  9 17 22 10 59.9960000  0  7G 3G 8G28G13G19G10G27
     40352.000 9                  22979415.793
     -1249.079
 -15315141.35949 -11925296.52348  19640706.7234   19640705.4964
      2631.6264
 -14658943.91449 -12964468.64147  20999482.2934   20999481.2154
      3649.7804
   1372272.05149   1067422.31347  20656831.7074   20656830.1024
     -1441.8294
 -11597145.15649  -9027737.40247  21278361.0124   21278358.9184
       975.5754
  -8653762.08249  -6738652.31646  22413531.2314   22413530.2734
      1099.9464
  -9747523.00449  -7591057.45348  19603920.6294   19603919.5044
      1536.3594
 04  9 17 22 11 14.9960000  0  7G 3G 8G28G13G19G10G27
     59187.141 9                  22982999.137
     -1255.676
 -15354557.56649 -11956010.44948  19633206.2704   19633205.2934
      2627.7474
 -14713613.85249 -13007068.58647  20989079.7774   20989077.2344
      3644.6634
   1393994.12149   1084348.59047  20660965.0354   20660963.5434
     -1448.1384
 -11611635.34049  -9039028.44147  21275604.5204   21275600.8484
       966.0124
  -8670123.19149  -6751401.22347  22410418.1454   22410416.9884
      1090.7414
  -9770514.07049  -7608972.57848  19599546.0514   19599544.5314
      1532.7384
 04  9 17 22 11 29.9960000  0  7G 3G 8G28G13G19G10G27
     78120.625 8                  22986601.910
     -1262.232
 -15393915.89849 -11986679.27348  19625716.3634   19625715.5044
      2623.8894
 -14768207.20749 -13049608.84847  20978690.7154   20978688.7934
      3639.5574
   1415810.28149   1101348.16447  20665116.3634   20665115.8094
     -1454.4114
 -11625982.22349  -9050207.81647  21272874.0434   21272870.6294
       956.4594
  -8686346.55149  -6764042.84446  22407331.2934   22407328.9654
      1081.5574
  -9793451.12149  -7626845.60948  19595180.9654   19595179.7584
      1529.1374
 04  9 17 22 11 44.9960000  0  7G 3G 8G28G13G19G10G27
     97152.89518                  22990223.816
     -1268.789
 -15433215.76649 -12017302.54748  19618237.4184   19618236.8754
      2619.9914
 -14822723.29349 -13092088.89147  20968315.9414   20968314.7114
      3634.4064
   1437720.87549   1118421.32847  20669285.7934   20669284.9184
     -1460.7064
 -11640185.34049  -9061275.18047  21270171.0594   21270168.5084
       946.8744
  -8702431.79349  -6776576.82847  22404270.4264   22404269.6334
      1072.3494
  -9816333.41049  -7644675.96148  19590826.4734   19590825.5354
      1525.4864
 04  9 17 22 11 59.9960000  0  7G 3G 8G28G13G19G10G27
    116282.734 8                  22993864.106
     -1275.323
 -15472457.59449 -12047880.58248  19610770.6294   19610769.4184
      2616.1224
 -14877162.80949 -13134509.26247  20957956.5354   20957955.6484
      3629.3014
   1459724.94949   1135567.33247  20673473.3634   20673471.8364
     -1466.9384
 -11654245.42249  -9072231.07847  21267496.0514   21267493.1914
       937.3394
  -8718379.69549  -6789003.76247  22401234.1134   22401234.5784
      1063.1934
  -9839161.48049  -7662464.06648  19586482.6684   19586481.4814
      1521.8714
 04  9 17 22 12 14.9960000  0  7G 3G 8G28G13G19G10G27
    135510.80518                  22997521.637
     -1281.857
 -15511640.65649 -12078412.84048  19603314.3094   19603313.1254
      2612.2044
 -14931524.94549 -13176869.35247  20947612.5354   20947609.9184
      3624.1424
   1481823.00849   1152786.57047  20677678.0594   20677676.9104
     -1473.2044
 -11668161.85949  -9083075.03947  21264847.1064   21264844.5824
       927.7634
  -8734189.73849  -6801323.30146  22398226.8244   22398226.0164
      1054.0034
  -9861934.60249  -7680209.36348  19582149.2074   19582148.0904
      1518.2084
 04  9 17 22 12 29.9960000  0  6G 8G28G13G19G10G27
 -15550766.08249 -12108900.18448  19595869.2234   19595867.8364
      2608.3624
 -14985810.88349 -13219170.06647  20937281.8164   20937280.3754
      3619.0634
   1504013.62549   1170077.93447  20681901.0514   20681900.4694
     -1479.3744
 -11681935.90249  -9093808.07047  21262225.9264   21262223.6994
       918.2704
  -8749863.21149  -6813536.36746  22395244.1914   22395244.0164
      1044.8984
  -9884653.90249  -7697912.71948  19577825.2934   19577824.2464
      1514.6204
 04  9 17 22 12 44.9960000  0  6G 8G28G13G19G10G27
 -15589833.37149 -12139342.22348  19588434.6764   19588433.5904
      2604.4864
 -15040020.25849 -13261411.10547  20926965.8954   20926965.1804
      3613.9584
   1526296.71549   1187441.33647  20686141.4024   20686140.6334
     -1485.5394
 -11695567.29349  -9104429.92247  21259632.0744   21259629.1094
       908.7594
  -8765400.03949  -6825643.00046  22392287.2234   22392287.6214
      1035.7894
  -9907319.01249  -7715573.85248  19573512.6684   19573511.3524
      1511.0074
 04  9 17 22 12 59.9960000  0  6G 8G28G13G19G10G27
 -15628842.27049 -12169738.76648  19581011.4814   19581010.5864
      2600.5934
 -15094152.58249 -13303592.14147  20916664.7314   20916663.2584
      3608.8224
   1548672.62149   1204877.09447  20690399.3714   20690398.4694
     -1491.7274
 -11709055.65649  -9114940.32847  21257065.1844   21257062.2664
       899.2244
  -8780799.80149  -6837642.84046  22389356.2544   22389356.9694
      1026.6514
  -9929929.43049  -7733192.35948  19569210.4814   19569209.0274
      1507.3614
 04  9 17 22 13 14.9960000  0  6G 8G28G13G19G10G27
 -15667792.06249 -12200089.25048  19573599.6454   19573598.5554
      2596.6534
 -15148207.33649 -13345712.71947  20906378.7934   20906377.1684
      3603.6504
   1571141.41049   1222385.22347  20694675.4494   20694674.7584
     -1497.9194
 -11722400.51249  -9125338.92647  21254525.5904   21254523.2974
       889.6574
  -8796062.32049  -6849535.73046  22386451.9104   22386452.1724
      1017.5014
  -9952484.56249  -7750767.78548  19564917.8794   19564916.9654
      1503.6764
 04  9 17 22 13 29.9960000  0  6G 8G28G13G19G10G27
 -15706678.34849 -12230390.25448  19566200.0354   19566198.9494
      2592.4194
 -15202180.28949 -13387769.52347  20896107.2384   20896106.8984
      3598.1974
   1593707.27349   1239968.97347  20698969.3634   20698968.2424
     -1504.3914
 -11735597.73049  -9135622.46947  21252014.1764   21252011.8134
       879.8154
  -8811183.44549  -6861318.45346  22383575.4964   22383574.7894
      1008.0754
  -9974980.19549  -7768296.85948  19560636.8564   19560636.0664
      1499.7094
 04  9 17 22 13 44.9960000  0  6G 8G28G13G19G10G27
 -15745504.09849 -12260644.08648  19558811.3324   19558810.5044
      2588.3834
 -15256074.12949 -13429764.71547  20885852.6454   20885850.8134
      3592.9234
   1616367.06349   1257625.92247  20703281.5124   20703279.8484
     -1510.6534
 -11748650.05949  -9145793.12547  21249530.2934   21249527.9614
       870.1554
  -8826166.03549  -6872993.18746  22380723.7544   22380723.4064
       998.8394
  -9997418.80949  -7785781.49248  19556366.9814   19556365.9454
      1495.9084
 04  9 17 22 13 59.9960000  0  6G 8G28G13G19G10G27
 -15784265.74649 -12290847.96548  19551435.4814   19551434.2384
      2584.1104
 -15309885.73449 -13471695.79747  20875612.6764   20875610.6214
      3587.4404
   1639123.57849   1275358.26647  20707611.6064   20707610.7734
     -1517.1014
 -11761554.49649  -9155848.52347  21247075.4414   21247072.2544
       860.2964
  -8841007.22349  -6884557.75847  22377900.1524   22377898.9614
       989.4134
 -10019797.41049  -7803219.36348  19552108.7074   19552107.4344
      1491.9074
 04  9 17 22 14 14.9960000  0  6G 8G28G13G19G10G27
 -15822964.48449 -12321002.82048  19544071.6214   19544070.0234
      2579.9164
 -15363615.87549 -13513563.43747  20865387.9734   20865386.0784
      3582.0094
   1661975.73049   1293165.09847  20711960.7934   20711959.4344
     -1523.4774
 -11774312.07449  -9165789.49647  21244647.5744   21244644.6294
       850.5054
  -8855707.96949  -6896012.92647  22375102.2854   22375102.6064
       980.0504
 -10042116.80549  -7820611.11348  19547861.2234   19547859.8954
      1487.9604
 04  9 17 22 14 29.9960000  0  6G 8G28G13G19G10G27
 -15861599.33649 -12351107.88748  19536719.3164   19536718.1254
      2575.6574
 -15417263.76249 -13555366.97747  20855178.9104   20855177.6214
      3576.5264
   1684923.87149   1311046.75447  20716327.5274   20716326.1764
     -1529.8764
 -11786922.02749  -9175615.44147  21242247.8874   21242245.1454
       840.6644
  -8870267.80149  -6907358.27347  22372331.8164   22372332.4414
       970.6554
 -10064375.98049  -7837955.91448  19543625.8874   19543624.6884
      1483.9454
 04  9 17 22 14 44.9960000  0  6G 8G28G13G19G10G27
 -15900172.35949 -12381164.78948  19529379.2854   19529378.0044
      2571.5354
 -15470831.66049 -13597108.18047  20844985.6214   20844984.2894
      3571.1934
   1707965.65249   1329001.35947  20720712.1764   20720711.0044
     -1536.1194
 -11799386.63349  -9185328.13747  21239875.8484   21239873.5234
       830.9744
  -8884689.05149  -6918595.61346  22369587.9344   22369586.7074
       961.4174
 -10086577.22349  -7855255.59048  19539401.0434   19539399.8284
      1480.0834
 04  9 17 22 14 59.9960000  0  6G 8G28G13G19G10G27
 -15938685.43049 -12411174.97748  19522050.2774   19522049.1254
      2567.5384
 -15524321.38749 -13638788.45347  20834806.7154   20834805.3324
      3565.9824
   1731099.06349   1347027.36347  20725113.8564   20725113.3094
     -1542.2274
 -11811707.86749  -9194929.09047  21237530.9494   21237528.6914
       821.4164
  -8898973.69549  -6929726.50847  22366869.1454   22366869.2624
       952.3104
 -10108722.30949  -7872511.50048  19535186.9964   19535185.8014
      1476.3394
 04  9 17 22 15 14.9960000  0  6G 8G28G13G19G10G27
 -15977136.41449 -12441136.77348  19514733.5744   19514732.5354
      2563.3994
 -15577730.91049 -13680406.23847  20824642.7854   20824641.7074
      3560.6354
   1754325.75049   1365126.04747  20729534.2854   20729533.7854
     -1548.4464
 -11823883.75449  -9204416.80147  21235214.3244   21235211.9494
       811.7264
  -8913120.00449  -6940749.61746  22364177.2624   22364177.2034
       943.0874
 -10130809.18749  -7889722.06648  19530983.8164   19530982.5204
      1472.4594
 04  9 17 22 15 29.9960000  0  6G 8G28G13G19G10G27
 -16015525.85549 -12471050.62948  19507428.0744   19507427.3134
      2559.2964
 -15631060.80149 -13721961.98047  20814494.3874   20814493.4454
      3555.3264
   1777644.91849   1383296.80147  20733971.7544   20733970.9964
     -1554.6114
 -11835914.98849  -9213791.79747  21232924.5514   21232922.4924
       802.0824
  -8927128.71949  -6951665.50447  22361510.7774   22361511.4264
       933.9144
 -10152838.36749  -7906887.66048  19526791.8324   19526790.5044
      1468.6124
 04  9 17 22 15 44.9960000  0  6G 8G28G13G19G10G27
 -16053853.97749 -12500916.69148  19500134.3094   19500133.3444
      2555.2084
 -15684311.21949 -13763455.78147  20804361.3404   20804360.3094
      3550.0284
   1801056.01249   1401539.19147  20738426.3164   20738425.6134
     -1560.7404
 -11847801.99649  -9223054.40247  21230663.0124   21230660.7194
       792.4674
  -8941000.27749  -6962474.52046  22358871.4104   22358872.0744
       924.7714
 -10174810.18749  -7924008.55948  19522610.7074   19522609.1884
      1464.7884
 04  9 17 22 15 59.9960000  0  6G 8G28G13G19G10G27
 -16092120.36749 -12530734.65248  19492852.8324   19492851.0944
      2551.0934
 -15737481.93749 -13804887.49647  20794243.3634   20794241.7544
      3544.7154
   1824558.81349   1419853.02747  20742899.2074   20742898.3754
     -1566.8534
 -11859544.44549  -9232204.37147  21228428.4574   21228426.2154
       782.8304
  -8954734.39149  -6973176.47747  22356259.4264   22356258.2464
       915.6084
 -10196724.13749  -7941084.37148  19518440.4884   19518438.9884
      1460.9304
 04  9 17 22 16 14.9960000  0  6G 8G28G13G19G10G27
 -16130325.66449 -12560505.02048  19485582.4734   19485581.2384
      2547.0204
 -15790573.29349 -13846257.37947  20784140.4574   20784138.9184
      3539.4244
   1848152.75049   1438237.87547  20747388.9264   20747388.3324
     -1572.9294
 -11871142.91049  -9241242.13747  21226221.2774   21226218.9884
       773.2314
  -8968331.82049  -6983771.89146  22353671.4344   22353669.6994
       906.4954
 -10218580.46549  -7958115.27748  19514281.8714   19514280.5514
      1457.0894
 04  9 17 22 16 29.9960000  0  6G 8G28G13G19G10G27
 -16168470.03549 -12590227.91048  19478323.8714   19478322.2664
      2542.9584
 -15843585.69149 -13887565.71947  20774052.2774   20774050.7234
      3534.1604
   1871837.14149   1456693.21147  20751895.9104   20751895.6764
     -1578.9594
 -11882597.86749  -9250168.09447  21224041.8014   21224038.4144
       763.6644
  -8981793.12149  -6994261.20346  22351109.1994   22351108.6214
       897.4204
 -10240379.65249  -7975101.66048  19510133.2384   19510131.8134
      1453.2794
 04  9 17 22 16 44.9960000  0  6G 8G28G13G19G10G27
 -16206553.04749 -12619902.97748  19471077.0124   19471075.5664
      2538.8674
 -15896518.76249 -13928812.25847  20763979.6844   20763977.9654
      3528.8714
   1895612.12149   1475219.15247  20756420.1454   20756419.1884
     -1584.9994
 -11893908.98849  -9258981.95747  21221889.4024   21221885.8444
       754.0754
  -8995118.03149  -7004644.30146  22348574.1844   22348572.8714
       888.3274
 -10262121.35549  -7992043.24648  19505995.9344   19505994.3244
      1449.4474
 04  9 17 22 16 59.9960000  0  6G 8G28G13G19G10G27
 -16244574.06649 -12649529.74248  19463841.4964   19463840.2624
      2534.7354
 -15949371.85249 -13969996.46147  20753922.0744   20753920.2034
      3523.5394
   1919477.94949   1493815.86747  20760961.7154   20760960.5434
     -1591.0554
 -11905075.93449  -9267683.48047  21219763.7464   21219760.9814
       744.4634
  -9008306.27049  -7014920.86346  22346064.0274   22346063.1134
       879.2164
 -10283804.86749  -8008939.50048  19501869.9104   19501867.9694
      1445.5674
 04  9 17 22 17 14.9960000  0  6G 8G28G13G19G10G27
 -16282533.21549 -12679108.30148  19456618.5124   19456617.3134
      2530.6104
 -16002145.31249 -14011118.60247  20743879.4654   20743877.8284
      3518.2314
   1943434.14849   1512483.00847  20765520.8014   20765519.4024
     -1597.0804
 -11916099.05949  -9276272.93447  21217666.6764   21217663.3364
       734.8754
  -9021358.49649  -7025091.40646  22343579.7234   22343580.0704
       870.1484
 -10305430.43449  -8025790.58248  19497754.4104   19497752.8984
      1441.7044
 04  9 17 22 17 29.9960000  0  6G 8G28G13G19G10G27
 -16320430.41049 -12708638.57848  19449406.7544   19449405.7624
      2526.4804
 -16054838.80949 -14052178.44947  20733852.2854   20733850.9224
      3512.9004
   1967480.52749   1531220.41447  20770096.2544   20770095.6174
     -1603.0924
 -11926978.19949  -9284750.20747  21215595.5594   21215593.1914
       725.2764
  -9034274.47349  -7035155.80146  22341122.1064   22341122.3244
       861.0654
 -10326997.61349  -8042596.18748  19493650.4964   19493649.3204
      1437.8124
 04  9 17 22 17 44.9960000  0  6G 8G28G13G19G10G27
 -16358264.53549 -12738119.71548  19442207.1064   19442206.0124
      2522.2754
 -16107451.48449 -14093175.32847  20723840.4964   20723839.1994
      3507.5124
   1991617.60949   1550028.50447  20774689.8954   20774688.9494
     -1609.1394
 -11937712.60249  -9293114.69547  21213553.2154   21213550.9924
       715.6274
  -9047053.46149  -7045113.50447  22338690.5744   22338690.3364
       851.9334
 -10348505.66049  -8059355.71148  19489557.7074   19489556.4694
      1433.8704
 04  9 17 22 17 59.9960000  0  6G 8G28G13G19G10G27
 -16396037.50049 -12767553.18748  19435019.3794   19435018.2584
      2518.1984
 -16159985.32049 -14134110.76647  20713842.9884   20713841.7274
      3502.2564
   2015843.28549   1568905.62547  20779299.4574   20779297.9614
     -1615.0454
 -11948304.41849  -9301368.07047  21211538.2314   21211536.0664
       706.1214
  -9059697.78549  -7054966.24647  22336284.5354   22336285.9884
       842.9554
 -10369956.47749  -8076070.62548  19485475.6064   19485474.7194
      1430.0544
 04  9 17 22 18 14.9960000  0  6G 8G28G13G19G10G27
 -16433748.96949 -12796938.75448  19427842.8404   19427841.7734
      2514.0984
 -16212440.20349 -14174984.68747  20703861.7544   20703860.1844
      3496.9924
   2040157.32449   1587851.60247  20783926.2624   20783925.0084
     -1620.9364
 -11958753.58249  -9309510.28147  21209550.0744   21209547.6764
       696.6114
  -9072207.47749  -7064714.06646  22333903.4104   22333904.0434
       833.9794
 -10391349.77349  -8092740.72748  19481404.4654   19481403.4734
      1426.2204
 04  9 17 22 18 29.9960000  0  6G 8G28G13G19G10G27
 -16471398.55149 -12826276.08648  19420678.2154   19420677.0634
      2509.9724
 -16264815.71549 -14215796.73847  20693894.8714   20693893.4814
      3491.7014
   2064559.82049   1606866.50847  20788569.8014   20788568.7384
     -1626.8334
 -11969059.69549  -9317541.02347  21207588.1764   21207586.0664
       687.0744
  -9084582.15249  -7074356.71947  22331550.3014   22331549.3874
       824.9784
 -10412685.17249  -8109365.72348  19477344.6844   19477343.5824
      1422.3604
 04  9 17 22 18 44.9960000  0  6G 8G28G13G19G10G27
 -16508987.14549 -12855565.89848  19413525.6994   19413524.1454
      2505.9064
 -16317112.52049 -14256547.47347  20683942.9264   20683941.4774
      3486.4544
   2089049.85249   1625949.60947  20793230.9414   20793229.3874
     -1632.6694
 -11979223.57049  -9325460.93747  21205654.1294   21205651.7234
       677.5924
  -9096822.96949  -7083895.01247  22329220.5124   22329219.5784
       816.0544
 -10433963.31649  -8125946.09448  19473295.4024   19473294.0664
      1418.5434
 04  9 17 22 18 59.9960000  0  6G 8G28G13G19G10G27
 -16546514.62549 -12884808.09048  19406384.3094   19406382.6914
      2501.8324
 -16369330.58249 -14297236.85547  20674006.5744   20674004.6334
      3481.2044
   2113627.14849   1645100.72347  20797907.4024   20797906.9964
     -1638.4864
 -11989245.45749  -9333270.20747  21203747.2774   21203744.8244
       668.1264
  -9108930.03949  -7093329.08647  22326916.0824   22326916.1064
       807.1384
 -10455184.13349  -8142481.80948  19469257.7774   19469256.1484
      1414.7214
 04  9 17 22 19 14.9960000  0  6G 8G28G13G19G10G27
 -16583978.51249 -12914000.73048  19399254.9574   19399253.7584
      2497.5924
 -16421467.57849 -14337863.07847  20664085.0824   20664083.3484
      3475.8004
   2138293.85949   1664321.50447  20802601.0984   20802599.9534
     -1644.4474
 -11999123.00449  -9340967.00847  21201867.9024   21201865.4734
       658.5034
  -9120901.21149  -7102657.33247  22324638.9184   22324638.6374
       798.0784
 -10476345.14849  -8158970.90248  19465230.6374   19465229.6064
      1410.7344
 04  9 17 22 19 29.9960000  0  6G 8G28G13G19G10G27
 -16621379.90649 -12943144.67648  19392137.9494   19392136.7274
      2493.4264
 -16473524.78549 -14378427.12147  20654178.7314   20654177.8484
      3470.4804
   2163048.17649   1683610.55547  20807311.7384   20807310.6334
     -1650.2884
 -12008857.65249  -9348552.43747  21200015.6454   21200012.6484
       648.9774
  -9132738.04749  -7111880.85246  22322386.2544   22322385.8634
       789.1224
 -10497447.72349  -8175414.46948  19461215.0204   19461213.6844
      1406.8384
 04  9 17 22 19 44.9960000  0  6G 8G28G13G19G10G27
 -16658720.46149 -12972241.21148  19385032.1764   19385031.2854
      2489.3704
 -16525503.69549 -14418930.14847  20644287.7854   20644286.3204
      3465.2614
   2187888.38349   1702966.53147  20812038.9104   20812037.5124
     -1656.0144
 -12018450.97749  -9356027.75847  21198189.5434   21198186.7424
       639.5554
  -9144442.08249  -7121000.89146  22320158.9654   22320157.4184
       780.2694
 -10518493.08649  -8191813.45748  19457210.1454   19457208.9694
      1403.0244
 04  9 17 22 19 59.9960000  0  6G 8G28G13G19G10G27
 -16695998.33649 -13001288.89848  19377938.2934   19377937.4814
      2485.1924
 -16577402.38749 -14459370.65647  20634411.8874   20634409.8634
      3459.9134
   2212815.94549   1722390.57847  20816782.0514   20816781.3754
     -1661.8374
 -12027901.23049  -9363391.62147  21196391.3404   21196388.2234
       630.0174
  -9156011.80949  -7130016.23046  22317956.9024   22317955.9614
       771.3154
 -10539479.42249  -8208166.44548  19453216.4574   19453215.2194
      1399.0894
 04  9 17 22 20 14.9960000  0  6G 8G28G13G19G10G27
 -16733212.59449 -13030287.02048  19370856.6454   19370855.8564
      2480.9514
 -16629220.31249 -14499748.24647  20624550.4024   20624548.9964
      3454.5284
   2237831.30949   1741883.03547  20821543.0904   20821542.2734
     -1667.6914
 -12037207.96149  -9370643.60547  21194620.2934   21194617.7774
       620.4494
  -9167446.77749  -7138926.62946  22315780.9414   22315779.0084
       762.3314
 -10560406.16049  -8224473.00448  19449234.0354   19449233.2034
      1395.1164
 04  9 17 22 20 29.9960000  0  6G 8G28G13G19G10G27
 -16770365.68449 -13059237.48048  19363786.8404   19363785.7854
      2476.8734
 -16680959.99249 -14540064.86347  20614705.0984   20614703.0594
      3449.3124
   2262931.60549   1761441.69147  20826318.9414   20826318.5004
     -1673.3534
 -12046373.76649  -9377785.80147  21192875.9104   21192873.0354
       611.0544
  -9178749.73449  -7147734.14147  22313630.1914   22313629.7664
       753.5304
 -10581275.63749  -8240734.93048  19445263.0904   19445261.8094
      1391.2984
 04  9 17 22 20 44.9960000  0  6G 8G28G13G19G10G27
 -16807456.55549 -13088139.45748  19356728.7774   19356727.4614
      2472.7254
 -16732620.35549 -14580319.67647  20604874.5744   20604872.8364
      3444.0244
   2288117.61349   1781067.11747  20831111.9884   20831110.7544
     -1679.0674
 -12055397.81249  -9384817.52347  21191158.4734   21191156.2544
       601.6034
  -9189919.82449  -7156438.10947  22311504.5514   22311504.0234
       744.6734
 -10602086.85549  -8256951.46948  19441302.7704   19441301.4384
      1387.4154
 04  9 17 22 20 59.9960000  0  6G 8G28G13G19G10G27
 -16844485.12549 -13116992.87948  19349682.3164   19349681.2854
      2468.5714
 -16784201.23049 -14620512.53947  20595059.0274   20595057.5124
      3438.7254
   2313389.27049   1800759.29747  20835920.6524   20835919.8244
     -1684.7774
 -12064280.11749  -9391738.82047  21189468.7154   21189466.3564
       592.1544
  -9200957.22749  -7165038.74246  22309403.9104   22309404.3634
       735.8274
 -10622839.55949  -8273122.41048  19437353.7384   19437352.6484
      1383.5144
 04  9 17 22 21 14.9960000  0  6G 8G28G13G19G10G27
 -16881452.03949 -13145798.27348  19342647.6914   19342646.4534
      2464.4614
 -16835703.32049 -14660644.03147  20585258.6994   20585256.9884
      3433.4734
   2338745.53149   1820517.38747  20840746.2154   20840745.4224
     -1690.4174
 -12073021.43749  -9398550.23447  21187805.2704   21187803.1254
       582.7554
  -9211862.69949  -7173536.53946  22307328.6844   22307329.0554
       727.0324
 -10643534.28949  -8289248.16848  19433415.7074   19433414.7384
      1379.6494
 04  9 17 22 21 29.9960000  0  6G 8G28G13G19G10G27
 -16918355.72349 -13174554.38748  19335625.3404   19335624.0514
      2460.2464
 -16887125.23449 -14700713.02747  20575473.4654   20575471.3284
      3428.1284
   2364187.46149   1840342.23047  20845587.6844   20845586.6564
     -1696.1294
 -12081620.42649  -9405250.75847  21186168.5984   21186166.0514
       573.2664
  -9222635.18749  -7181930.69947  22305279.0744   22305278.5474
       718.1664
 -10664169.74649  -8305327.75848  19429488.3954   19429487.6414
      1375.6974
 04  9 17 22 21 44.9960000  0  6G 8G28G13G19G10G27
 -16955196.34049 -13203261.35948  19328614.6914   19328612.9384
      2456.0414
 -16938467.11349 -14740719.66447  20565703.4884   20565701.9184
      3422.7924
   2389714.75849   1860233.60247  20850445.4884   20850443.9264
     -1701.8204
 -12090077.32449  -9411840.55947  21184559.8094   21184556.8204
       563.7934
  -9233274.99649  -7190221.46546  22303253.8014   22303253.1764
       709.3214
 -10684746.01249  -8321361.21548  19425573.3404   19425572.2624
      1371.7514
 04  9 17 22 21 59.9960000  0  6G 8G28G13G19G10G27
 -16991972.03549 -13231917.73448  19321616.4414   19321614.8444
      2451.7134
 -16989727.35949 -14780662.70347  20555948.4264   20555947.2974
      3417.3504
   2415328.57049   1880192.38347  20855319.6454   20855319.0864
     -1707.5874
 -12098390.87949  -9418318.64147  21182977.5514   21182974.9184
       554.2374
  -9243780.78549  -7198407.81247  22301255.6604   22301254.5944
       700.3864
 -10705261.35949  -8337347.19948  19421669.2934   19421668.1454
      1367.6904
 04  9 17 22 22 14.9960000  0  6G 8G28G13G19G10G27
 -17028686.18449 -13260526.16048  19314629.9574   19314628.6484
      2447.6104
 -17040909.41449 -14820544.79747  20546208.5594   20546207.4654
      3412.1374
   2441025.03949   1900215.57447  20860209.5274   20860209.0274
     -1713.0984
 -12106564.60549  -9424687.77747  21181421.9414   21181419.3914
       544.9154
  -9254156.14849  -7206492.50847  22299281.1134   22299280.9064
       691.6914
 -10725719.20749  -8353288.37948  19417776.4734   19417774.8874
      1363.8574
 04  9 17 22 22 29.9960000  0  6G 8G28G13G19G10G27
 -17065339.18449 -13289086.94548  19307655.2624   19307654.0044
      2443.5334
 -17092013.41849 -14860366.08647  20536484.1134   20536482.6684
      3406.9344
   2466803.95349   1920303.01247  20865114.8094   20865114.2624
     -1718.5944
 -12114598.65649  -9430948.08247  21179892.9574   21179890.7464
       535.6034
  -9264401.43749  -7214475.86347  22297330.8484   22297331.6134
       683.0194
 -10746119.58249  -8369184.78148  19413894.0744   19413893.1764
      1360.0254
 04  9 17 22 22 44.9960000  0  6G 8G28G13G19G10G27
 -17101928.18049 -13317597.84448  19300692.6994   19300691.3524
      2439.2664
 -17143036.75049 -14900124.50447  20526774.8014   20526772.7974
      3401.5554
   2492667.48849   1940456.37947  20870037.0124   20870035.8954
     -1724.2364
 -12122490.64549  -9437097.68747  21178391.7314   21178388.6844
       526.1334
  -9274514.35249  -7222356.10247  22295407.1454   22295405.9024
       674.1944
 -10766459.88749  -8385034.37148  19410023.6294   19410022.8674
      1356.0204
 04  9 17 22 22 59.9960000  0  6G 8G28G13G19G10G27
 -17138453.01649 -13346058.75448  19293741.9814   19293741.0864
      2434.9894
 -17193979.34849 -14939820.01647  20517080.0744   20517079.0274
      3396.1734
   2518615.41049   1960675.50847  20874974.1214   20874973.7074
     -1729.8614
 -12130240.63749  -9443136.64847  21176916.8014   21176914.2424
       516.6664
  -9284495.06649  -7230133.31246  22293507.1294   22293507.3364
       665.3814
 -10786739.88749  -8400836.96948  19406164.4964   19406163.3244
      1352.0004
 04  9 17 22 23 14.9960000  0  6G 8G28G13G19G10G27
 -17174913.96949 -13374469.88748  19286803.9344   19286802.7814
      2430.7304
 -17244841.52349 -14979452.86347  20507401.5204   20507400.2934
      3390.8124
   2544647.14549   1980959.94547  20879928.1374   20879927.3244
     -1735.4494
 -12137849.00849  -9449065.25447  21175468.6914   21175465.8444
       507.2254
  -9294344.05549  -7237807.83246  22291633.7624   22291632.9884
       656.5994
 -10806959.98449  -8416592.89148  19402316.6294   19402315.3364
      1348.0074
 04  9 17 22 23 29.9960000  0  6G 8G28G13G19G10G27
 -17211311.67249 -13402831.72748  19279877.7154   19279876.8094
      2426.5144
 -17295623.73049 -15019023.40247  20497738.5514   20497736.5824
      3385.4804
   2570761.99249   2001309.14547  20884897.5984   20884896.9184
     -1740.9904
 -12145316.37549  -9454883.98447  21174047.5514   21174045.6214
       497.8244
  -9304061.94149  -7245380.23446  22289783.9964   22289783.7424
       647.8594
 -10827120.46149  -8432302.35548  19398480.3484   19398479.0984
      1344.0324
 04  9 17 22 23 44.9960000  0  6G 8G28G13G19G10G27
 -17247644.45349 -13431142.98448  19272963.8404   19272962.6524
      2422.1854
 -17346324.65249 -15058530.59047  20488090.3714   20488087.6684
      3380.0614
   2596960.80549   2021723.76647  20889882.8714   20889882.1484
     -1746.5874
 -12152641.58249  -9460591.94547  21172653.9654   21172651.9144
       488.3474
  -9313647.81249  -7252849.76246  22287960.4884   22287959.3914
       639.0584
 -10847219.97349  -8447964.32048  19394655.7314   19394654.4774
      1339.9674
 04  9 17 22 23 59.9960000  0  6G 8G28G13G19G10G27
 -17283914.33649 -13459405.21548  19266061.5354   19266060.6134
      2417.9924
 -17396946.34449 -15097976.05547  20478457.0594   20478455.4454
      3374.7794
   2623241.43849   2042202.15247  20894884.3324   20894883.1994
     -1752.0424
 -12159826.77749  -9466190.80147  21171286.5514   21171283.7274
       479.0134
  -9323103.78549  -7260218.08246  22286160.2074   22286160.3134
       630.3984
 -10867260.39849  -8463580.23448  19390842.0044   19390840.9064
      1336.0284
 04  9 17 22 24 14.9960000  0  6G 8G28G13G19G10G27
 -17320119.12149 -13487616.73848  19259172.2384   19259171.4104
      2413.6524
 -17447486.68449 -15137358.11747  20468839.2624   20468838.3204
      3369.3564
   2649605.49649   2062745.55947  20899901.2464   20899899.8524
     -1757.6044
 -12166870.09049  -9471679.09047  21169946.5594   21169944.0084
       469.5544
  -9332428.16849  -7267483.84847  22284387.1994   22284385.9184
       621.6264
 -10887239.80949  -8479148.60948  19387040.3794   19387039.1294
      1331.9614
 04  9 17 22 24 29.9960000  0  6G 8G28G13G19G10G27
 -17356259.60249 -13515778.15248  19252294.8874   19252293.6374
      2409.3654
 -17497946.56649 -15176677.48847  20459237.4104   20459235.9064
      3363.9924
   2676051.95749   2083353.14847  20904933.9574   20904932.9144
     -1763.0974
 -12173772.45349  -9477057.56247  21168632.7154   21168630.3874
       460.1584
  -9341622.04349  -7274647.90247  22282637.0354   22282636.7624
       612.9254
 -10907158.79349  -8494669.89848  19383249.6454   19383248.6454
      1327.9324
 04  9 17 22 24 44.9960000  0  6G 8G28G13G19G10G27
 -17392336.33249 -13543889.88348  19245429.7624   19245428.4924
      2405.1154
 -17548326.51249 -15215934.58247  20449650.6064   20449648.9494
      3358.6634
   2702579.85249   2104024.21547  20909981.8564   20909981.2934
     -1768.5264
 -12180534.60949  -9482326.77347  21167345.7464   21167343.9814
       450.8104
  -9350686.08649  -7281710.84046  22280912.2234   22280911.1024
       604.2704
 -10927017.92249  -8510144.54348  19379470.1294   19379469.0164
      1323.9424
 04  9 17 22 24 59.9960000  0  6G 8G28G13G19G10G27
 -17428347.96549 -13571950.89548  19238577.2624   19238575.6764
      2400.7764
 -17598625.19149 -15255128.33247  20440079.0904   20440076.9184
      3353.2454
   2729190.25849   2124759.55147  20915045.4884   20915045.2934
     -1774.0274
 -12187155.39149  -9487485.81647  21166086.3484   21166083.7344
       441.3854
  -9359619.32849  -7288671.81246  22279212.7074   22279210.7344
       595.5494
 -10946815.85549  -8525571.50448  19375702.8244   19375701.9264
      1319.8624
 04  9 17 22 25 14.9960000  0  6G 8G28G13G19G10G27
 -17464293.69949 -13599960.56248  19231736.7234   19231735.4064
      2396.3824
 -17648842.08649 -15294258.36747  20430522.7624   20430521.3594
      3347.7934
   2755883.58649   2145559.51647  20920125.1374   20920124.7274
     -1779.5554
 -12193634.32449  -9492534.34047  21164853.3014   21164850.8714
       431.9294
  -9368421.32849  -7295530.52346  22277537.6214   22277536.3674
       586.8004
 -10966551.95349  -8540950.28548  19371947.1294   19371946.1844
      1315.7404
 04  9 17 22 25 29.9960000  0  6G 8G28G13G19G10G27
 -17500175.33249 -13627920.27748  19224908.7544   19224907.1414
      2392.1094
 -17698978.77049 -15333325.87947  20420982.5984   20420981.1884
      3342.4464
   2782657.80549   2166422.52047  20925220.2314   20925218.6414
     -1784.9484
 -12199973.07049  -9497473.62147  21163646.6914   21163644.2424
       422.5834
  -9377093.82849  -7302288.33247  22275887.0824   22275886.1094
       578.1674
 -10986227.56249  -8556281.93448  19368203.0274   19368202.1254
      1311.7074
 04  9 17 22 25 44.9960000  0  6G 8G28G13G19G10G27
 -17535991.44149 -13655828.93048  19218093.2154   19218091.7624
      2387.7414
 -17749034.48849 -15372330.31647  20411457.0984   20411455.4614
      3337.0484
   2809513.38349   2187348.90647  20930330.3094   20930329.6484
     -1790.3724
 -12206171.03949  -9502303.21147  21162467.3094   21162465.1454
       413.1984
  -9385636.36749  -7308944.87546  22274261.8564   22274260.3284
       569.5034
 -11005842.02349  -8571565.92648  19364471.1374   19364469.5554
      1307.6314
 04  9 17 22 25 59.9960000  0  6G 8G28G13G19G10G27
 -17571742.69149 -13683687.04748  19211289.7774   19211288.9144
      2383.4174
 -17799009.43049 -15411271.81647  20401947.3164   20401944.9184
      3331.6634
   2836449.75849   2208338.26247  20935456.4024   20935455.5084
     -1795.7584
 -12212228.68449  -9507023.46147  21161314.8164   21161312.1914
       403.8434
  -9394049.35249  -7315500.42846  22272660.3714   22272659.4184
       560.8664
 -11025395.43449  -8586802.35548  19360749.8954   19360748.5904
      1303.5614
 04  9 17 22 26 14.9960000  0  6G 8G28G13G19G10G27
 -17607427.66449 -13711493.52048  19204499.2154   19204498.0354
      2378.9984
 -17848902.18449 -15450149.28147  20392452.7154   20392451.2464
      3326.1844
   2863468.00849   2229391.40647  20940598.1914   20940597.2664
     -1801.2174
 -12218144.78549  -9511633.41847  21160188.9344   21160185.9384
       394.4074
  -9402331.68749  -7321954.25047  22271084.7934   22271083.8594
       552.1564
 -11044886.37149  -8601990.10248  19357040.8714   19357040.1294
      1299.3964
 04  9 17 22 26 29.9960000  0  6G 8G28G13G19G10G27
 -17643048.46549 -13739249.97748  19197720.6064   19197719.8364
      2374.7204
 -17898715.12549 -15488964.53947  20382973.6844   20382972.4184
      3320.8634
   2890565.57449   2250506.36747  20945754.4574   20945754.6454
     -1806.5044
 -12223921.83249  -9516135.02047  21159089.5204   21159086.8204
       385.1364
  -9410485.93049  -7328308.21546  22269532.3564   22269532.5634
       543.6164
 -11064317.05549  -8617130.89548  19353343.1764   19353341.8324
      1295.3794
 04  9 17 22 26 44.9960000  0  6G 8G28G13G19G10G27
 -17678603.04749 -13766954.84048  19190954.9494   19190953.6524
      2370.3054
 -17948446.33649 -15527716.12147  20373510.5594   20373508.2734
      3315.4144
   2917744.00049   2271684.32447  20950926.4264   20950925.8834
     -1811.8954
 -12229557.94149  -9520526.81647  21158016.8874   21158013.9774
       375.7414
  -9418510.58249  -7334561.19547  22268005.5354   22268005.2464
       534.9774
 -11083685.56249  -8632223.24248  19349657.3564   19349656.1994
      1291.2344
 04  9 17 22 26 59.9960000  0  6G 8G28G13G19G10G27
 -17714091.80949 -13794608.41848  19184201.5904   19184200.3164
      2365.9174
 -17998096.28949 -15566404.38747  20364061.7934   20364060.7624
      3309.9974
   2945002.58649   2292924.77047  20956113.6294   20956112.6064
     -1817.2394
 -12235053.82049  -9524809.30547  21156971.3324   21156968.5434
       366.3924
  -9426406.28949  -7340713.72347  22266502.5354   22266502.6884
       526.3804
 -11102992.24249  -8647267.41448  19345983.6454   19345982.4144
      1287.1124
 04  9 17 22 27 14.9960000  0  6G 8G28G13G19G10G27
 -17749515.30149 -13822211.14848  19177460.8404   19177459.5594
      2361.5664
 -18047665.55949 -15605029.77347  20354629.0204   20354627.3594
      3304.6184
   2972340.53549   2314227.03547  20961315.6684   20961314.9144
     -1822.5304
 -12240410.15649  -9528983.07447  21155952.0594   21155949.5044
       357.0894
  -9434173.70749  -7346766.28546  22265025.0744   22265024.2704
       517.8284
 -11122237.56249  -8662263.76648  19342321.1294   19342320.1094
      1283.0214
 04  9 17 22 27 29.9960000  0  6G 8G28G13G19G10G27
 -17784872.16849 -13849761.95348  19170732.8094   19170731.2894
      2357.1244
 -18097152.90249 -15643591.31647  20345212.4654   20345209.9144
      3299.1564
   2999758.60549   2335591.73047  20966533.4654   20966532.6174
     -1827.8714
 -12245625.89549  -9533047.28947  21154959.4654   21154956.7344
       347.7164
  -9441811.98449  -7352718.18446  22263571.6684   22263570.7464
       509.2184
 -11141420.34449  -8677211.38748  19338671.3794   19338669.8014
      1278.8524
 04  9 17 22 27 44.9960000  0  6G 8G28G13G19G10G27
 -17820164.62149 -13877262.55548  19164016.1764   19164015.2734
      2352.8304
 -18146560.52349 -15682090.75847  20335809.9184   20335808.3794
      3293.8414
   3027254.36749   2357016.98047  20971765.3244   20971765.0164
     -1833.0514
 -12250703.36349  -9537003.76647  21153993.4654   21153990.1094
       338.4984
  -9449323.44149  -7358571.31646  22262142.0124   22262141.4414
       500.7644
 -11160542.64149  -8692111.88348  19335032.1374   19335031.0864
      1274.8204
 04  9 17 22 27 59.9960000  0  6G 8G28G13G19G10G27
 -17855390.27349 -13904711.12548  19157313.1064   19157312.0084
      2348.3774
 -18195886.02349 -15720526.17647  20326424.0204   20326421.9264
      3288.3674
   3054829.96149   2378504.39847  20977013.6374   20977012.9494
     -1838.3734
 -12255640.41449  -9540850.82447  21153054.0044   21153051.5084
       329.1374
  -9456706.05949  -7364323.99247  22260737.3324   22260736.0314
       492.1744
 -11179601.96149  -8706963.29348  19331405.1454   19331403.9924
      1270.6214
 04  9 17 22 28 14.9960000  0  6G 8G28G13G19G10G27
 -17890548.33249 -13932107.00448  19150623.2624   19150621.4344
      2343.8714
 -18245129.00049 -15758897.30947  20317053.5664   20317051.1414
      3282.8654
   3082485.45349   2400054.12547  20982275.6604   20982275.0234
     -1843.6994
 -12260436.51249  -9544588.05547  21152140.7704   21152139.0434
       319.7404
  -9463959.41849  -7369975.99247  22259357.1684   22259355.4964
       483.5574
 -11198597.67249  -8721765.15248  19327790.5904   19327789.5124
      1266.3814
 04  9 17 22 28 29.9950000  0  7G31G 8G28G13G19G10G27
   -202295.99659   -139345.85556  22742805.8354   22742808.5344

 -17925637.65649 -13959449.32848  19143945.6794   19143944.2614
      2339.2884
 -18294287.44949 -15797202.59447  20307698.9764   20307696.8124
      3277.2304
   3110217.44149   2421663.42647  20987553.1324   20987552.3274
     -1848.7994
 -12265092.97349  -9548216.48047  21151255.5694   21151252.4134
       310.4314
  -9471084.77049  -7375528.21947  22258000.9444   22258000.6714
       475.0234
 -11217529.97749  -8736517.60548  19324187.6794   19324186.6554
      1262.1544
 04  9 17 22 28 44.9950000  0  7G31G 8G28G13G19G10G27
   -281405.89849   -200989.83246  22727752.3664   22727754.2924
      5273.9934
 -17960664.50049 -13986742.97348  19137280.0384   19137279.3584
      2335.1234
 -18343369.48449 -15835448.30147  20298358.8904   20298357.2614
      3272.1364
   3138027.72349   2443333.75847  20992844.9374   20992844.6084
     -1854.0194
 -12269612.07449  -9551737.83647  21150395.3584   21150392.3744
       301.2734
  -9478084.81649  -7380982.80546  22256668.7964   22256668.5974
       466.6704
 -11236402.78149  -8751223.68448  19320596.4054   19320595.5694
      1258.1874
 04  9 17 22 28 59.9950000  0  7G31G 8G28G13G19G10G27
   -360510.73449   -262629.83646  22712698.3904   22712700.3274
      5273.6564
 -17995628.62549 -14013987.75048  19130627.1714   19130625.8984
      2330.9424
 -18392373.99649 -15873633.62947  20289033.5464   20289032.3514
      3266.9674
   3165911.99249   2465061.72747  20998150.8904   20998151.2224
     -1858.9514
 -12273995.88749  -9555153.80947  21149560.5624   21149558.7964
       292.2544
  -9484961.58249  -7386341.34447  22255361.0854   22255359.8514
       458.4514
 -11255216.91449  -8765884.05148  19317016.2024   19317015.4604
      1254.2764
 04  9 17 22 29 14.9950000  0  7G31G 8G28G13G19G10G27
   -439610.85549   -324266.18746  22697646.3904   22697648.4254
      5273.3414
 -18030531.01649 -14041184.41848  19123985.3824   19123984.2804
      2326.8264
 -18441301.84849 -15911759.21147  20279722.7414   20279721.2064
      3261.8574
   3193869.11349   2486846.46947  21003471.4444   21003470.7224
     -1863.8084
 -12278245.44949  -9558465.16447  21148752.6944   21148749.6364
       283.3044
  -9491716.09849  -7391604.63747  22254074.4054   22254074.7734
       450.3014
 -11273973.16849  -8780499.32048  19313447.2024   19313445.8904
      1250.4174
 04  9 17 22 29 29.9950000  0  7G31G 8G28G13G19G10G27
   -518706.46949   -385899.01646  22682594.8664   22682597.0074
      5273.0414
 -18065371.96149 -14068333.19148  19117355.0384   19117354.1054
      2322.7304
 -18490153.61349 -15949825.49647  20270426.1794   20270424.6404
      3256.7844
   3221898.35949   2508687.40647  21008805.0154   21008804.4834
     -1868.6164
 -12282361.30549  -9561672.32447  21147969.6554   21147966.7414
       274.3904
  -9498349.06649  -7396773.20747  22252813.4524   22252812.5034
       442.1984
 -11292671.95349  -8795069.80948  19309888.6794   19309887.7184
      1246.5864
 04  9 17 22 29 44.9950000  0  7G31G 8G28G13G19G10G27
   -597795.64549   -447526.83246  22667544.7414   22667546.8824
      5272.6124
 -18100149.50849 -14095432.57848  19110737.2494   19110736.1754
      2318.5034
 -18538927.55949 -15987831.14547  20261145.1634   20261143.1244
      3251.5964
   3250000.94949   2530585.49247  21014153.0234   21014152.9804
     -1873.5064
 -12286342.12549  -9564774.27347  21147212.1014   21147209.6324
       265.3884
  -9504859.19949  -7401846.02747  22251574.2804   22251573.4404
       434.0094
 -11311311.63749  -8809594.24248  19306341.6874   19306341.0694
      1242.6464
 04  9 17 22 29 59.9950000  0  7G31G 8G28G13G19G10G27
   -676878.05149   -509149.39846  22652495.7264   22652497.8434
      5272.1604
 -18134863.82449 -14122482.68448  19104131.6484   19104130.3514
      2314.2884
 -18587623.61749 -16025776.11747  20251878.6324   20251876.8044
      3246.4044
   3278176.58649   2552540.50047  21019514.9834   21019514.4724
     -1878.3764
 -12290187.93049  -9567771.00847  21146480.1244   21146476.7844
       256.3874
  -9511246.69149  -7406823.29347  22250358.1944   22250357.7804
       425.8334
 -11329892.10949  -8824072.53148  19302805.8044   19302805.0154
      1238.6984
 04  9 17 22 30 14.9950000  0  7G31G 8G28G13G19G10G27
   -755952.91049   -570766.07446  22637448.3744   22637449.7734
      5271.6574
 -18169514.28549 -14149483.05148  19097537.8274   19097536.2534
      2310.0314
 -18636241.37549 -16063660.08247  20242626.8514   20242625.3584
      3241.1844
   3306425.47749   2574552.59847  21024890.4834   21024890.2654
     -1883.2594
 -12293898.43449  -9570662.34047  21145773.6794   21145771.4444
       247.3674
  -9517511.32849  -7411704.87147  22249166.8274   22249167.0894
       417.6424
 -11348412.73049  -8838504.19548  19299281.6084   19299280.2454
      1234.7084
 04  9 17 22 30 29.9950000  0  7G31G 8G28G13G19G10G27
   -835018.37149   -632375.41046  22622402.5154   22622403.8624
      5271.0314
 -18204099.12549 -14176432.27048  19090956.6324   19090955.1204
      2305.6564
 -18684779.29749 -16101481.81247  20233390.4684   20233388.5384
      3235.8614
   3334748.79749   2596622.70747  21030280.1874   21030279.6834
     -1888.2214
 -12297472.41849  -9573447.27747  21145093.6944   21145091.6124
       238.2664
  -9523651.89149  -7416489.77347  22247998.7964   22247998.2264
       409.3714
 -11366871.87149  -8852887.93748  19295768.6484   19295768.1634
      1230.6094
 04  9 17 22 30 44.9950000  0  7G31G 8G28G13G19G10G27
   -914073.52749   -693976.75446  22607358.0624   22607359.9804
      5270.3444
 -18238617.88349 -14203330.00448  19084387.7264   19084386.2884
      2301.2514
 -18733236.87149 -16139240.96147  20224169.2184   20224167.5694
      3230.5054
   3363146.88749   2618751.05547  21035683.9214   21035683.4484
     -1893.2064
 -12300909.37549  -9576125.44147  21144439.4764   21144437.2574
       229.1304
  -9529667.93049  -7421177.59047  22246853.1874   22246853.7574
       401.0694
 -11385268.94149  -8867223.32448  19292268.2024   19292267.0504
      1226.4714
 04  9 17 22 30 59.9950000  0  7G31G 8G28G13G19G10G27
   -993120.01649   -755571.31246  22592316.4684   22592317.2764
      5269.7664
 -18273072.31249 -14230177.60948  19077831.2734   19077829.4764
      2296.9624
 -18781616.02349 -16176938.98447  20214963.0774   20214961.8194
      3225.2774
   3391617.52349   2640935.92647  21041102.4214   21041101.4644
     -1898.0424
 -12304211.30949  -9578698.36347  21143811.1634   21143809.4484
       220.1294
  -9535561.63749  -7425770.10946  22245731.9054   22245730.7534
       392.9144
 -11403605.83649  -8881511.82448  19288778.8274   19288777.4484
      1222.4604
 04  9 17 22 31 14.9950000  0  7G31G 8G28G13G19G10G27
  -1072158.37149   -817159.54746  22577276.0384   22577277.1594
      5269.2244
 -18307463.29749 -14256975.78548  19071286.8984   19071285.5074
      2292.7324
 -18829917.60949 -16214576.55147  20205771.3124   20205769.9764
      3220.1064
   3420159.50449   2663176.40247  21046533.5304   21046533.0934
     -1902.7994
 -12307379.29749  -9581166.93447  21143207.9524   21143206.7694
       211.1994
  -9541334.16049  -7430268.18746  22244633.7804   22244632.9374
       384.8354
 -11421883.19149  -8895753.92648  19285300.6794   19285299.7804
      1218.4904
 04  9 17 22 31 29.9950000  0  7G31G 8G28G13G19G10G27
  -1151186.46149   -878739.75846  22562237.1324   22562238.8744
      5268.5394
 -18341789.07849 -14283723.13748  19064754.8664   19064753.3514
      2288.3854
 -18878139.80149 -16252152.28147  20196595.3984   20196593.1484
      3214.8134
   3448774.34849   2685473.64847  21051978.7334   21051977.9764
     -1907.6564
 -12310411.66449  -9583529.83247  21142631.9834   21142629.3124
       202.1584
  -9546983.96149  -7434670.66846  22243557.6944   22243557.2734
       376.6534
 -11440099.32049  -8909948.31648  19281834.1084   19281833.3044
      1214.4094
 04  9 17 22 31 44.9950000  0  7G31G 8G28G13G19G10G27
  -1230201.30949   -940309.68746  22547200.2104   22547203.1834
      5267.6574
 -18376046.63349 -14310417.33648  19058236.0234   19058234.2614
      2283.8374
 -18926279.91449 -16289664.03147  20187434.0934   20187433.3194
      3209.3414
   3477464.48449   2707829.58247  21057438.2414   21057437.3004
     -1912.6764
 -12313305.90249  -9585785.10247  21142080.3434   21142078.2414
       192.9494
  -9552508.52049  -7438975.58547  22242506.3584   22242505.5734
       368.3044
 -11458251.28149  -8924092.69548  19278380.1404   19278379.0624
      1210.1314
 04  9 17 22 31 59.9950000  0  7G31G 8G28G13G19G10G27
  -1309205.46949  -1001871.24647  22532167.2414   22532169.1514
      5266.9444
 -18410238.62549 -14337060.43748  19051729.4764   19051728.0504
      2279.4664
 -18974340.82449 -16327114.07447  20178288.7104   20178287.2844
      3204.0614
   3506226.65649   2730241.62147  21062911.7184   21062910.4334
     -1917.4784
 -12316065.07449  -9587935.10947  21141555.6084   21141553.8274
       183.9454
  -9557910.96549  -7443185.27046  22241479.1714   22241478.9254
       360.1634
 -11476341.84849  -8938189.25448  19274937.8904   19274936.6204
      1206.0384
 04  9 17 22 32 14.9950000  0  7G31G 8G28G13G19G10G27
  -1388195.91049  -1063422.13346  22517135.8124   22517137.3354
      5266.0294
 -18444362.46549 -14363650.44948  19045235.8984   19045234.6364
      2274.9234
 -19022319.88349 -16364500.34447  20169158.6084   20169156.6594
      3198.6044
   3535063.23049   2752711.66447  21068398.6404   21068397.3584
     -1922.4384
 -12318686.75049  -9589977.97747  21141056.6554   21141054.5264
       174.7784
  -9563189.11349  -7447298.06646  22240474.1634   22240473.5114
       351.8774
 -11494368.46949  -8952235.96948  19271507.1404   19271506.2304
      1201.7754
 04  9 17 22 32 29.9950000  0  7G31G 8G28G13G19G10G27
  -1467175.07849  -1124964.28146  22502106.2884   22502108.0894
      5265.2784
 -18478420.68049 -14390189.30548  19038754.6874   19038753.7184
      2270.5484
 -19070219.85249 -16401824.97347  20160043.6164   20160041.8664
      3193.3314
   3563971.32849   2775237.42647  21073900.7184   21073899.3124
     -1927.2074
 -12321173.70749  -9591915.88347  21140583.7804   21140580.8704
       165.7974
  -9568345.75449  -7451316.27346  22239493.3274   22239492.8434
       343.7764
 -11512333.57449  -8966234.76248  19268088.4524   19268087.2104
      1197.6744
 04  9 17 22 32 44.9950000  0  7G31G 8G28G13G19G10G27
  -1546141.04749  -1186496.14146  22487079.5774   22487081.7374
      5264.3984
 -18512411.78149 -14416675.87948  19032286.3194   19032285.2534
      2266.0734
 -19118039.09449 -16439086.70747  20150944.0464   20150942.3084
      3187.9494
   3592952.06349   2797819.79747  21079414.9134   21079414.0694
     -1932.0494
 -12323524.63749  -9593747.77747  21140136.3904   21140133.1984
       156.7294
  -9573379.68749  -7455238.84846  22238535.2884   22238535.0544
       335.5964
 -11530235.69949  -8980184.46948  19264681.8274   19264680.8864
      1193.4754
 04  9 17 22 32 59.9950000  0  7G31G 8G28G13G19G10G27
  -1625092.59849  -1248016.75046  22472055.8044   22472057.7414
      5263.4374
 -18546334.59049 -14443109.23848  19025831.3584   19025830.0194
      2261.5214
 -19165776.66449 -16476284.80147  20141859.4604   20141858.1324
      3182.5054
   3622006.20749   2820459.36347  21084943.7334   21084943.1364
     -1936.9434
 -12325738.73449  -9595473.05547  21139714.6164   21139711.6124
       147.6074
  -9578290.18449  -7459065.23047  22237600.5544   22237601.3274
       327.3664
 -11548073.75049  -8994084.25048  19261287.7494   19261286.2884
      1189.2034
 04  9 17 22 33 14.9950000  0  7G31G 8G28G13G19G10G27
  -1704030.30949  -1309526.61746  22457034.4764   22457035.7614
      5262.5144
 -18580189.85949 -14469489.96948  19019388.7264   19019387.6164
      2257.0184
 -19213433.48049 -16513419.96547  20132790.5694   20132788.4874
      3177.1214
   3651132.36349   2843155.02747  21090486.2804   21090485.7764
     -1941.7444
 -12327817.12949  -9597092.60247  21139319.1404   21139316.5894
       138.5604
  -9583078.30149  -7462796.25847  22236690.1944   22236690.0974
       319.2084
 -11565848.52049  -9007934.73048  19257905.0624   19257903.8044
      1184.9854
 04  9 17 22 33 29.9950000  0  7G31G 8G28G13G19G10G27
  -1782954.19949  -1371025.66846  22442015.6404   22442017.1554
      5261.5934
 -18613978.15249 -14495818.50048  19012958.9994   19012958.0114
      2252.5534
 -19261009.95749 -16550492.52347  20123737.5624   20123735.5114
      3171.7654
   3680329.96549   2865906.37547  21096041.9524   21096041.6834
     -1946.5074
 -12329760.34049  -9598606.78547  21138949.7024   21138946.6594
       129.5474
  -9587744.86349  -7466432.54346  22235800.9834   22235801.7924
       311.1044
 -11583560.37949  -9021736.18048  19254534.5384   19254533.4254
      1180.7914
 04  9 17 22 33 44.9950000  0  7G31G 8G28G13G19G10G27
  -1861865.54349  -1432514.94146  22426998.8904   22427000.4404
      5260.7564
 -18647700.74249 -14522095.84048  19006541.6874   19006540.5464
      2248.1734
 -19308507.57049 -16587503.63747  20114699.0934   20114697.0774
      3166.5084
   3709597.18449   2888711.96547  21101611.3354   21101611.1244
     -1951.1484
 -12331569.98849  -9600016.91847  21138605.1554   21138601.9524
       120.6434
  -9592291.57049  -7469975.44146  22234936.5464   22234936.4564
       303.1144
 -11601210.71149  -9035489.69148  19251175.8584   19251174.5504
      1176.6894
 04  9 17 22 33 59.9950000  0  8G31G 8G28G13G19G10G29G27
  -1940761.99649  -1493992.63346  22411985.3824   22411986.6794
      5259.7644
 -18681355.89549 -14548320.63748  19000137.4524   19000136.3234
      2243.6774
 -19355924.48849 -16624451.86747  20105675.4914   20105674.3984
      3161.1284
   3738935.59449   2911573.04747  21107195.0464   21107193.7614
     -1955.8944
 -12333244.40649  -9601321.66847  21138286.1634   21138283.4874
       111.6284
  -9596716.82049  -7473423.72747  22234094.8434   22234094.2804
       295.0174
   -176044.62559   -121052.91057  22842612.7024   22842613.7574

 -11618797.48449  -9049193.68048  19247829.4054   19247828.1404
      1172.4524
 04  9 17 22 34 14.9950000  0  8G31G 8G28G13G19G10G29G27
  -2019645.87149  -1555460.53546  22396974.4604   22396975.4214
      5258.9254
 -18714945.77349 -14574494.57048  18993745.6874   18993744.6284
      2239.3254
 -19403263.32049 -16661339.26247  20096667.2734   20096665.6084
      3155.9224
   3768342.31349   2934487.34047  21112790.7104   21112790.1754
     -1960.4484
 -12334786.31649  -9602523.18047  21137993.7654   21137990.4054
       102.7944
  -9601023.41049  -7476779.52347  22233274.7734   22233275.3624
       287.1064
   -244917.37149   -174719.95746  22829505.9444   22829507.1404
      4591.5164
 -11636323.29749  -9062850.15648  19244494.1874   19244493.0654
      1168.3884
 04  9 17 22 34 29.9950000  0  8G31G 8G28G13G19G10G29G27
  -2098515.70349  -1616917.46946  22381966.2494   22381967.0814
      5257.9894
 -18748469.18049 -14600616.69948  18987366.1324   18987364.9994
      2234.8944
 -19450522.83649 -16698164.84047  20087674.2184   20087671.9804
      3150.6344
   3797818.29749   2957455.61747  21118400.1634   21118398.6794
     -1965.0664
 -12336194.85249  -9603620.73847  21137725.4294   21137722.4914
        93.9024
  -9605210.41049  -7480042.12546  22232478.8194   22232477.8554
       279.1334
   -313749.85549   -228355.60547  22816408.1164   22816408.5504
      4588.8324
 -11653786.79349  -9076458.07448  19241171.0934   19241170.0114
      1164.2334
 04  9 17 22 34 44.9950000  0  8G31G 8G28G13G19G10G29G27
  -2177372.89149  -1678364.53946  22366959.8584   22366960.9054
      5257.1464
 -18781927.84049 -14626688.37948  18980999.2264   18980998.0854
      2230.5774
 -19497704.89549 -16734930.07047  20078695.9524   20078694.2224
      3145.4714
   3827361.36749   2980476.16447  21124021.5934   21124020.8234
     -1969.5384
 -12337471.81249  -9604615.78147  21137481.6164   21137479.4134
        85.1314
  -9609279.78949  -7483213.09446  22231703.5154   22231702.8584
       271.2924
   -382543.32449   -281960.88347  22803317.8044   22803317.4764
      4586.2314
 -11671189.70749  -9090018.79748  19237859.0234   19237858.1834
      1160.1944
 04  9 17 22 34 59.9950000  0  8G31G 8G28G13G19G10G29G27
  -2256217.32449  -1739801.69946  22351955.5854   22351957.8664
      5256.2964
 -18815321.69949 -14652709.57448  18974644.6944   18974643.4564
      2226.2574
 -19544809.55549 -16771634.98447  20069731.9764   20069730.2764
      3140.3114
   3856971.14849   3003548.68447  21129656.2494   21129655.1514
     -1973.9854
 -12338617.57449  -9605508.58647  21137263.5384   21137261.5384
        76.3844
  -9613232.04749  -7486292.78947  22230951.2964   22230951.6634
       263.4844
   -451297.83649   -335535.83247  22790234.1084   22790233.2574
      4583.6344
 -11688532.07049  -9103532.33248  19234559.2574   19234557.8864
      1156.1584
 04  9 17 22 35 14.9950000  0  8G31G 8G28G13G19G10G29G27
  -2335050.82849  -1801230.33646  22336954.8664   22336955.4524
      5255.5674
 -18848652.89549 -14678681.93048  18968301.8664   18968300.7144
      2222.0804
 -19591839.02349 -16808281.29747  20060782.4604   20060780.4094
      3135.2984
   3886645.07449   3026671.19947  21135302.8744   21135301.8554
     -1978.2624
 -12339634.53549  -9606301.04747  21137070.5384   21137068.0304
        67.7974
  -9617069.70349  -7489283.18446  22230221.0234   22230220.8394
       255.8444
   -520015.36749   -389081.93046  22777157.3904   22777156.6444
      4581.1694
 -11705816.11349  -9117000.41848  19231270.2024   19231269.3274
      1152.2704
 04  9 17 22 35 29.9950000  0  8G31G 8G28G13G19G10G29G27
  -2413869.06249  -1862647.04746  22321955.9834   22321956.8124
      5254.5494
 -18881917.29349 -14704602.24248  18961972.0234   18961970.6404
      2217.6274
 -19638789.37949 -16844865.96947  20051847.9914   20051845.9524
      3130.0244
   3916386.87149   3049846.59847  21140962.8744   21140961.7374
     -1982.7864
 -12340518.86349  -9606990.12947  21136902.5154   21136899.9254
        58.9554
  -9620788.97349  -7492181.33646  22229513.6404   22229513.8824
       247.9514
   -588691.47349   -442595.81246  22764088.0854   22764087.5344
      4578.4074
 -11723037.68749  -9130419.83248  19227993.1244   19227992.0624
      1148.1054
 04  9 17 22 35 44.9950000  0  8G31G 8G28G13G19G10G29G27
  -2492671.16149  -1924051.15646  22306960.1944   22306961.6204
      5253.4734
 -18915114.19149 -14730469.94948  18955654.6714   18955653.9374
      2213.1274
 -19685659.82449 -16881388.38347  20042929.2024   20042927.3084
      3124.6964
   3946196.75849   3073075.03947  21146635.1874   21146634.5464
     -1987.3264
 -12341270.00449  -9607575.46947  21136759.6634   21136757.1594
        50.0764
  -9624389.34049  -7494986.83646  22228828.9764   22228828.0734
       240.0244
   -657325.37549   -496076.69546  22751027.2574   22751027.4644
      4575.5934
 -11740195.95749  -9143789.91448  19224727.6484   19224726.9404
      1143.8854
 04  9 17 22 35 59.9950000  0  8G31G 8G28G13G19G10G29G27
  -2571458.52049  -1985443.87946  22291967.2734   22291968.3944
      5252.4914
 -18948245.54749 -14756286.59048  18949350.1554   18949349.2064
      2208.7574
 -19732452.40249 -16917850.12947  20034024.7964   20034022.6404
      3119.5054
   3976072.64149   3096354.92647  21152320.4374   21152319.9994
     -1991.7264
 -12341890.19549  -9608058.71547  21136641.4444   21136639.0814
        41.3464
  -9627873.26249  -7497701.59447  22228165.0304   22228166.0734
       232.2614
   -725918.52049   -549525.89846  22737974.8124   22737975.0114
      4572.8764
 -11757292.85949  -9157112.17648  19221474.6164   19221473.8784
      1139.7934
 04  9 17 22 36 14.9950000  0  8G31G 8G28G13G19G10G29G27
  -2650230.02349  -2046824.18746  22276977.2414   22276978.5544
      5251.4344
 -18981310.09049 -14782051.17248  18943058.0234   18943057.0654
      2204.3034
 -19779166.28949 -16954250.53547  20025135.7264   20025133.2844
      3114.2594
   4006015.16849   3119686.75847  21158018.9294   21158017.6014
     -1996.1684
 -12342378.56649  -9608439.29747  21136548.3514   21136546.1514
        32.5584
  -9631240.07449  -7500325.15247  22227525.5934   22227525.5114
       224.4544
   -794469.80149   -602942.44146  22724929.7184   22724929.6364
      4570.0854
 -11774327.35949  -9170385.81248  19218232.9914   19218231.9914
      1135.6334
 04  9 17 22 36 29.9950000  0  8G31G 8G28G13G19G10G29G27
  -2728984.55949  -2108191.27046  22261990.0234   22261991.7224
      5250.3024
 -19014307.18749 -14807763.19548  18936778.8274   18936777.9874
      2199.8074
 -19825800.53149 -16990588.89547  20016260.8984   20016258.8084
      3108.9494
   4036024.83649   3143070.85947  21163729.2654   21163728.8474
     -2000.6454
 -12342734.65249  -9608716.77047  21136480.7184   21136477.9094
        23.7394
  -9634489.19949  -7502856.92247  22226906.7334   22226906.1714
       216.6084
   -862978.23449   -656325.65646  22711893.6404   22711892.6284
      4567.2294
 -11791298.59449  -9183610.15248  19215003.6794   19215002.1714
      1131.4164
 04  9 17 22 36 44.9950000  0  8G31G 8G28G13G19G10G29G27
  -2807722.25049  -2169545.16846  22247006.9444   22247009.2844
      5249.1794
 -19047237.06249 -14833422.83648  18930512.8664   18930511.7454
      2195.3254
 -19872355.76649 -17026865.68747  20007401.9134   20007400.1364
      3103.6824
   4066100.80949   3166506.64147  21169452.5074   21169451.4174
     -2005.0654
 -12342959.14549  -9608891.71147  21136438.8434   21136435.5654
        14.9664
  -9637621.35549  -7505297.58247  22226310.4134   22226309.9254
       208.8104
   -931443.98449   -709675.58646  22698865.0384   22698863.9834
      4564.3834
 -11808206.90249  -9196785.46948  19211785.9524   19211784.7964
      1127.2214
 04  9 17 22 36 59.9950000  0  8G31G 8G28G13G19G10G29G27
  -2886441.79349  -2230885.04346  22232027.8584   22232029.0974
      5247.9704
 -19080098.59449 -14859029.22748  18924259.5074   18924257.9804
      2190.7694
 -19918830.99649 -17063080.14847  19998558.3664   19998556.4294
      3098.3494
   4096243.66449   3189994.56647  21175188.2804   21175187.8154
     -2009.5244
 -12343051.12149  -9608963.38347  21136420.8274   21136417.9444
         6.1324
  -9640635.84449  -7507646.52346  22225736.2184   22225737.7804
       200.9664
   -999865.74249   -762991.23446  22685844.9604   22685844.3984
      4561.4514
 -11825051.37149  -9209911.03148  19208580.5464   19208579.6984
      1122.9654
 04  9 17 22 37 14.9950000  0  8G31G 8G28G13G19G10G29G27
  -2965144.53149  -2292211.73446  22217051.0074   22217053.0234
      5246.8494
 -19112893.64849 -14884583.80548  18918018.3584   18918017.3474
      2186.3374
 -19965227.94149 -17099233.59447  19989729.0384   19989727.0074
      3093.1304
   4126451.50449   3213533.09047  21180936.9294   21180935.9874
     -2013.8564
 -12343012.58249  -9608933.37547  21136427.7334   21136425.0114
        -2.5694
  -9643534.61749  -7509905.32046  22225184.8514   22225185.6284
       193.2524
  -1068245.12149   -816273.86346  22672831.4054   22672832.4834
      4558.6254
 -11841833.47749  -9222988.00048  19205386.8584   19205385.8664
      1118.8074
 04  9 17 22 37 29.9950000  0  8G31G 8G28G13G19G10G29G27
  -3043827.35249  -2353522.93747  22202077.8584   22202080.1284
      5245.5214
 -19145619.19949 -14910084.23448  18911791.1944   18911789.8044
      2181.7034
 -20011543.62149 -17135323.71147  19980915.4994   19980913.7184
      3087.7124
   4156726.79349   3237124.20347  21186697.7334   21186697.4094
     -2018.3534
 -12342840.77349  -9608799.48047  21136460.8354   21136458.0544
       -11.4544
  -9646315.16849  -7512071.96146  22224655.6554   22224656.4834
       185.3704
  -1136578.80549   -869520.82446  22659828.1874   22659828.7924
      4555.5794
 -11858550.30949  -9236014.10948  19202205.5934   19202204.8084
      1114.4554
 04  9 17 22 37 44.9950000  0  8G31G 8G28G13G19G10G29G27
  -3122489.96149  -2414818.38346  22187109.0234   22187111.4294
      5244.1744
 -19178275.06649 -14935530.36348  18905576.9524   18905575.6834
      2177.0584
 -20057778.21149 -17171350.65647  19972117.2574   19972115.6754
      3082.3064
   4187069.20749   3260767.62947  21192472.3904   21192470.2574
     -2022.8284
 -12342535.96949  -9608561.98847  21136518.7884   21136515.9524
       -20.3204
  -9648977.67249  -7514146.71146  22224149.2654   22224149.6984
       177.5004
  -1204866.60949   -922732.02346  22646833.7264   22646834.2844
      4552.5204
 -11875201.87949  -9248989.36348  19199036.9914   19199036.2494
      1110.1054
 04  9 17 22 37 59.9950000  0  8G31G 8G28G13G19G10G29G27
  -3201132.92249  -2476098.54346  22172143.3044   22172145.2764
      5242.8644
 -19210861.90249 -14960922.69948  18899375.7884   18899374.6874
      2172.4564
 -20103932.64549 -17207315.12547  19963334.2334   19963332.6404
      3076.9624
   4217477.50049   3284462.35547  21198258.3044   21198257.6594
     -2027.2204
 -12342099.31649  -9608221.75047  21136601.7024   21136599.2964
       -29.1104
  -9651523.39549  -7516130.40246  22223664.7654   22223664.9994
       169.7154
  -1273109.04749   -975908.02046  22633847.8354   22633847.7654
      4549.4964
 -11891788.91049  -9261914.33248  19195880.8824   19195879.7064
      1105.8024
 04  9 17 22 38 14.9950000  0  8G31G 8G28G13G19G10G29G27
  -3279756.03949  -2537363.23846  22157181.4764   22157183.3474
      5241.5414
 -19243380.07849 -14986261.53948  18893187.7654   18893186.5934
      2167.8784
 -20150007.21949 -17243217.37547  19954566.4374   19954565.3154
      3071.6384
   4247951.27749   3308208.12547  21204057.7884   21204055.9014
     -2031.5854
 -12341531.26649  -9607779.11747  21136709.7804   21136707.5034
       -37.8704
  -9653952.89549  -7518023.55147  22223202.2494   22223202.7454
       161.9674
  -1341306.11349  -1029048.55947  22620870.8044   22620870.3704
      4546.4714
 -11908311.67249  -9274789.21148  19192736.4214   19192735.6674
      1101.5174
 04  9 17 22 38 29.9950000  0  8G31G 8G28G13G19G10G29G27
  -3358357.94949  -2598611.39546  22142224.8354   22142226.3824
      5240.1274
 -19275828.43049 -15011545.96548  18887012.8354   18887011.5074
      2163.2234
 -20196000.68449 -17279056.42247  19945814.3124   19945812.6714
      3066.2314
   4278491.33249   3332005.52747  21209868.4914   21209868.6794
     -2036.0044
 -12340830.69549  -9607233.24247  21136843.1874   21136840.5074
       -46.7054
  -9656265.23049  -7519825.36746  22222762.3744   22222763.3194
       154.1564
  -1409456.47749  -1082152.74246  22607902.1944   22607901.5624
      4543.3584
 -11924768.84849  -9287612.98848  19189605.0304   19189603.8704
      1097.1454
 04  9 17 22 38 44.9950000  0  8G31G 8G28G13G19G10G29G27
  -3436938.64149  -2659843.02346  22127270.7574   22127272.7804
      5238.7134
 -19308207.14849 -15036776.13348  18880851.3514   18880850.1554
      2158.5814
 -20241913.40249 -17314832.55547  19937077.3664   19937075.1554
      3060.8484
   4309096.99649   3355854.07047  21215692.8194   21215692.7064
     -2040.3784
 -12339998.21549  -9606584.57047  21137001.7414   21136998.7694
       -55.4994
  -9658461.05149  -7521536.43047  22222345.1244   22222344.9684
       146.3884
  -1477560.15649  -1135220.53546  22594941.7494   22594942.0544
      4540.2454
 -11941160.67249  -9300385.84448  19186485.5234   19186484.3354
      1092.7884
 04  9 17 22 38 59.9950000  0  8G31G 8G28G13G19G10G29G27
  -3515498.22749  -2721058.22346  22112321.9294   22112322.7224
      5237.3064
 -19340516.39849 -15061952.17648  18874703.5154   18874702.0624
      2153.9504
 -20287745.94149 -17350546.20347  19928355.7884   19928353.8824
      3055.5034
   4339767.40649   3379753.06647  21221529.3274   21221529.0264
     -2044.6944
 -12339034.54749  -9605833.65647  21137185.5694   21137181.6484
       -64.2454
  -9660541.12149  -7523157.29346  22221948.8434   22221948.7534
       138.6714
  -1545617.32449  -1188252.05946  22581991.2964   22581990.7694
      4537.1454
 -11957487.64149  -9313108.17648  19183378.7964   19183377.2964
      1088.4654
 04  9 17 22 39 14.9950000  0  8G31G 8G28G13G19G10G29G27
  -3594035.16449  -2782255.74246  22097376.6714   22097377.3124
      5235.7964
 -19372755.11749 -15087073.25048  18868568.2964   18868567.0624
      2149.2484
 -20333496.88749 -17386196.27747  19919649.2964   19919647.7924
      3050.0634
   4370503.58249   3403703.29347  21227378.3904   21227378.4914
     -2049.0784
 -12337938.66849  -9604979.73847  21137393.2334   21137390.5654
       -73.0594
  -9662504.51649  -7524687.22747  22221575.0934   22221576.2804
       130.8934
  -1613626.54349  -1241246.25846  22569049.8434   22569049.1204
      4533.9484
 -11973748.27749  -9325778.79748  19180284.3274   19180283.0464
      1084.0424
 04  9 17 22 39 29.9950000  0  8G31G 8G28G13G19G10G29G27
  -3672549.67249  -2843435.80546  22082435.2494   22082436.9054
      5234.3014
 -19404923.67249 -15112139.64548  18862447.2104   18862446.1594
      2144.5704
 -20379166.90249 -17421783.28547  19910958.8434   19910956.9804
      3044.6684
   4401304.66449   3427704.09447  21233240.1554   21233238.6594
     -2053.4054
 -12336711.28149  -9604023.32847  21137627.3044   21137624.6084
       -81.8264
  -9664352.02749  -7526126.87947  22221223.3514   22221224.6324
       123.1674
  -1681587.96949  -1294203.23846  22556116.2734   22556116.8744
      4530.7624
 -11989943.22749  -9338398.24648  19177202.7494   19177201.4994
      1079.6634
 04  9 17 22 39 44.9950000  0  8G31G 8G28G13G19G10G29G27
  -3751043.42249  -2904599.68447  22067499.2574   22067499.7534
      5232.9174
 -19437024.01249 -15137152.90248  18856338.5624   18856337.2654
      2140.0234
 -20424758.16049 -17457308.92647  19902282.9134   19902281.0544
      3039.4174
   4432168.23449   3451753.59847  21239112.3434   21239112.4684
     -2057.5714
 -12335354.70749  -9602966.27347  21137884.8044   21137882.6404
       -90.4384
  -9666086.10949  -7527478.10246  22220893.9684   22220894.3314
       115.6054
  -1749503.40249  -1347124.30146  22543193.3664   22543192.8084
      4527.6964
 -12006074.32049  -9350967.92648  19174133.3824   19174132.3194
      1075.4064
 04  9 17 22 39 59.9950000  0  8G31G 8G28G13G19G10G29G27
  -3829514.41049  -2965745.81646  22052565.8274   22052567.8664
      5231.3994
 -19469053.89849 -15162111.25448  18850243.4374   18850242.7374
      2135.3264
 -20470268.71549 -17492771.68047  19893622.6484   19893620.3904
      3034.0374
   4463095.78549   3475852.93447  21244998.2654   21244997.6674
     -2061.8374
 -12333867.24649  -9601807.23847  21138168.4764   21138165.6164
       -99.1644
  -9667704.97348  -7528739.60246  22220584.7184   22220586.2614
       107.9244
  -1817370.66449  -1400007.91446  22530278.3744   22530277.1554
      4524.4844
 -12022139.66849  -9363486.39148  19171075.9994   19171074.9444
      1071.0234
 04  9 17 22 40 14.9950000  0  8G31G 8G28G13G19G10G29G27
  -3907960.48049  -3026872.54746  22037639.0464   22037640.0424
      5229.7384
 -19501011.78549 -15187013.49648  18844161.5934   18844160.8984
      2130.5264
 -20515697.07449 -17528170.39547  19884977.6714   19884976.3394
      3028.5574
   4494088.70749   3500003.22347  21250896.4764   21250896.2964
     -2066.1954
 -12332247.48049  -9600545.09047  21138476.4214   21138473.4214
      -107.9844
  -9669207.52348  -7529910.45746  22220299.5694   22220300.6754
       100.1704
  -1885187.98849  -1452852.56646  22517373.0854   22517371.5234
      4521.1554
 -12038137.62549  -9375952.34048  19168031.9524   19168030.8984
      1066.5304
 04  9 17 22 40 29.9950000  0  8G31G 8G28G13G19G10G29G27
  -3986383.77349  -3087981.53546  22022714.6244   22022715.7924
      5228.2204
 -19532900.08649 -15211861.52348  18838094.1014   18838092.7764
      2125.8874
 -20561045.46949 -17563506.78547  19876348.7734   19876346.6084
      3023.2264
   4525144.36349   3524202.39547  21256805.2334   21256806.2494
     -2070.3774
 -12330498.05149  -9599181.89847  21138809.6244   21138806.9174
      -116.6294
  -9670596.39149  -7530992.69146  22220035.1714   22220036.3044
        92.5914
  -1952957.41449  -1505659.89846  22504477.2264   22504475.5544
      4517.9624
 -12054070.43049  -9388367.51648  19164999.6164   19164998.0934
      1062.1874
 04  9 17 22 40 44.9950000  0  8G31G 8G28G13G19G10G29G27
  -4064784.23449  -3149072.75846  22007795.3744   22007796.4564
      5226.6974
 -19564719.17649 -15236655.61348  18832039.0934   18832037.9834
      2121.2734
 -20606314.21549 -17598781.11747  19867733.8904   19867732.4404
      3017.9164
   4556262.17649   3548450.00047  21262727.2574   21262726.9564
     -2074.5214
 -12328619.28549  -9597717.93447  21139167.2964   21139164.5854
      -125.2514
  -9671872.07048  -7531986.75846  22219792.6404   22219793.6054
        85.0454
  -2020678.83249  -1558429.84046  22491590.4834   22491588.4834
      4514.7614
 -12069938.22749  -9400732.03148  19161980.3044   19161979.3154
      1057.8534
 04  9 17 22 40 59.9950000  0  8G31G 8G28G13G19G10G29G27
  -4143159.81249  -3210144.56247  21992880.9294   21992882.1514
      5225.0394
 -19596467.14149 -15261394.28548  18825997.3664   18825996.5734
      2116.5314
 -20651501.78149 -17633992.19947  19859135.3514   19859133.5424
      3012.5044
   4587443.42249   3572747.04347  21268660.7414   21268659.8474
     -2078.7504
 -12326609.89549  -9596152.18047  21139549.5934   21139547.0234
      -133.9594
  -9673033.19949  -7532891.58247  22219572.0234   22219573.1054
        77.4094
  -2088350.40649  -1611160.92246  22478712.3274   22478712.3984
      4511.4384
 -12085739.27749  -9413044.54748  19158973.4054   19158972.2264
      1053.4034
 04  9 17 22 41 14.9950000  0  8G31G 8G28G13G19G10G29G27
  -4221509.99649  -3271196.55146  21977971.5234   21977972.2374
      5223.3464
 -19628143.38749 -15286077.07048  18819969.5464   18819968.6754
      2111.7504
 -20696607.93749 -17669139.83647  19850551.4054   19850549.5114
      3007.0774
   4618687.96949   3597093.41447  21274607.0624   21274606.3194
     -2082.9704
 -12324469.73049  -9594484.53147  21139957.1944   21139953.8784
      -142.6784
  -9674079.82048  -7533707.15246  22219372.4994   22219373.2844
        69.7754
  -2155971.50849  -1663852.66046  22465844.6084   22465845.0814
      4508.0734
 -12101473.27749  -9425304.80548  19155979.1714   19155977.8124
      1048.9334
 04  9 17 22 41 29.9950000  0  8G31G 8G28G13G19G10G29G27
  -4299834.93749  -3332228.89547  21963067.5234   21963067.3354
      5221.6634
 -19659748.42649 -15310704.37948  18813955.4524   18813954.5304
      2107.0034
 -20741633.19949 -17704224.44947  19841983.2264   19841981.9524
      3001.6844
   4649995.02749   3621488.47747  21280563.9054   21280564.0384
     -2087.1374
 -12322199.54749  -9592715.56647  21140388.6794   21140385.8514
      -151.3464
  -9675012.64549  -7534434.07046  22219195.3354   22219195.3944
        62.1884
  -2223542.42649  -1716505.32446  22452986.4994   22452986.3514
      4504.7284
 -12117140.61749  -9437513.12548  19152997.8514   19152996.9994
      1044.4894
 04  9 17 22 41 44.9950000  0  8G31G 8G28G13G19G10G29G27
  -4378134.66849  -3393241.60547  21948167.3194   21948167.9874
      5219.9824
 -19691282.71149 -15335276.54748  18807954.8744   18807953.9294
      2102.2864
 -20786578.09849 -17739246.43047  19833430.7104   19833429.5584
      2996.3274
   4681363.87549   3645931.69147  21286533.5934   21286532.4684
     -2091.2574
 -12319800.10249  -9590845.88347  21140845.1794   21140842.2064
      -159.9634
  -9675832.69949  -7535073.07046  22219040.7334   22219039.5584
        54.6704
  -2291063.35949  -1769119.04346  22440137.2024   22440137.2844
      4501.3964
 -12132741.77049  -9449669.87948  19150028.6404   19150027.6364
      1040.0774
 04  9 17 22 41 59.9950000  0  8G31G 8G28G13G19G10G29G27
  -4456408.41449  -3454234.09847  21933272.1164   21933273.2964
      5218.2504
 -19722745.44549 -15359792.96548  18801967.2654   18801966.1554
      2097.5164
 -20831442.00849 -17774205.29747  19824893.3984   19824892.1754
      2990.9274
   4712794.77349   3670423.27347  21292514.5854   21292513.8474
     -2095.3934
 -12317270.95749  -9588875.12547  21141326.8904   21141323.5154
      -168.6104
  -9676539.60949  -7535623.89546  22218905.0544   22218905.2614
        47.1274
  -2358533.58249  -1821693.15646  22427298.1164   22427298.3474
      4498.0154
 -12148276.02049  -9461774.49248  19147073.1794   19147071.9994
      1035.6174
 04  9 17 22 42 14.9950000  0  8G31G 8G28G13G19G10G29G27
  -4534653.64849  -3515204.31247  21918382.7964   21918383.2064
      5216.3494
 -19754134.61349 -15384252.05548  18795994.8824   18795993.3824
      2092.6114
 -20876222.80149 -17809099.41047  19816372.2734   19816370.3314
      2985.3864
   4744289.62549   3694964.68047  21298507.6874   21298507.4524
     -2099.6574
 -12314610.15649  -9586801.80947  21141832.9054   21141830.1244
      -177.3874
  -9677131.34449  -7536085.02046  22218792.3904   22218792.1084
        39.4494
  -2425950.30549  -1874225.71546  22414469.6324   22414467.5814
      4494.4484
 -12163741.20749  -9473825.28548  19144130.1084   19144128.7884
      1031.0134
 04  9 17 22 42 29.9950000  0  8G31G 8G28G13G19G10G29G27
  -4612871.21549  -3576153.02047  21903498.1484   21903498.6364
      5214.5044
 -19785450.94949 -15408654.39548  18790034.5694   18790033.8784
      2087.7564
 -20920921.63749 -17843929.65247  19807865.8434   19807864.2494
      2979.9224
   4775846.83649   3719554.68047  21304513.3664   21304513.7764
     -2103.8144
 -12311819.09049  -9584626.93447  21142364.3744   21142361.5344
      -186.0714
  -9677609.46549  -7536457.60946  22218701.7884   22218701.4054
        31.8754
  -2493314.69549  -1926717.43446  22401650.6714   22401649.7764
      4490.9594
 -12179138.19949  -9485822.94548  19141200.2414   19141198.4564
      1026.4664
 04  9 17 22 42 44.9950000  0  8G31G 8G28G13G19G10G29G27
  -4691060.94549  -3637079.98447  21888618.4444   21888619.6874
      5212.6494
 -19816694.66049 -15433000.14548  18784089.6944   18784088.0774
      2082.9144
 -20965538.59049 -17878696.09847  19799376.1404   19799373.8194
      2974.4644
   4807466.01249   3744192.93047  21310529.6484   21310530.4644
     -2107.9454
 -12308898.10249  -9582350.87147  21142920.0074   21142917.5344
      -194.7334
  -9677974.30949  -7536741.93046  22218632.3354   22218632.4134
        24.3234
  -2560626.46949  -1979168.17246  22388840.6014   22388840.4524
      4487.4524
 -12194467.19549  -9497767.62148  19138283.4374   19138281.7454
      1021.9334
 04  9 17 22 42 59.9950000  0  8G31G 8G28G13G19G10G29G27
  -4769223.14149  -3697985.50447  21873745.3044   21873745.3984
      5210.8134
 -19847866.41849 -15457289.82848  18778157.8824   18778156.5934
      2078.1174
 -21010074.52049 -17913399.40647  19790900.8744   19790899.3274
      2969.0624
   4839146.00849   3768878.60547  21316558.7804   21316558.4954
     -2112.0004
 -12305848.28149  -9579974.38747  21143500.5384   21143498.5734
      -203.3214
  -9678227.12949  -7536938.93746  22218584.0234   22218584.0814
        16.8554
  -2627886.16449  -2031578.27346  22376042.8984   22376041.8234
      4483.9804
 -12209728.82449  -9509659.80548  19135378.9524   19135377.7494
      1017.4424
 04  9 17 22 43 14.9950000  0  8G31G 8G28G13G19G10G29G27
  -4847358.19149  -3758869.91846  21858876.2804   21858876.4834
      5209.0034
 -19878966.88349 -15481523.95348  18772239.4524   18772238.2064
      2073.3644
 -21054530.12949 -17948040.12147  19782441.1244   19782439.2804
      2963.7074
   4870885.98049   3793611.02347  21322598.3744   21322598.1284
     -2115.9984
 -12302670.34849  -9577498.10547  21144105.0854   21144103.1594
      -211.8624
  -9678368.80549  -7537049.37546  22218556.8514   22218556.5654
         9.4454
  -2695094.10949  -2083948.07846  22363253.7414   22363251.2104
      4480.5304
 -12224923.64149  -9521499.92648  19132487.2964   19132485.7414
      1012.9884
 04  9 17 22 43 29.9950000  0  8G31G 8G28G13G19G10G29G27
  -4925462.63749  -3819730.46946  21844013.4444   21844013.8554
      5206.9634
 -19909992.56649 -15505699.81648  18766335.4444   18766334.6754
      2068.3794
 -21098902.27049 -17982615.81647  19773997.5384   19773995.6054
      2958.1434
   4902688.67249   3818392.30947  21328649.6244   21328650.1594
     -2120.1794
 -12299361.34849  -9574919.68447  21144734.9294   21144732.6404
      -220.6004
  -9678396.45349  -7537070.94146  22218552.1084   22218551.6204
         1.8434
  -2762246.84049  -2136274.88347  22350474.5544   22350473.5624
      4476.8494
 -12240048.48449  -9533285.52048  19129609.4374   19129607.9684
      1008.3234
 04  9 17 22 43 44.9950000  0  8G31G 8G28G13G19G10G29G27
  -5003536.23049  -3880566.97347  21829156.8904   21829156.8584
      5204.9064
 -19940943.55149 -15529817.45348  18760445.7264   18760444.7534
      2063.3994
 -21143191.11349 -18017126.58647  19765569.5544   19765567.9684
      2952.5904
   4934553.73449   3843222.19947  21334713.8434   21334714.0264
     -2124.3374
 -12295921.66849  -9572239.41847  21145389.2414   21145386.5734
      -229.3124
  -9678310.46949  -7537003.96546  22218567.5304   22218568.0194
        -5.7324
  -2829344.20749  -2188558.54347  22337706.2024   22337705.7414
      4473.1584
 -12255103.23849  -9545016.50448  19126744.3664   19126743.0504
      1003.6504
 04  9 17 22 43 59.9950000  0  8G31G 8G28G13G19G10G29G27
  -5081580.21549  -3941380.37946  21814305.1014   21814305.9014
      5202.9324
 -19971821.43749 -15553878.14548  18754569.8274   18754569.1714
      2058.5264
 -21187398.34449 -18051573.75847  19757156.9444   19757155.0384
      2947.1494
   4966479.09049   3868099.05547  21340790.1244   21340789.7924
     -2128.3574
 -12292353.17249  -9569458.78147  21146068.3984   21146065.2264
      -237.9004
  -9678112.84049  -7536850.00446  22218605.7024   22218606.1364
       -13.1754
  -2896387.62149  -2240800.11346  22324948.1554   22324947.5384
      4469.5614
 -12270089.65249  -9556694.23848  19123892.4764   19123891.1874
       999.0944
 04  9 17 22 44 14.9950000  0  8G31G 8G28G13G19G10G29G27
  -5159594.19149  -4002170.39847  21799459.6164   21799459.6984
      5200.9324
 -20002626.01649 -15577881.71948  18748708.0774   18748706.9644
      2053.6394
 -21231523.72349 -18085957.15247  19748760.4604   19748758.8314
      2941.6924
   4998464.71949   3893022.87947  21346876.1324   21346875.7494
     -2132.3754
 -12288655.90249  -9566577.78547  21146771.7024   21146768.8194
      -246.4854
  -9677803.69549  -7536609.15246  22218665.6324   22218664.3784
       -20.6104
  -2963376.50849  -2292999.24646  22312198.8744   22312199.1674
      4465.9264
 -12285007.36349  -9568318.42248  19121054.1084   19121052.7144
       994.5144
 04  9 17 22 44 29.9950000  0  8G31G 8G28G13G19G10G29G27
  -5237576.44949  -4062935.76246  21784619.7414   21784620.3194
      5198.8174
 -20033355.79349 -15601826.99248  18742860.3044   18742859.2494
      2048.6524
 -21275566.02049 -18120275.81647  19740379.3514   19740378.0624
      2936.1534
   5030511.57049   3917994.42247  21352974.0854   21352974.3354
     -2136.4574
 -12284828.86749  -9563595.70347  21147499.8194   21147497.3824
      -255.1364
  -9677382.22349  -7536280.74246  22218744.1944   22218744.6284
       -28.0984
  -3030309.43749  -2345154.73446  22299464.7574   22299462.4604
      4462.1954
 -12299855.03949  -9579888.05148  19118228.6404   19118226.9994
       989.8454
 04  9 17 22 44 44.9950000  0  8G31G 8G28G13G19G10G29G27
  -5315528.08649  -4123677.18046  21769786.0154   21769787.2494
      5196.7764
 -20064011.91849 -15625714.88748  18737026.4374   18737025.5734
      2043.7424
 -21319526.62149 -18154530.81247  19732014.1714   19732012.3084
      2930.7074
   5062618.00449   3943012.37147  21359083.8044   21359084.5814
     -2140.4294
 -12280873.59049  -9560513.70347  21148253.3044   21148249.9724
      -263.6854
  -9676849.85949  -7535865.90246  22218845.7494   22218846.4994
       -35.4914
  -3097187.27349  -2397267.37946  22286737.4444   22286736.3044
      4458.5224
 -12314633.87549  -9591404.02348  19115416.2024   19115414.6054
       985.2564
 04  9 17 22 44 59.9950000  0  8G31G 8G28G13G19G10G29G27
  -5393447.81649  -4184393.79747  21754958.7884   21754958.8314
      5194.6494
 -20094593.56649 -15649544.74648  18731207.3274   18731206.0194
      2038.7774
 -21363404.70749 -18188721.52047  19723664.4604   19723661.6904
      2925.2064
   5094784.43449   3968077.08647  21365204.7884   21365204.4134
     -2144.4294
 -12276789.44149  -9557331.27047  21149029.5934   21149027.2454
      -272.2774
  -9676206.15649  -7535364.35546  22218969.3904   22218968.3434
       -42.9144
  -3164009.11349  -2449336.29346  22274020.7734   22274021.4214
      4454.7894
 -12329343.08249  -9602865.75048  19112616.9684   19112615.4404
       980.6144
 04  9 17 22 45 14.9950000  0  8G31G 8G28G13G19G10G29G27
  -5471336.50049  -4245086.24647  21740136.8514   21740137.4564
      5192.5794
 -20125101.66449 -15673317.29348  18725401.8514   18725400.6514
      2033.8734
 -21407201.37949 -18222848.79347  19715330.4604   19715327.8624
      2919.7784
   5127009.64549   3993187.60947  21371337.7734   21371337.6634
     -2148.3474
 -12272577.68049  -9554049.37147  21149831.4914   21149828.9834
      -280.7844
  -9675452.37149  -7534777.00846  22219112.1324   22219111.9014
       -50.2524
  -3230775.50849  -2501362.04346  22261316.9054   22261315.3864
      4451.0934
 -12343983.41849  -9614273.80148  19109831.3904   19109829.8904
       976.0224
 04  9 17 22 45 29.9950000  0  8G31G 8G28G13G19G10G29G27
  -5549192.39849  -4305753.09047  21725321.4524   21725321.5114
      5190.3934
 -20155534.96149 -15697031.54748  18719610.4914   18719609.4014
      2028.8864
 -21450915.32049 -18256911.59047  19707011.6944   19707009.8944
      2914.2634
   5159294.42649   4018344.54347  21377481.2414   21377481.2334
     -2152.3194
 -12268237.29749  -9550667.29747  21150657.2024   21150654.8904
      -289.3594
  -9674587.63749  -7534103.20346  22219276.4764   22219277.6594
       -57.6494
  -3297485.05149  -2553343.49246  22248621.1084   22248620.7654
      4447.3034
 -12358553.62549  -9625627.21948  19107058.3194   19107057.2964
       971.3474
 04  9 17 22 45 44.9950000  0  8G31G 8G28G13G19G10G29G27
  -5627016.16849  -4366394.91447  21710511.3434   21710511.9914
      5188.2514
 -20185894.15649 -15720688.07048  18713833.4374   18713832.5114
      2023.9464
 -21494547.52749 -18290910.69147  19698708.7654   19698706.3904
      2908.8144
   5191637.54749   4043546.93447  21383636.2734   21383635.8084
     -2156.2084
 -12263769.53549  -9547185.93047  21151507.6794   21151505.1714
      -297.8514
  -9673613.26249  -7533344.00447  22219461.8274   22219463.3354
       -64.9584
  -3364138.38349  -2605281.11747  22235936.7494   22235938.3044
      4443.5554
 -12373054.55949  -9636926.64848  19104299.2494   19104297.8084
       966.7294
 04  9 17 22 45 59.9950000  0  8G31G 8G28G13G19G10G29G27
  -5704807.03549  -4427011.12147  21695708.7334   21695709.2024
      5186.0584
 -20216178.73049 -15744286.43748  18708070.5544   18708069.0734
      2018.9724
 -21538097.65249 -18324845.84847  19690421.2884   19690419.5544
      2903.3424
   5224039.20349   4068794.91847  21389801.7414   21389802.2614
     -2160.1104
 -12259174.12149  -9543605.09047  21152382.4834   21152379.5154
      -306.3614
  -9672528.99649  -7532499.15246  22219668.6874   22219668.7574
       -72.2844
  -3430734.86349  -2657174.45346  22223265.0774   22223264.5694
      4439.7654
 -12387485.80949  -9648171.78948  19101553.0234   19101551.3864
       962.0834
 04  9 17 22 46 14.9950000  0  8G31G 8G28G13G19G10G29G27
  -5782565.71549  -4487602.23047  21680912.0234   21680912.0854
      5183.9124
 -20246389.47749 -15767827.27048  18702321.4914   18702320.1674
      2014.0504
 -21581566.80549 -18358717.90247  19682149.4214   19682147.8274
      2897.9434
   5256497.94149   4094087.40247  21395978.3354   21395978.1904
     -2163.9164
 -12254452.29749  -9539925.77047  21153280.3984   21153277.9684
      -314.7884
  -9671336.29349  -7531569.78146  22219895.8744   22219894.8554
       -79.5144
  -3497275.01649  -2709023.89547  22210603.1404   22210602.7884
      4436.0104
 -12401848.18449  -9659363.24648  19098819.6874   19098818.4134
       957.4924
 04  9 17 22 46 29.9950000  0  8G31G 8G28G13G19G10G29G27
  -5860290.52049  -4548166.97747  21666121.3664   21666121.4254
      5181.6544
 -20276525.16849 -15791309.64148  18696586.5234   18696585.3744
      2009.0464
 -21624953.53949 -18392525.73847  19673892.7964   19673891.0814
      2892.4494
   5289014.99249   4119425.32047  21402166.4134   21402166.3314
     -2167.8034
 -12249602.95349  -9536147.07047  21154203.9524   21154201.0974
      -323.2904
  -9670034.15249  -7530555.11346  22220142.8744   22220142.8624
       -86.8094
  -3563757.31249  -2760828.30946  22197951.6084   22197950.4684
      4432.1534
 -12416140.28549  -9670499.95348  19096100.3044   19096098.7454
       952.8074
 04  9 17 22 46 44.9950000  0  8G31G 8G28G13G19G10G29G27
  -5937981.73849  -4608705.51247  21651336.9054   21651337.3624
      5179.4154
 -20306586.41049 -15814733.97748  18690866.5464   18690864.6444
      2004.0834
 -21668258.55549 -18426269.88747  19665652.4994   19665650.5584
      2887.0014
   5321589.29349   4144807.85547  21408365.2184   21408365.6364
     -2171.6204
 -12244626.90649  -9532269.66847  21155150.8584   21155147.8704
      -331.7364
  -9668623.33649  -7529455.84046  22220411.7574   22220411.6714
       -94.0544
  -3630182.13749  -2812587.87147  22185310.8824   22185311.9874
      4428.3224
 -12430362.68749  -9681582.35548  19093393.7104   19093392.5934
       948.1604
 04  9 17 22 46 59.9950000  0  8G31G 8G28G13G19G10G29G27
  -6015638.96149  -4669217.56647  21636559.2494   21636559.8944
      5177.1484
 -20336572.90649 -15838100.07848  18685160.1014   18685158.9444
      1999.1004
 -21711481.90249 -18459950.41447  19657427.1634   19657425.5114
      2881.5574
   5354220.49249   4170234.71547  21414574.2264   21414574.8154
     -2175.4134
 -12239524.37949  -9528293.68447  21156120.9604   21156119.0114
      -340.1684
  -9667104.16449  -7528272.10246  22220701.1944   22220700.7184
      -101.2784
  -3696549.07049  -2864302.32847  22172681.8514   22172682.9724
      4424.4624
 -12444515.30149  -9692610.37148  19090700.4994   19090699.1674
       943.5084
 04  9 17 22 47 14.9950000  0  8G31G 8G28G13G19G10G29G27
  -6093260.00449  -4729701.43447  21621788.5854   21621789.0974
      5174.7364
 -20366482.81249 -15861406.50048  18679467.9764   18679467.2764
      1993.9944
 -21754621.59849 -18493565.74647  19649218.5304   19649216.2184
      2875.9804
   5386910.34049   4195707.24247  21420795.4914   21420795.0154
     -2179.3234
 -12234293.75449  -9524217.89547  21157116.6014   21157114.3784
      -348.7084
  -9665475.04349  -7527002.65246  22221010.1634   22221010.1714
      -108.6084
  -3762856.01249  -2915970.04747  22160064.4994   22160064.8554
      4420.4634
 -12458596.02749  -9703582.37548  19088021.1634   19088019.7694
       938.7154
 04  9 17 22 47 29.9950000  0  8G31G 8G28G13G19G10G29G27
  -6170846.32449  -4790158.20347  21607025.2024   21607024.8004
      5172.4214
 -20396317.67649 -15884654.44948  18673791.3584   18673789.5854
      1988.9914
 -21797679.64849 -18527117.45747  19641024.6324   19641022.2454
      2870.5374
   5419656.50449   4221223.74247  21427026.5694   21427026.0654
     -2183.0784
 -12228937.06249  -9520043.85547  21158136.3354   21158133.7654
      -357.1134
  -9663738.17249  -7525649.28946  22221341.2654   22221340.5074
      -115.7914
  -3829104.50049  -2967592.25047  22147457.8584   22147457.3084
      4416.5664
 -12472606.70749  -9714499.78548  19085354.8044   19085353.6754
       934.0454
 04  9 17 22 47 44.9950000  0  8G31G 8G28G13G19G10G29G27
  -6248396.69549  -4850587.01647  21592266.7184   21592266.9994
      5170.0254
 -20426076.28949 -15907842.98048  18668127.9764   18668126.7654
      1983.9084
 -21840655.04749 -18560604.76648  19632846.3904   19632844.7104
      2865.0274
   5452459.57849   4246784.52347  21433269.2184   21433268.4294
     -2186.8724
 -12223453.70749  -9515771.10547  21159180.0854   21159176.9484
      -365.5574
  -9661892.94949  -7524211.43746  22221692.2024   22221692.1324
      -123.0154
  -3895293.30949  -3019167.94147  22134863.0464   22134861.3904
      4412.5874
 -12486546.33649  -9725361.84448  19082702.6014   19082701.2694
       929.3094
 04  9 17 22 47 59.9940000  0  8G31G 8G28G13G19G10G29G27
  -6325906.53549  -4910984.23047  21577517.2364   21577517.3974
      5167.3234
 -20455757.96549 -15930971.55548  18662480.0024   18662478.6824
      1978.7784
 -21883545.91449 -18594026.21547  19624684.9164   19624682.2134
      2859.3914
   5485316.25449   4272387.07847  21439521.2834   21439521.3464
     -2190.4454
 -12217845.08249  -9511400.78947  21160246.9164   21160244.6474
      -373.9084
  -9659940.75449  -7522690.24246  22222064.0254   22222063.8774
      -130.1464
  -3961418.69949  -3070694.18047  22122279.0494   22122279.9594
      4408.3594
 -12500414.82049  -9736168.46548  19080063.2834   19080061.6664
       924.5664
 04  9 17 22 48 14.9940000  0  8G31G 8G28G13G19G10G29G27
  -6403386.84849  -4971358.44547  21562773.4714   21562772.9754
      5165.3544
 -20485367.29349 -15954043.76648  18656845.2214   18656844.4204
      1973.9554
 -21926359.11349 -18627387.14147  19616537.7754   19616535.2254
      2854.2134
   5518229.47749   4298033.69947  21445784.4794   21445784.4864
     -2194.2154
 -12212111.80149  -9506933.30547  21161337.5654   21161336.0684
      -382.2194
  -9657882.77349  -7521086.65646  22222455.4164   22222454.7254
      -137.1994
  -4027490.16049  -3122178.43446  22109706.9794   22109705.0294
      4404.7644
 -12514214.90649  -9746921.78148  19077437.1824   19077435.8814
       920.0064
